Wetterdaten: Samstag, 16.01.2021
Datum Zeit Temp. 2m Temp +5 cm Feuchte A. Luftdruck Regen Wind Richtung Richtung Sonnenschein UV Solar Taupunkt Windchill Windben
16.01.2021 00:00 -3,1 C -2,8 C 88 % 1032,0 hPa 0,0 l/m 0,0 km/h (0 Bft) N-NW 337 0 min 0,0 UV-I 0 W/m -4,8 C -3,1 C 1,6 km/h (1 Bft)
16.01.2021 00:01 -3,1 C -2,8 C 88 % 1032,1 hPa 0,0 l/m 0,0 km/h (0 Bft) N-NW 337 0 min 0,0 UV-I 0 W/m -4,8 C -3,1 C 1,6 km/h (1 Bft)
16.01.2021 00:02 -3,1 C -3,3 C 88 % 1032,1 hPa 0,0 l/m 1,6 km/h (1 Bft) N-NW 337 0 min 0,0 UV-I 0 W/m -4,8 C -3,1 C 1,6 km/h (1 Bft)
16.01.2021 00:03 -3,2 C -3,3 C 88 % 1032,1 hPa 0,0 l/m 0,0 km/h (0 Bft) N-NW 337 0 min 0,0 UV-I 0 W/m -4,9 C -3,2 C 1,6 km/h (1 Bft)
16.01.2021 00:04 -3,1 C -3,3 C 88 % 1032,2 hPa 0,0 l/m 3,2 km/h (1 Bft) N-NW 337 0 min 0,0 UV-I 0 W/m -4,8 C -3,1 C 3,2 km/h (1 Bft)
16.01.2021 00:05 -3,2 C -3,3 C 88 % 1032,2 hPa 0,0 l/m 1,6 km/h (1 Bft) N-NW 337 0 min 0,0 UV-I 0 W/m -4,9 C -3,2 C 3,2 km/h (1 Bft)
16.01.2021 00:06 -3,2 C -3,3 C 88 % 1032,2 hPa 0,0 l/m 1,6 km/h (1 Bft) N-NW 337 0 min 0,0 UV-I 0 W/m -4,9 C -3,2 C 3,2 km/h (1 Bft)
16.01.2021 00:07 -3,2 C -3,3 C 88 % 1032,1 hPa 0,0 l/m 0,0 km/h (0 Bft) N-NW 337 0 min 0,0 UV-I 0 W/m -4,9 C -3,2 C 1,6 km/h (1 Bft)
16.01.2021 00:08 -3,2 C -3,3 C 88 % 1032,1 hPa 0,0 l/m 0,0 km/h (0 Bft) N 0 0 min 0,0 UV-I 0 W/m -4,9 C -3,2 C 0,0 km/h (0 Bft)
16.01.2021 00:09 -3,2 C -3,3 C 88 % 1032,1 hPa 0,0 l/m 0,0 km/h (0 Bft) N-NW 337 0 min 0,0 UV-I 0 W/m -4,9 C -3,2 C 1,6 km/h (1 Bft)
16.01.2021 00:10 -3,2 C -3,3 C 88 % 1032,0 hPa 0,0 l/m 1,6 km/h (1 Bft) N-NW 337 0 min 0,0 UV-I 0 W/m -4,9 C -3,2 C 3,2 km/h (1 Bft)
16.01.2021 00:11 -3,2 C -3,3 C 88 % 1032,1 hPa 0,0 l/m 1,6 km/h (1 Bft) N-NW 337 0 min 0,0 UV-I 0 W/m -4,9 C -3,2 C 3,2 km/h (1 Bft)
16.01.2021 00:12 -3,2 C -3,3 C 88 % 1032,1 hPa 0,0 l/m 1,6 km/h (1 Bft) N-NW 337 0 min 0,0 UV-I 0 W/m -4,9 C -3,2 C 3,2 km/h (1 Bft)
16.01.2021 00:13 -3,2 C -3,3 C 88 % 1032,1 hPa 0,0 l/m 0,0 km/h (0 Bft) N-NW 337 0 min 0,0 UV-I 0 W/m -4,9 C -3,2 C 1,6 km/h (1 Bft)
16.01.2021 00:14 -3,2 C -3,3 C 88 % 1032,1 hPa 0,0 l/m 1,6 km/h (1 Bft) N-NW 337 0 min 0,0 UV-I 0 W/m -4,9 C -3,2 C 3,2 km/h (1 Bft)
16.01.2021 00:15 -3,2 C -2,8 C 88 % 1032,0 hPa 0,0 l/m 3,2 km/h (1 Bft) N-NW 337 0 min 0,0 UV-I 0 W/m -4,9 C -3,2 C 4,8 km/h (1 Bft)
16.01.2021 00:16 -3,2 C -2,8 C 88 % 1032,0 hPa 0,0 l/m 1,6 km/h (1 Bft) N-NW 337 0 min 0,0 UV-I 0 W/m -4,9 C -3,2 C 4,8 km/h (1 Bft)
16.01.2021 00:17 -3,2 C -2,8 C 88 % 1032,0 hPa 0,0 l/m 3,2 km/h (1 Bft) N-NW 337 0 min 0,0 UV-I 0 W/m -4,9 C -3,2 C 4,8 km/h (1 Bft)
16.01.2021 00:18 -3,2 C -2,8 C 88 % 1032,0 hPa 0,0 l/m 1,6 km/h (1 Bft) N-NW 337 0 min 0,0 UV-I 0 W/m -4,9 C -3,2 C 3,2 km/h (1 Bft)
16.01.2021 00:19 -3,2 C -2,8 C 88 % 1032,0 hPa 0,0 l/m 1,6 km/h (1 Bft) N-NW 337 0 min 0,0 UV-I 0 W/m -4,9 C -3,2 C 3,2 km/h (1 Bft)
16.01.2021 00:20 -3,2 C -2,8 C 88 % 1032,0 hPa 0,0 l/m 1,6 km/h (1 Bft) N-NW 337 0 min 0,0 UV-I 0 W/m -4,9 C -3,2 C 1,6 km/h (1 Bft)
16.01.2021 00:21 -3,2 C -2,8 C 88 % 1032,0 hPa 0,0 l/m 1,6 km/h (1 Bft) N-NW 337 0 min 0,0 UV-I 0 W/m -4,9 C -3,2 C 3,2 km/h (1 Bft)
16.01.2021 00:22 -3,2 C -2,8 C 88 % 1031,9 hPa 0,0 l/m 1,6 km/h (1 Bft) N-NW 337 0 min 0,0 UV-I 0 W/m -4,9 C -3,2 C 1,6 km/h (1 Bft)
16.01.2021 00:23 -3,2 C -2,8 C 88 % 1032,0 hPa 0,0 l/m 0,0 km/h (0 Bft) N-NW 337 0 min 0,0 UV-I 0 W/m -4,9 C -3,2 C 1,6 km/h (1 Bft)
16.01.2021 00:24 -3,2 C -3,3 C 88 % 1032,0 hPa 0,0 l/m 1,6 km/h (1 Bft) N-NW 337 0 min 0,0 UV-I 0 W/m -4,9 C -3,2 C 1,6 km/h (1 Bft)
16.01.2021 00:25 -3,2 C -3,3 C 88 % 1032,1 hPa 0,0 l/m 1,6 km/h (1 Bft) N-NW 337 0 min 0,0 UV-I 0 W/m -4,9 C -3,2 C 3,2 km/h (1 Bft)
16.01.2021 00:26 -3,2 C -3,3 C 88 % 1032,0 hPa 0,0 l/m 0,0 km/h (0 Bft) N-NW 337 0 min 0,0 UV-I 0 W/m -4,9 C -3,2 C 1,6 km/h (1 Bft)
16.01.2021 00:27 -3,2 C -3,3 C 88 % 1032,0 hPa 0,0 l/m 0,0 km/h (0 Bft) N 0 0 min 0,0 UV-I 0 W/m -4,9 C -3,2 C 0,0 km/h (0 Bft)
16.01.2021 00:28 -3,2 C -2,8 C 88 % 1031,9 hPa 0,0 l/m 0,0 km/h (0 Bft) N 0 0 min 0,0 UV-I 0 W/m -4,9 C -3,2 C 0,0 km/h (0 Bft)
16.01.2021 00:29 -3,2 C -3,3 C 88 % 1032,0 hPa 0,0 l/m 0,0 km/h (0 Bft) N-NW 337 0 min 0,0 UV-I 0 W/m -4,9 C -3,2 C 1,6 km/h (1 Bft)
16.01.2021 00:30 -3,2 C -3,3 C 88 % 1032,0 hPa 0,0 l/m 0,0 km/h (0 Bft) N-NW 337 0 min 0,0 UV-I 0 W/m -4,9 C -3,2 C 1,6 km/h (1 Bft)
16.01.2021 00:31 -3,2 C -3,3 C 88 % 1031,9 hPa 0,0 l/m 0,0 km/h (0 Bft) N 0 0 min 0,0 UV-I 0 W/m -4,9 C -3,2 C 0,0 km/h (0 Bft)
16.01.2021 00:32 -3,2 C -3,3 C 88 % 1032,0 hPa 0,0 l/m 0,0 km/h (0 Bft) N 0 0 min 0,0 UV-I 0 W/m -4,9 C -3,2 C 0,0 km/h (0 Bft)
16.01.2021 00:33 -3,3 C -3,3 C 88 % 1031,9 hPa 0,0 l/m 0,0 km/h (0 Bft) N 0 0 min 0,0 UV-I 0 W/m -5,0 C -3,3 C 0,0 km/h (0 Bft)
16.01.2021 00:34 -3,3 C -3,3 C 88 % 1032,0 hPa 0,0 l/m 0,0 km/h (0 Bft) N-NW 337 0 min 0,0 UV-I 0 W/m -5,0 C -3,3 C 1,6 km/h (1 Bft)
16.01.2021 00:35 -3,2 C -3,3 C 88 % 1031,9 hPa 0,0 l/m 1,6 km/h (1 Bft) N-NW 337 0 min 0,0 UV-I 0 W/m -4,9 C -3,2 C 1,6 km/h (1 Bft)
16.01.2021 00:36 -3,3 C -3,3 C 89 % 1031,9 hPa 0,0 l/m 1,6 km/h (1 Bft) N-NW 337 0 min 0,0 UV-I 0 W/m -4,8 C -3,3 C 1,6 km/h (1 Bft)
16.01.2021 00:37 -3,3 C -3,3 C 89 % 1031,9 hPa 0,0 l/m 0,0 km/h (0 Bft) N-NW 337 0 min 0,0 UV-I 0 W/m -4,8 C -3,3 C 1,6 km/h (1 Bft)
16.01.2021 00:38 -3,3 C -3,3 C 89 % 1031,9 hPa 0,0 l/m 0,0 km/h (0 Bft) N 0 0 min 0,0 UV-I 0 W/m -4,8 C -3,3 C 0,0 km/h (0 Bft)
16.01.2021 00:39 -3,3 C -3,3 C 89 % 1031,9 hPa 0,0 l/m 0,0 km/h (0 Bft) N 0 0 min 0,0 UV-I 0 W/m -4,8 C -3,3 C 0,0 km/h (0 Bft)
16.01.2021 00:40 -3,3 C -3,3 C 89 % 1031,9 hPa 0,0 l/m 0,0 km/h (0 Bft) N 0 0 min 0,0 UV-I 0 W/m -4,8 C -3,3 C 0,0 km/h (0 Bft)
16.01.2021 00:41 -3,3 C -3,3 C 89 % 1031,8 hPa 0,0 l/m 0,0 km/h (0 Bft) N 0 0 min 0,0 UV-I 0 W/m -4,8 C -3,3 C 0,0 km/h (0 Bft)
16.01.2021 00:42 -3,3 C -3,3 C 89 % 1031,9 hPa 0,0 l/m 0,0 km/h (0 Bft) N-NW 337 0 min 0,0 UV-I 0 W/m -4,8 C -3,3 C 1,6 km/h (1 Bft)
16.01.2021 00:43 -3,3 C -3,3 C 89 % 1031,9 hPa 0,0 l/m 1,6 km/h (1 Bft) N-NW 337 0 min 0,0 UV-I 0 W/m -4,8 C -3,3 C 3,2 km/h (1 Bft)
16.01.2021 00:44 -3,3 C -3,3 C 89 % 1031,9 hPa 0,0 l/m 1,6 km/h (1 Bft) N-NW 337 0 min 0,0 UV-I 0 W/m -4,8 C -3,3 C 1,6 km/h (1 Bft)
16.01.2021 00:45 -3,3 C -3,3 C 89 % 1031,9 hPa 0,0 l/m 1,6 km/h (1 Bft) N-NW 337 0 min 0,0 UV-I 0 W/m -4,8 C -3,3 C 3,2 km/h (1 Bft)
16.01.2021 00:46 -3,3 C -3,3 C 89 % 1031,8 hPa 0,0 l/m 1,6 km/h (1 Bft) N-NW 337 0 min 0,0 UV-I 0 W/m -4,8 C -3,3 C 1,6 km/h (1 Bft)
16.01.2021 00:47 -3,3 C -3,3 C 89 % 1031,8 hPa 0,0 l/m 0,0 km/h (0 Bft) N-NW 337 0 min 0,0 UV-I 0 W/m -4,8 C -3,3 C 3,2 km/h (1 Bft)
16.01.2021 00:48 -3,3 C -3,3 C 89 % 1031,8 hPa 0,0 l/m 0,0 km/h (0 Bft) N-NW 337 0 min 0,0 UV-I 0 W/m -4,8 C -3,3 C 1,6 km/h (1 Bft)
16.01.2021 00:49 -3,3 C -3,3 C 89 % 1031,7 hPa 0,0 l/m 1,6 km/h (1 Bft) N-NW 337 0 min 0,0 UV-I 0 W/m -4,8 C -3,3 C 1,6 km/h (1 Bft)
16.01.2021 00:50 -3,3 C -3,3 C 89 % 1031,8 hPa 0,0 l/m 1,6 km/h (1 Bft) N-NW 337 0 min 0,0 UV-I 0 W/m -4,8 C -3,3 C 3,2 km/h (1 Bft)
16.01.2021 00:51 -3,3 C -3,3 C 89 % 1031,8 hPa 0,0 l/m 0,0 km/h (0 Bft) N-NW 337 0 min 0,0 UV-I 0 W/m -4,8 C -3,3 C 1,6 km/h (1 Bft)
16.01.2021 00:52 -3,3 C -3,3 C 89 % 1031,8 hPa 0,0 l/m 0,0 km/h (0 Bft) N-NW 337 0 min 0,0 UV-I 0 W/m -4,8 C -3,3 C 1,6 km/h (1 Bft)
16.01.2021 00:53 -3,3 C -3,3 C 89 % 1031,7 hPa 0,0 l/m 0,0 km/h (0 Bft) N-NW 337 0 min 0,0 UV-I 0 W/m -4,8 C -3,3 C 1,6 km/h (1 Bft)
16.01.2021 00:54 -3,3 C -3,3 C 89 % 1031,7 hPa 0,0 l/m 0,0 km/h (0 Bft) N-NW 337 0 min 0,0 UV-I 0 W/m -4,8 C -3,3 C 1,6 km/h (1 Bft)
16.01.2021 00:55 -3,3 C -3,3 C 89 % 1031,7 hPa 0,0 l/m 0,0 km/h (0 Bft) N-NW 337 0 min 0,0 UV-I 0 W/m -4,8 C -3,3 C 1,6 km/h (1 Bft)
16.01.2021 00:56 -3,3 C -3,3 C 89 % 1031,7 hPa 0,0 l/m 0,0 km/h (0 Bft) N-NW 337 0 min 0,0 UV-I 0 W/m -4,8 C -3,3 C 1,6 km/h (1 Bft)
16.01.2021 00:57 -3,3 C -3,3 C 89 % 1031,7 hPa 0,0 l/m 0,0 km/h (0 Bft) N-NW 337 0 min 0,0 UV-I 0 W/m -4,8 C -3,3 C 1,6 km/h (1 Bft)
16.01.2021 00:58 -3,3 C -3,3 C 89 % 1031,7 hPa 0,0 l/m 0,0 km/h (0 Bft) N-NW 337 0 min 0,0 UV-I 0 W/m -4,8 C -3,3 C 1,6 km/h (1 Bft)
16.01.2021 00:59 -3,3 C -2,8 C 89 % 1031,6 hPa 0,0 l/m 1,6 km/h (1 Bft) N-NW 337 0 min 0,0 UV-I 0 W/m -4,8 C -3,3 C 3,2 km/h (1 Bft)
16.01.2021 01:00 -3,3 C -2,8 C 89 % 1031,7 hPa 0,0 l/m 1,6 km/h (1 Bft) N-NW 337 0 min 0,0 UV-I 0 W/m -4,8 C -3,3 C 4,8 km/h (1 Bft)
16.01.2021 01:01 -3,3 C -2,8 C 89 % 1031,7 hPa 0,0 l/m 4,8 km/h (1 Bft) N-NW 337 0 min 0,0 UV-I 0 W/m -4,8 C -3,3 C 4,8 km/h (1 Bft)
16.01.2021 01:02 -3,3 C -3,3 C 89 % 1031,6 hPa 0,0 l/m 3,2 km/h (1 Bft) N-NW 337 0 min 0,0 UV-I 0 W/m -4,8 C -3,3 C 4,8 km/h (1 Bft)
16.01.2021 01:03 -3,3 C -2,8 C 89 % 1031,7 hPa 0,0 l/m 1,6 km/h (1 Bft) N-NW 337 0 min 0,0 UV-I 0 W/m -4,8 C -3,3 C 3,2 km/h (1 Bft)
16.01.2021 01:04 -3,3 C -3,3 C 89 % 1031,7 hPa 0,0 l/m 1,6 km/h (1 Bft) N-NW 337 0 min 0,0 UV-I 0 W/m -4,8 C -3,3 C 3,2 km/h (1 Bft)
16.01.2021 01:05 -3,3 C -3,3 C 89 % 1031,7 hPa 0,0 l/m 0,0 km/h (0 Bft) N-NW 337 0 min 0,0 UV-I 0 W/m -4,8 C -3,3 C 1,6 km/h (1 Bft)
16.01.2021 01:06 -3,3 C -3,3 C 89 % 1031,7 hPa 0,0 l/m 1,6 km/h (1 Bft) N-NW 337 0 min 0,0 UV-I 0 W/m -4,8 C -3,3 C 3,2 km/h (1 Bft)
16.01.2021 01:07 -3,3 C -3,3 C 89 % 1031,8 hPa 0,0 l/m 3,2 km/h (1 Bft) N-NW 337 0 min 0,0 UV-I 0 W/m -4,8 C -3,3 C 6,4 km/h (2 Bft)
16.01.2021 01:08 -3,3 C -3,3 C 89 % 1031,8 hPa 0,0 l/m 1,6 km/h (1 Bft) N-NW 337 0 min 0,0 UV-I 0 W/m -4,8 C -3,3 C 3,2 km/h (1 Bft)
16.01.2021 01:09 -3,3 C -3,3 C 89 % 1031,8 hPa 0,0 l/m 1,6 km/h (1 Bft) N-NW 337 0 min 0,0 UV-I 0 W/m -4,8 C -3,3 C 6,4 km/h (2 Bft)
16.01.2021 01:10 -3,3 C -3,3 C 89 % 1031,8 hPa 0,0 l/m 1,6 km/h (1 Bft) N-NW 337 0 min 0,0 UV-I 0 W/m -4,8 C -3,3 C 3,2 km/h (1 Bft)
16.01.2021 01:11 -3,3 C -3,3 C 89 % 1031,8 hPa 0,0 l/m 1,6 km/h (1 Bft) N-NW 337 0 min 0,0 UV-I 0 W/m -4,8 C -3,3 C 3,2 km/h (1 Bft)
16.01.2021 01:12 -3,3 C -3,3 C 89 % 1031,8 hPa 0,0 l/m 0,0 km/h (0 Bft) N-NW 337 0 min 0,0 UV-I 0 W/m -4,8 C -3,3 C 1,6 km/h (1 Bft)
16.01.2021 01:13 -3,3 C -3,3 C 89 % 1031,8 hPa 0,0 l/m 1,6 km/h (1 Bft) N-NW 337 0 min 0,0 UV-I 0 W/m -4,8 C -3,3 C 3,2 km/h (1 Bft)
16.01.2021 01:14 -3,3 C -3,3 C 89 % 1031,7 hPa 0,0 l/m 1,6 km/h (1 Bft) N-NW 337 0 min 0,0 UV-I 0 W/m -4,8 C -3,3 C 3,2 km/h (1 Bft)
16.01.2021 01:15 -3,3 C -3,3 C 89 % 1031,7 hPa 0,0 l/m 1,6 km/h (1 Bft) N-NW 337 0 min 0,0 UV-I 0 W/m -4,8 C -3,3 C 3,2 km/h (1 Bft)
16.01.2021 01:16 -3,3 C -3,3 C 90 % 1031,7 hPa 0,0 l/m 1,6 km/h (1 Bft) N-NW 337 0 min 0,0 UV-I 0 W/m -4,7 C -3,3 C 3,2 km/h (1 Bft)
16.01.2021 01:17 -3,3 C -3,3 C 90 % 1031,7 hPa 0,0 l/m 1,6 km/h (1 Bft) N-NW 337 0 min 0,0 UV-I 0 W/m -4,7 C -3,3 C 1,6 km/h (1 Bft)
16.01.2021 01:18 -3,3 C -3,3 C 89 % 1031,7 hPa 0,0 l/m 0,0 km/h (0 Bft) N-NW 337 0 min 0,0 UV-I 0 W/m -4,8 C -3,3 C 1,6 km/h (1 Bft)
16.01.2021 01:19 -3,3 C -3,3 C 90 % 1031,8 hPa 0,0 l/m 0,0 km/h (0 Bft) N-NW 337 0 min 0,0 UV-I 0 W/m -4,7 C -3,3 C 1,6 km/h (1 Bft)
16.01.2021 01:20 -3,4 C -3,3 C 90 % 1032,0 hPa 0,0 l/m 1,6 km/h (1 Bft) N-NW 337 0 min 0,0 UV-I 0 W/m -4,8 C -3,4 C 3,2 km/h (1 Bft)
16.01.2021 01:21 -3,3 C -3,3 C 90 % 1031,8 hPa 0,0 l/m 0,0 km/h (0 Bft) N-NW 337 0 min 0,0 UV-I 0 W/m -4,7 C -3,3 C 1,6 km/h (1 Bft)
16.01.2021 01:22 -3,3 C -3,3 C 90 % 1031,8 hPa 0,0 l/m 1,6 km/h (1 Bft) N-NW 337 0 min 0,0 UV-I 0 W/m -4,7 C -3,3 C 3,2 km/h (1 Bft)
16.01.2021 01:23 -3,3 C -3,3 C 90 % 1031,8 hPa 0,0 l/m 1,6 km/h (1 Bft) N-NW 337 0 min 0,0 UV-I 0 W/m -4,7 C -3,3 C 3,2 km/h (1 Bft)
16.01.2021 01:24 -3,3 C -3,3 C 90 % 1031,8 hPa 0,0 l/m 3,2 km/h (1 Bft) N-NW 337 0 min 0,0 UV-I 0 W/m -4,7 C -3,3 C 3,2 km/h (1 Bft)
16.01.2021 01:25 -3,3 C -3,3 C 90 % 1031,8 hPa 0,0 l/m 0,0 km/h (0 Bft) N-NW 337 0 min 0,0 UV-I 0 W/m -4,7 C -3,3 C 1,6 km/h (1 Bft)
16.01.2021 01:26 -3,4 C -3,3 C 90 % 1031,7 hPa 0,0 l/m 0,0 km/h (0 Bft) N 0 0 min 0,0 UV-I 0 W/m -4,8 C -3,4 C 0,0 km/h (0 Bft)
16.01.2021 01:27 -3,3 C -3,3 C 90 % 1031,8 hPa 0,0 l/m 0,0 km/h (0 Bft) N 0 0 min 0,0 UV-I 0 W/m -4,7 C -3,3 C 0,0 km/h (0 Bft)
16.01.2021 01:28 -3,4 C -3,3 C 90 % 1031,7 hPa 0,0 l/m 0,0 km/h (0 Bft) N 0 0 min 0,0 UV-I 0 W/m -4,8 C -3,4 C 0,0 km/h (0 Bft)
16.01.2021 01:29 -3,3 C -3,3 C 90 % 1031,8 hPa 0,0 l/m 0,0 km/h (0 Bft) N 0 0 min 0,0 UV-I 0 W/m -4,7 C -3,3 C 0,0 km/h (0 Bft)
16.01.2021 01:30 -3,4 C -3,3 C 90 % 1031,8 hPa 0,0 l/m 0,0 km/h (0 Bft) N-NW 337 0 min 0,0 UV-I 0 W/m -4,8 C -3,4 C 1,6 km/h (1 Bft)
16.01.2021 01:31 -3,4 C -3,3 C 90 % 1031,7 hPa 0,0 l/m 0,0 km/h (0 Bft) N-NW 337 0 min 0,0 UV-I 0 W/m -4,8 C -3,4 C 1,6 km/h (1 Bft)
16.01.2021 01:32 -3,3 C -3,3 C 90 % 1031,8 hPa 0,0 l/m 0,0 km/h (0 Bft) N-NW 337 0 min 0,0 UV-I 0 W/m -4,7 C -3,3 C 1,6 km/h (1 Bft)
16.01.2021 01:33 -3,3 C -3,3 C 90 % 1031,7 hPa 0,0 l/m 1,6 km/h (1 Bft) N-NW 337 0 min 0,0 UV-I 0 W/m -4,7 C -3,3 C 1,6 km/h (1 Bft)
16.01.2021 01:34 -3,4 C -3,3 C 90 % 1031,7 hPa 0,0 l/m 1,6 km/h (1 Bft) N-NW 337 0 min 0,0 UV-I 0 W/m -4,8 C -3,4 C 3,2 km/h (1 Bft)
16.01.2021 01:35 -3,4 C -3,3 C 90 % 1031,7 hPa 0,0 l/m 1,6 km/h (1 Bft) N-NW 337 0 min 0,0 UV-I 0 W/m -4,8 C -3,4 C 3,2 km/h (1 Bft)
16.01.2021 01:36 -3,4 C -3,3 C 90 % 1031,7 hPa 0,0 l/m 0,0 km/h (0 Bft) N-NW 337 0 min 0,0 UV-I 0 W/m -4,8 C -3,4 C 1,6 km/h (1 Bft)
16.01.2021 01:37 -3,3 C -3,3 C 90 % 1031,6 hPa 0,0 l/m 0,0 km/h (0 Bft) N-NW 337 0 min 0,0 UV-I 0 W/m -4,7 C -3,3 C 1,6 km/h (1 Bft)
16.01.2021 01:38 -3,4 C -3,3 C 90 % 1031,6 hPa 0,0 l/m 0,0 km/h (0 Bft) N-NW 337 0 min 0,0 UV-I 0 W/m -4,8 C -3,4 C 1,6 km/h (1 Bft)
16.01.2021 01:39 -3,4 C -3,3 C 90 % 1031,5 hPa 0,0 l/m 0,0 km/h (0 Bft) N-NW 337 0 min 0,0 UV-I 0 W/m -4,8 C -3,4 C 1,6 km/h (1 Bft)
16.01.2021 01:40 -3,4 C -3,3 C 90 % 1031,6 hPa 0,0 l/m 0,0 km/h (0 Bft) N-NW 337 0 min 0,0 UV-I 0 W/m -4,8 C -3,4 C 1,6 km/h (1 Bft)
16.01.2021 01:41 -3,4 C -3,3 C 90 % 1031,6 hPa 0,0 l/m 0,0 km/h (0 Bft) N 0 0 min 0,0 UV-I 0 W/m -4,8 C -3,4 C 0,0 km/h (0 Bft)
16.01.2021 01:42 -3,4 C -3,3 C 90 % 1031,6 hPa 0,0 l/m 0,0 km/h (0 Bft) N-NW 337 0 min 0,0 UV-I 0 W/m -4,8 C -3,4 C 1,6 km/h (1 Bft)
16.01.2021 01:43 -3,4 C -3,3 C 90 % 1031,7 hPa 0,0 l/m 1,6 km/h (1 Bft) N-NW 337 0 min 0,0 UV-I 0 W/m -4,8 C -3,4 C 1,6 km/h (1 Bft)
16.01.2021 01:44 -3,4 C -3,3 C 90 % 1031,6 hPa 0,0 l/m 1,6 km/h (1 Bft) N-NW 337 0 min 0,0 UV-I 0 W/m -4,8 C -3,4 C 3,2 km/h (1 Bft)
16.01.2021 01:45 -3,4 C -3,3 C 90 % 1031,5 hPa 0,0 l/m 1,6 km/h (1 Bft) N-NW 337 0 min 0,0 UV-I 0 W/m -4,8 C -3,4 C 3,2 km/h (1 Bft)
16.01.2021 01:46 -3,4 C -3,3 C 90 % 1031,5 hPa 0,0 l/m 1,6 km/h (1 Bft) N-NW 337 0 min 0,0 UV-I 0 W/m -4,8 C -3,4 C 1,6 km/h (1 Bft)
16.01.2021 01:47 -3,4 C -3,3 C 90 % 1031,5 hPa 0,0 l/m 1,6 km/h (1 Bft) N-NW 337 0 min 0,0 UV-I 0 W/m -4,8 C -3,4 C 3,2 km/h (1 Bft)
16.01.2021 01:48 -3,4 C -3,3 C 90 % 1031,5 hPa 0,0 l/m 1,6 km/h (1 Bft) N-NW 337 0 min 0,0 UV-I 0 W/m -4,8 C -3,4 C 1,6 km/h (1 Bft)
16.01.2021 01:49 -3,4 C -3,3 C 90 % 1031,5 hPa 0,0 l/m 1,6 km/h (1 Bft) N-NW 337 0 min 0,0 UV-I 0 W/m -4,8 C -3,4 C 1,6 km/h (1 Bft)
16.01.2021 01:50 -3,4 C -3,3 C 90 % 1031,5 hPa 0,0 l/m 1,6 km/h (1 Bft) N-NW 337 0 min 0,0 UV-I 0 W/m -4,8 C -3,4 C 1,6 km/h (1 Bft)
16.01.2021 01:51 -3,4 C -3,3 C 90 % 1031,5 hPa 0,0 l/m 1,6 km/h (1 Bft) N-NW 337 0 min 0,0 UV-I 0 W/m -4,8 C -3,4 C 1,6 km/h (1 Bft)
16.01.2021 01:52 -3,4 C -3,3 C 90 % 1031,5 hPa 0,0 l/m 1,6 km/h (1 Bft) N-NW 337 0 min 0,0 UV-I 0 W/m -4,8 C -3,4 C 1,6 km/h (1 Bft)
16.01.2021 01:53 -3,4 C -3,3 C 90 % 1031,6 hPa 0,0 l/m 0,0 km/h (0 Bft) N 0 0 min 0,0 UV-I 0 W/m -4,8 C -3,4 C 0,0 km/h (0 Bft)
16.01.2021 01:54 -3,4 C -3,3 C 90 % 1031,6 hPa 0,0 l/m 0,0 km/h (0 Bft) N 0 0 min 0,0 UV-I 0 W/m -4,8 C -3,4 C 0,0 km/h (0 Bft)
16.01.2021 01:55 -3,4 C -3,3 C 90 % 1031,5 hPa 0,0 l/m 0,0 km/h (0 Bft) N 0 0 min 0,0 UV-I 0 W/m -4,8 C -3,4 C 0,0 km/h (0 Bft)
16.01.2021 01:56 -3,4 C -3,3 C 90 % 1031,5 hPa 0,0 l/m 0,0 km/h (0 Bft) N 0 0 min 0,0 UV-I 0 W/m -4,8 C -3,4 C 0,0 km/h (0 Bft)
16.01.2021 01:57 -3,4 C -3,3 C 90 % 1031,5 hPa 0,0 l/m 0,0 km/h (0 Bft) N 0 0 min 0,0 UV-I 0 W/m -4,8 C -3,4 C 0,0 km/h (0 Bft)
16.01.2021 01:58 -3,4 C -3,3 C 90 % 1031,6 hPa 0,0 l/m 0,0 km/h (0 Bft) N-NW 337 0 min 0,0 UV-I 0 W/m -4,8 C -3,4 C 1,6 km/h (1 Bft)
16.01.2021 01:59 -3,4 C -3,3 C 90 % 1031,6 hPa 0,0 l/m 1,6 km/h (1 Bft) N-NW 337 0 min 0,0 UV-I 0 W/m -4,8 C -3,4 C 1,6 km/h (1 Bft)
16.01.2021 02:00 -3,4 C -3,3 C 90 % 1031,6 hPa 0,0 l/m 1,6 km/h (1 Bft) N-NW 337 0 min 0,0 UV-I 0 W/m -4,8 C -3,4 C 1,6 km/h (1 Bft)
16.01.2021 02:01 -3,4 C -3,3 C 90 % 1031,6 hPa 0,0 l/m 1,6 km/h (1 Bft) N-NW 337 0 min 0,0 UV-I 0 W/m -4,8 C -3,4 C 3,2 km/h (1 Bft)
16.01.2021 02:02 -3,4 C -3,3 C 90 % 1031,5 hPa 0,0 l/m 1,6 km/h (1 Bft) N-NW 337 0 min 0,0 UV-I 0 W/m -4,8 C -3,4 C 3,2 km/h (1 Bft)
16.01.2021 02:03 -3,4 C -3,3 C 90 % 1031,5 hPa 0,0 l/m 1,6 km/h (1 Bft) N-NW 337 0 min 0,0 UV-I 0 W/m -4,8 C -3,4 C 3,2 km/h (1 Bft)
16.01.2021 02:04 -3,4 C -3,3 C 90 % 1031,6 hPa 0,0 l/m 1,6 km/h (1 Bft) N-NW 337 0 min 0,0 UV-I 0 W/m -4,8 C -3,4 C 3,2 km/h (1 Bft)
16.01.2021 02:05 -3,4 C -3,3 C 90 % 1031,6 hPa 0,0 l/m 1,6 km/h (1 Bft) N-NW 337 0 min 0,0 UV-I 0 W/m -4,8 C -3,4 C 1,6 km/h (1 Bft)
16.01.2021 02:06 -3,4 C -3,3 C 90 % 1031,5 hPa 0,0 l/m 1,6 km/h (1 Bft) N-NW 337 0 min 0,0 UV-I 0 W/m -4,8 C -3,4 C 3,2 km/h (1 Bft)
16.01.2021 02:07 -3,4 C -3,9 C 90 % 1031,5 hPa 0,0 l/m 3,2 km/h (1 Bft) N-NW 337 0 min 0,0 UV-I 0 W/m -4,8 C -3,4 C 3,2 km/h (1 Bft)
16.01.2021 02:08 -3,4 C -3,9 C 90 % 1031,5 hPa 0,0 l/m 1,6 km/h (1 Bft) N-NW 337 0 min 0,0 UV-I 0 W/m -4,8 C -3,4 C 3,2 km/h (1 Bft)
16.01.2021 02:09 -3,4 C -3,3 C 90 % 1031,5 hPa 0,0 l/m 1,6 km/h (1 Bft) N-NW 337 0 min 0,0 UV-I 0 W/m -4,8 C -3,4 C 1,6 km/h (1 Bft)
16.01.2021 02:10 -3,4 C -3,3 C 90 % 1031,5 hPa 0,0 l/m 0,0 km/h (0 Bft) N-NW 337 0 min 0,0 UV-I 0 W/m -4,8 C -3,4 C 1,6 km/h (1 Bft)
16.01.2021 02:11 -3,4 C -3,3 C 90 % 1031,5 hPa 0,0 l/m 0,0 km/h (0 Bft) N-NW 337 0 min 0,0 UV-I 0 W/m -4,8 C -3,4 C 1,6 km/h (1 Bft)
16.01.2021 02:12 -3,4 C -3,3 C 90 % 1031,5 hPa 0,0 l/m 1,6 km/h (1 Bft) N-NW 337 0 min 0,0 UV-I 0 W/m -4,8 C -3,4 C 3,2 km/h (1 Bft)
16.01.2021 02:13 -3,5 C -3,3 C 90 % 1031,5 hPa 0,0 l/m 0,0 km/h (0 Bft) N-NW 337 0 min 0,0 UV-I 0 W/m -4,9 C -3,5 C 1,6 km/h (1 Bft)
16.01.2021 02:14 -3,4 C -3,3 C 90 % 1031,4 hPa 0,0 l/m 0,0 km/h (0 Bft) N-NW 337 0 min 0,0 UV-I 0 W/m -4,8 C -3,4 C 1,6 km/h (1 Bft)
16.01.2021 02:15 -3,5 C -3,3 C 90 % 1031,5 hPa 0,0 l/m 1,6 km/h (1 Bft) N-NW 337 0 min 0,0 UV-I 0 W/m -4,9 C -3,5 C 3,2 km/h (1 Bft)
16.01.2021 02:16 -3,5 C -3,3 C 90 % 1031,5 hPa 0,0 l/m 3,2 km/h (1 Bft) N-NW 337 0 min 0,0 UV-I 0 W/m -4,9 C -3,5 C 3,2 km/h (1 Bft)
16.01.2021 02:17 -3,5 C -3,3 C 90 % 1031,4 hPa 0,0 l/m 1,6 km/h (1 Bft) N-NW 337 0 min 0,0 UV-I 0 W/m -4,9 C -3,5 C 3,2 km/h (1 Bft)
16.01.2021 02:18 -3,4 C -3,3 C 90 % 1031,4 hPa 0,0 l/m 3,2 km/h (1 Bft) N-NW 337 0 min 0,0 UV-I 0 W/m -4,8 C -3,4 C 3,2 km/h (1 Bft)
16.01.2021 02:19 -3,5 C -3,9 C 90 % 1031,4 hPa 0,0 l/m 3,2 km/h (1 Bft) N-NW 337 0 min 0,0 UV-I 0 W/m -4,9 C -3,5 C 3,2 km/h (1 Bft)
16.01.2021 02:20 -3,4 C -3,3 C 90 % 1031,4 hPa 0,0 l/m 3,2 km/h (1 Bft) N-NW 337 0 min 0,0 UV-I 0 W/m -4,8 C -3,4 C 3,2 km/h (1 Bft)
16.01.2021 02:21 -3,5 C -3,9 C 91 % 1031,3 hPa 0,0 l/m 1,6 km/h (1 Bft) N-NW 337 0 min 0,0 UV-I 0 W/m -4,8 C -3,5 C 3,2 km/h (1 Bft)
16.01.2021 02:22 -3,4 C -3,3 C 91 % 1031,4 hPa 0,0 l/m 0,0 km/h (0 Bft) N 0 0 min 0,0 UV-I 0 W/m -4,7 C -3,4 C 0,0 km/h (0 Bft)
16.01.2021 02:23 -3,5 C -3,9 C 91 % 1031,4 hPa 0,0 l/m 0,0 km/h (0 Bft) N-NW 337 0 min 0,0 UV-I 0 W/m -4,8 C -3,5 C 1,6 km/h (1 Bft)
16.01.2021 02:24 -3,5 C -3,3 C 90 % 1031,3 hPa 0,0 l/m 0,0 km/h (0 Bft) N 0 0 min 0,0 UV-I 0 W/m -4,9 C -3,5 C 0,0 km/h (0 Bft)
16.01.2021 02:25 -3,5 C -3,3 C 91 % 1031,4 hPa 0,0 l/m 0,0 km/h (0 Bft) N 0 0 min 0,0 UV-I 0 W/m -4,8 C -3,5 C 0,0 km/h (0 Bft)
16.01.2021 02:26 -3,5 C -3,3 C 91 % 1031,4 hPa 0,0 l/m 0,0 km/h (0 Bft) N 0 0 min 0,0 UV-I 0 W/m -4,8 C -3,5 C 0,0 km/h (0 Bft)
16.01.2021 02:27 -3,6 C -3,3 C 90 % 1031,4 hPa 0,0 l/m 0,0 km/h (0 Bft) N 0 0 min 0,0 UV-I 0 W/m -5,0 C -3,6 C 0,0 km/h (0 Bft)
16.01.2021 02:28 -3,5 C -3,3 C 91 % 1031,4 hPa 0,0 l/m 0,0 km/h (0 Bft) N 0 0 min 0,0 UV-I 0 W/m -4,8 C -3,5 C 0,0 km/h (0 Bft)
16.01.2021 02:29 -3,6 C -3,3 C 91 % 1031,4 hPa 0,0 l/m 0,0 km/h (0 Bft) N 0 0 min 0,0 UV-I 0 W/m -4,8 C -3,6 C 0,0 km/h (0 Bft)
16.01.2021 02:30 -3,5 C -3,3 C 90 % 1031,4 hPa 0,0 l/m 0,0 km/h (0 Bft) N 0 0 min 0,0 UV-I 0 W/m -4,9 C -3,5 C 0,0 km/h (0 Bft)
16.01.2021 02:31 -3,5 C -3,3 C 90 % 1031,4 hPa 0,0 l/m 0,0 km/h (0 Bft) N 0 0 min 0,0 UV-I 0 W/m -4,9 C -3,5 C 0,0 km/h (0 Bft)
16.01.2021 02:32 -3,6 C -3,3 C 91 % 1031,4 hPa 0,0 l/m 0,0 km/h (0 Bft) N-NW 337 0 min 0,0 UV-I 0 W/m -4,8 C -3,6 C 1,6 km/h (1 Bft)
16.01.2021 02:33 -3,5 C -3,3 C 91 % 1031,3 hPa 0,0 l/m 0,0 km/h (0 Bft) N-NW 337 0 min 0,0 UV-I 0 W/m -4,8 C -3,5 C 1,6 km/h (1 Bft)
16.01.2021 02:34 -3,6 C -3,3 C 90 % 1031,3 hPa 0,0 l/m 0,0 km/h (0 Bft) N 0 0 min 0,0 UV-I 0 W/m -5,0 C -3,6 C 0,0 km/h (0 Bft)
16.01.2021 02:35 -3,6 C -3,3 C 91 % 1031,3 hPa 0,0 l/m 0,0 km/h (0 Bft) N 0 0 min 0,0 UV-I 0 W/m -4,8 C -3,6 C 0,0 km/h (0 Bft)
16.01.2021 02:36 -3,6 C -3,3 C 91 % 1031,3 hPa 0,0 l/m 0,0 km/h (0 Bft) N 0 0 min 0,0 UV-I 0 W/m -4,8 C -3,6 C 0,0 km/h (0 Bft)
16.01.2021 02:37 -3,6 C -3,3 C 90 % 1031,3 hPa 0,0 l/m 0,0 km/h (0 Bft) N 0 0 min 0,0 UV-I 0 W/m -5,0 C -3,6 C 0,0 km/h (0 Bft)
16.01.2021 02:38 -3,6 C -3,3 C 90 % 1031,2 hPa 0,0 l/m 0,0 km/h (0 Bft) N 0 0 min 0,0 UV-I 0 W/m -5,0 C -3,6 C 0,0 km/h (0 Bft)
16.01.2021 02:39 -3,5 C -3,3 C 90 % 1031,2 hPa 0,0 l/m 0,0 km/h (0 Bft) N 0 0 min 0,0 UV-I 0 W/m -4,9 C -3,5 C 0,0 km/h (0 Bft)
16.01.2021 02:40 -3,6 C -3,3 C 90 % 1031,3 hPa 0,0 l/m 1,6 km/h (1 Bft) N-NW 337 0 min 0,0 UV-I 0 W/m -5,0 C -3,6 C 4,8 km/h (1 Bft)
16.01.2021 02:41 -3,6 C -3,3 C 90 % 1031,3 hPa 0,0 l/m 3,2 km/h (1 Bft) N-NW 337 0 min 0,0 UV-I 0 W/m -5,0 C -3,6 C 4,8 km/h (1 Bft)
16.01.2021 02:42 -3,5 C -3,3 C 90 % 1031,3 hPa 0,0 l/m 3,2 km/h (1 Bft) N-NW 337 0 min 0,0 UV-I 0 W/m -4,9 C -3,5 C 4,8 km/h (1 Bft)
16.01.2021 02:43 -3,6 C -3,3 C 91 % 1031,3 hPa 0,0 l/m 3,2 km/h (1 Bft) N-NW 337 0 min 0,0 UV-I 0 W/m -4,8 C -3,6 C 3,2 km/h (1 Bft)
16.01.2021 02:44 -3,6 C -3,3 C 91 % 1031,4 hPa 0,0 l/m 1,6 km/h (1 Bft) N-NW 337 0 min 0,0 UV-I 0 W/m -4,8 C -3,6 C 3,2 km/h (1 Bft)
16.01.2021 02:45 -3,6 C -3,3 C 91 % 1031,4 hPa 0,0 l/m 3,2 km/h (1 Bft) N-NW 337 0 min 0,0 UV-I 0 W/m -4,8 C -3,6 C 4,8 km/h (1 Bft)
16.01.2021 02:46 -3,6 C -3,3 C 91 % 1031,4 hPa 0,0 l/m 1,6 km/h (1 Bft) N-NW 337 0 min 0,0 UV-I 0 W/m -4,8 C -3,6 C 3,2 km/h (1 Bft)
16.01.2021 02:47 -3,6 C -3,3 C 91 % 1031,3 hPa 0,0 l/m 1,6 km/h (1 Bft) N-NW 337 0 min 0,0 UV-I 0 W/m -4,8 C -3,6 C 3,2 km/h (1 Bft)
16.01.2021 02:48 -3,6 C -3,3 C 91 % 1031,4 hPa 0,0 l/m 0,0 km/h (0 Bft) N-NW 337 0 min 0,0 UV-I 0 W/m -4,8 C -3,6 C 1,6 km/h (1 Bft)
16.01.2021 02:49 -3,6 C -3,3 C 91 % 1031,3 hPa 0,0 l/m 1,6 km/h (1 Bft) N-NW 337 0 min 0,0 UV-I 0 W/m -4,8 C -3,6 C 1,6 km/h (1 Bft)
16.01.2021 02:50 -3,6 C -3,3 C 91 % 1031,3 hPa 0,0 l/m 1,6 km/h (1 Bft) N-NW 337 0 min 0,0 UV-I 0 W/m -4,8 C -3,6 C 3,2 km/h (1 Bft)
16.01.2021 02:51 -3,6 C -3,3 C 91 % 1031,3 hPa 0,0 l/m 1,6 km/h (1 Bft) N-NW 337 0 min 0,0 UV-I 0 W/m -4,8 C -3,6 C 3,2 km/h (1 Bft)
16.01.2021 02:52 -3,6 C -3,3 C 91 % 1031,3 hPa 0,0 l/m 3,2 km/h (1 Bft) N-NW 337 0 min 0,0 UV-I 0 W/m -4,8 C -3,6 C 3,2 km/h (1 Bft)
16.01.2021 02:53 -3,6 C -3,3 C 91 % 1031,4 hPa 0,0 l/m 3,2 km/h (1 Bft) N-NW 337 0 min 0,0 UV-I 0 W/m -4,8 C -3,6 C 3,2 km/h (1 Bft)
16.01.2021 02:54 -3,6 C -3,3 C 91 % 1031,4 hPa 0,0 l/m 1,6 km/h (1 Bft) N-NW 337 0 min 0,0 UV-I 0 W/m -4,8 C -3,6 C 3,2 km/h (1 Bft)
16.01.2021 02:55 -3,6 C -3,3 C 91 % 1031,4 hPa 0,0 l/m 3,2 km/h (1 Bft) N-NW 337 0 min 0,0 UV-I 0 W/m -4,8 C -3,6 C 3,2 km/h (1 Bft)
16.01.2021 02:56 -3,6 C -3,3 C 91 % 1031,4 hPa 0,0 l/m 3,2 km/h (1 Bft) N-NW 337 0 min 0,0 UV-I 0 W/m -4,8 C -3,6 C 3,2 km/h (1 Bft)
16.01.2021 02:57 -3,6 C -3,3 C 91 % 1031,5 hPa 0,0 l/m 3,2 km/h (1 Bft) N-NW 337 0 min 0,0 UV-I 0 W/m -4,8 C -3,6 C 3,2 km/h (1 Bft)
16.01.2021 02:58 -3,6 C -3,3 C 91 % 1031,4 hPa 0,0 l/m 3,2 km/h (1 Bft) N-NW 337 0 min 0,0 UV-I 0 W/m -4,8 C -3,6 C 3,2 km/h (1 Bft)
16.01.2021 02:59 -3,6 C -3,3 C 91 % 1031,4 hPa 0,0 l/m 1,6 km/h (1 Bft) N-NW 337 0 min 0,0 UV-I 0 W/m -4,8 C -3,6 C 3,2 km/h (1 Bft)
16.01.2021 03:00 -3,6 C -3,3 C 91 % 1031,3 hPa 0,0 l/m 1,6 km/h (1 Bft) N-NW 337 0 min 0,0 UV-I 0 W/m -4,8 C -3,6 C 3,2 km/h (1 Bft)
16.01.2021 03:01 -3,6 C -3,3 C 91 % 1031,4 hPa 0,0 l/m 1,6 km/h (1 Bft) N-NW 337 0 min 0,0 UV-I 0 W/m -4,8 C -3,6 C 3,2 km/h (1 Bft)
16.01.2021 03:02 -3,6 C -3,3 C 91 % 1031,4 hPa 0,0 l/m 1,6 km/h (1 Bft) N-NW 337 0 min 0,0 UV-I 0 W/m -4,8 C -3,6 C 3,2 km/h (1 Bft)
16.01.2021 03:03 -3,6 C -3,3 C 91 % 1031,4 hPa 0,0 l/m 1,6 km/h (1 Bft) N-NW 337 0 min 0,0 UV-I 0 W/m -4,8 C -3,6 C 3,2 km/h (1 Bft)
16.01.2021 03:04 -3,6 C -3,3 C 91 % 1031,4 hPa 0,0 l/m 3,2 km/h (1 Bft) N-NW 337 0 min 0,0 UV-I 0 W/m -4,8 C -3,6 C 3,2 km/h (1 Bft)
16.01.2021 03:05 -3,6 C -3,9 C 91 % 1031,4 hPa 0,0 l/m 3,2 km/h (1 Bft) N-NW 337 0 min 0,0 UV-I 0 W/m -4,8 C -3,6 C 3,2 km/h (1 Bft)
16.01.2021 03:06 -3,6 C -3,9 C 91 % 1031,4 hPa 0,0 l/m 1,6 km/h (1 Bft) N-NW 337 0 min 0,0 UV-I 0 W/m -4,8 C -3,6 C 3,2 km/h (1 Bft)
16.01.2021 03:07 -3,6 C -3,9 C 91 % 1031,4 hPa 0,0 l/m 1,6 km/h (1 Bft) N-NW 337 0 min 0,0 UV-I 0 W/m -4,8 C -3,6 C 4,8 km/h (1 Bft)
16.01.2021 03:08 -3,6 C -3,9 C 91 % 1031,4 hPa 0,0 l/m 3,2 km/h (1 Bft) N-NW 337 0 min 0,0 UV-I 0 W/m -4,8 C -3,6 C 3,2 km/h (1 Bft)
16.01.2021 03:09 -3,6 C -3,9 C 91 % 1031,3 hPa 0,0 l/m 1,6 km/h (1 Bft) N-NW 337 0 min 0,0 UV-I 0 W/m -4,8 C -3,6 C 3,2 km/h (1 Bft)
16.01.2021 03:10 -3,6 C -3,9 C 91 % 1031,3 hPa 0,0 l/m 1,6 km/h (1 Bft) N-NW 337 0 min 0,0 UV-I 0 W/m -4,8 C -3,6 C 1,6 km/h (1 Bft)
16.01.2021 03:11 -3,6 C -3,9 C 91 % 1031,2 hPa 0,0 l/m 0,0 km/h (0 Bft) N-NW 337 0 min 0,0 UV-I 0 W/m -4,8 C -3,6 C 1,6 km/h (1 Bft)
16.01.2021 03:12 -3,6 C -3,9 C 91 % 1031,3 hPa 0,0 l/m 1,6 km/h (1 Bft) N-NW 337 0 min 0,0 UV-I 0 W/m -4,8 C -3,6 C 1,6 km/h (1 Bft)
16.01.2021 03:13 -3,6 C -3,9 C 91 % 1031,3 hPa 0,0 l/m 0,0 km/h (0 Bft) N-NW 337 0 min 0,0 UV-I 0 W/m -4,8 C -3,6 C 1,6 km/h (1 Bft)
16.01.2021 03:14 -3,6 C -3,9 C 91 % 1031,3 hPa 0,0 l/m 1,6 km/h (1 Bft) N-NW 337 0 min 0,0 UV-I 0 W/m -4,8 C -3,6 C 1,6 km/h (1 Bft)
16.01.2021 03:15 -3,6 C -3,9 C 91 % 1031,3 hPa 0,0 l/m 1,6 km/h (1 Bft) N-NW 337 0 min 0,0 UV-I 0 W/m -4,8 C -3,6 C 1,6 km/h (1 Bft)
16.01.2021 03:16 -3,6 C -3,9 C 91 % 1031,4 hPa 0,0 l/m 0,0 km/h (0 Bft) N-NW 337 0 min 0,0 UV-I 0 W/m -4,8 C -3,6 C 1,6 km/h (1 Bft)
16.01.2021 03:17 -3,6 C -3,9 C 91 % 1031,4 hPa 0,0 l/m 0,0 km/h (0 Bft) N-NW 337 0 min 0,0 UV-I 0 W/m -4,8 C -3,6 C 1,6 km/h (1 Bft)
16.01.2021 03:18 -3,6 C -3,9 C 91 % 1031,3 hPa 0,0 l/m 0,0 km/h (0 Bft) N 0 0 min 0,0 UV-I 0 W/m -4,8 C -3,6 C 0,0 km/h (0 Bft)
16.01.2021 03:19 -3,6 C -3,9 C 91 % 1031,3 hPa 0,0 l/m 0,0 km/h (0 Bft) N-NW 337 0 min 0,0 UV-I 0 W/m -4,8 C -3,6 C 1,6 km/h (1 Bft)
16.01.2021 03:20 -3,6 C -3,9 C 91 % 1031,3 hPa 0,0 l/m 1,6 km/h (1 Bft) N-NW 337 0 min 0,0 UV-I 0 W/m -4,8 C -3,6 C 1,6 km/h (1 Bft)
16.01.2021 03:21 -3,7 C -3,9 C 91 % 1031,3 hPa 0,0 l/m 1,6 km/h (1 Bft) N-NW 337 0 min 0,0 UV-I 0 W/m -4,9 C -3,7 C 3,2 km/h (1 Bft)
16.01.2021 03:22 -3,6 C -3,9 C 91 % 1031,3 hPa 0,0 l/m 1,6 km/h (1 Bft) N-NW 337 0 min 0,0 UV-I 0 W/m -4,8 C -3,6 C 3,2 km/h (1 Bft)
16.01.2021 03:23 -3,6 C -3,9 C 91 % 1031,3 hPa 0,0 l/m 1,6 km/h (1 Bft) N-NW 337 0 min 0,0 UV-I 0 W/m -4,8 C -3,6 C 3,2 km/h (1 Bft)
16.01.2021 03:24 -3,7 C -3,9 C 91 % 1031,3 hPa 0,0 l/m 1,6 km/h (1 Bft) N-NW 337 0 min 0,0 UV-I 0 W/m -4,9 C -3,7 C 1,6 km/h (1 Bft)
16.01.2021 03:25 -3,6 C -3,9 C 91 % 1031,3 hPa 0,0 l/m 0,0 km/h (0 Bft) N-NW 337 0 min 0,0 UV-I 0 W/m -4,8 C -3,6 C 1,6 km/h (1 Bft)
16.01.2021 03:26 -3,6 C -3,9 C 91 % 1031,3 hPa 0,0 l/m 0,0 km/h (0 Bft) N-NW 337 0 min 0,0 UV-I 0 W/m -4,8 C -3,6 C 1,6 km/h (1 Bft)
16.01.2021 03:27 -3,7 C -3,9 C 91 % 1031,4 hPa 0,0 l/m 0,0 km/h (0 Bft) N-NW 337 0 min 0,0 UV-I 0 W/m -4,9 C -3,7 C 1,6 km/h (1 Bft)
16.01.2021 03:28 -3,7 C -3,9 C 91 % 1031,4 hPa 0,0 l/m 0,0 km/h (0 Bft) N 0 0 min 0,0 UV-I 0 W/m -4,9 C -3,7 C 0,0 km/h (0 Bft)
16.01.2021 03:29 -3,7 C -3,9 C 91 % 1031,4 hPa 0,0 l/m 0,0 km/h (0 Bft) N-NW 337 0 min 0,0 UV-I 0 W/m -4,9 C -3,7 C 1,6 km/h (1 Bft)
16.01.2021 03:30 -3,7 C -3,9 C 91 % 1031,4 hPa 0,0 l/m 1,6 km/h (1 Bft) N-NW 337 0 min 0,0 UV-I 0 W/m -4,9 C -3,7 C 1,6 km/h (1 Bft)
16.01.2021 03:31 -3,7 C -3,9 C 91 % 1031,3 hPa 0,0 l/m 1,6 km/h (1 Bft) N-NW 337 0 min 0,0 UV-I 0 W/m -4,9 C -3,7 C 1,6 km/h (1 Bft)
16.01.2021 03:32 -3,7 C -3,9 C 91 % 1031,3 hPa 0,0 l/m 0,0 km/h (0 Bft) N-NW 337 0 min 0,0 UV-I 0 W/m -4,9 C -3,7 C 1,6 km/h (1 Bft)
16.01.2021 03:33 -3,7 C -3,9 C 91 % 1031,3 hPa 0,0 l/m 0,0 km/h (0 Bft) N-NW 337 0 min 0,0 UV-I 0 W/m -4,9 C -3,7 C 1,6 km/h (1 Bft)
16.01.2021 03:34 -3,7 C -3,9 C 91 % 1031,2 hPa 0,0 l/m 0,0 km/h (0 Bft) N-NW 337 0 min 0,0 UV-I 0 W/m -4,9 C -3,7 C 1,6 km/h (1 Bft)
16.01.2021 03:35 -3,7 C -3,9 C 91 % 1031,3 hPa 0,0 l/m 1,6 km/h (1 Bft) N-NW 337 0 min 0,0 UV-I 0 W/m -4,9 C -3,7 C 1,6 km/h (1 Bft)
16.01.2021 03:36 -3,7 C -3,9 C 91 % 1031,2 hPa 0,0 l/m 0,0 km/h (0 Bft) N-NW 337 0 min 0,0 UV-I 0 W/m -4,9 C -3,7 C 1,6 km/h (1 Bft)
16.01.2021 03:37 -3,7 C -3,9 C 91 % 1031,2 hPa 0,0 l/m 0,0 km/h (0 Bft) N 0 0 min 0,0 UV-I 0 W/m -4,9 C -3,7 C 0,0 km/h (0 Bft)
16.01.2021 03:38 -3,7 C -3,9 C 91 % 1031,2 hPa 0,0 l/m 0,0 km/h (0 Bft) N-NW 337 0 min 0,0 UV-I 0 W/m -4,9 C -3,7 C 1,6 km/h (1 Bft)
16.01.2021 03:39 -3,7 C -3,9 C 91 % 1031,2 hPa 0,0 l/m 1,6 km/h (1 Bft) N-NW 337 0 min 0,0 UV-I 0 W/m -4,9 C -3,7 C 1,6 km/h (1 Bft)
16.01.2021 03:40 -3,7 C -3,9 C 91 % 1031,2 hPa 0,0 l/m 1,6 km/h (1 Bft) N-NW 337 0 min 0,0 UV-I 0 W/m -4,9 C -3,7 C 1,6 km/h (1 Bft)
16.01.2021 03:41 -3,7 C -3,9 C 91 % 1031,3 hPa 0,0 l/m 0,0 km/h (0 Bft) N-NW 337 0 min 0,0 UV-I 0 W/m -4,9 C -3,7 C 1,6 km/h (1 Bft)
16.01.2021 03:42 -3,7 C -3,9 C 91 % 1031,3 hPa 0,0 l/m 0,0 km/h (0 Bft) N 0 0 min 0,0 UV-I 0 W/m -4,9 C -3,7 C 0,0 km/h (0 Bft)
16.01.2021 03:43 -3,7 C -3,9 C 91 % 1031,2 hPa 0,0 l/m 0,0 km/h (0 Bft) N-NW 337 0 min 0,0 UV-I 0 W/m -4,9 C -3,7 C 1,6 km/h (1 Bft)
16.01.2021 03:44 -3,7 C -3,9 C 91 % 1031,3 hPa 0,0 l/m 0,0 km/h (0 Bft) N-NW 337 0 min 0,0 UV-I 0 W/m -4,9 C -3,7 C 1,6 km/h (1 Bft)
16.01.2021 03:45 -3,7 C -3,9 C 91 % 1031,2 hPa 0,0 l/m 0,0 km/h (0 Bft) N 0 0 min 0,0 UV-I 0 W/m -4,9 C -3,7 C 0,0 km/h (0 Bft)
16.01.2021 03:46 -3,7 C -3,9 C 91 % 1031,3 hPa 0,0 l/m 0,0 km/h (0 Bft) N 0 0 min 0,0 UV-I 0 W/m -4,9 C -3,7 C 0,0 km/h (0 Bft)
16.01.2021 03:47 -3,7 C -3,9 C 91 % 1031,2 hPa 0,0 l/m 0,0 km/h (0 Bft) N 0 0 min 0,0 UV-I 0 W/m -4,9 C -3,7 C 0,0 km/h (0 Bft)
16.01.2021 03:48 -3,7 C -3,9 C 91 % 1031,2 hPa 0,0 l/m 0,0 km/h (0 Bft) N 0 0 min 0,0 UV-I 0 W/m -4,9 C -3,7 C 0,0 km/h (0 Bft)
16.01.2021 03:49 -3,7 C -3,9 C 91 % 1031,1 hPa 0,0 l/m 0,0 km/h (0 Bft) N 0 0 min 0,0 UV-I 0 W/m -4,9 C -3,7 C 0,0 km/h (0 Bft)
16.01.2021 03:50 -3,7 C -3,9 C 91 % 1031,1 hPa 0,0 l/m 0,0 km/h (0 Bft) N 0 0 min 0,0 UV-I 0 W/m -4,9 C -3,7 C 0,0 km/h (0 Bft)
16.01.2021 03:51 -3,7 C -3,9 C 91 % 1031,1 hPa 0,0 l/m 0,0 km/h (0 Bft) N 0 0 min 0,0 UV-I 0 W/m -4,9 C -3,7 C 0,0 km/h (0 Bft)
16.01.2021 03:52 -3,7 C -3,3 C 91 % 1031,2 hPa 0,0 l/m 0,0 km/h (0 Bft) N 0 0 min 0,0 UV-I 0 W/m -4,9 C -3,7 C 0,0 km/h (0 Bft)
16.01.2021 03:53 -3,7 C -3,3 C 91 % 1031,0 hPa 0,0 l/m 0,0 km/h (0 Bft) N 0 0 min 0,0 UV-I 0 W/m -4,9 C -3,7 C 0,0 km/h (0 Bft)
16.01.2021 03:54 -3,7 C -3,3 C 91 % 1031,0 hPa 0,0 l/m 0,0 km/h (0 Bft) N 0 0 min 0,0 UV-I 0 W/m -4,9 C -3,7 C 0,0 km/h (0 Bft)
16.01.2021 03:55 -3,7 C -3,3 C 91 % 1031,0 hPa 0,0 l/m 0,0 km/h (0 Bft) N 0 0 min 0,0 UV-I 0 W/m -4,9 C -3,7 C 0,0 km/h (0 Bft)
16.01.2021 03:56 -3,7 C -3,3 C 91 % 1031,0 hPa 0,0 l/m 0,0 km/h (0 Bft) N 0 0 min 0,0 UV-I 0 W/m -4,9 C -3,7 C 0,0 km/h (0 Bft)
16.01.2021 03:57 -3,7 C -3,3 C 91 % 1030,9 hPa 0,0 l/m 0,0 km/h (0 Bft) N-NW 337 0 min 0,0 UV-I 0 W/m -4,9 C -3,7 C 1,6 km/h (1 Bft)
16.01.2021 03:58 -3,7 C -3,3 C 91 % 1030,8 hPa 0,0 l/m 1,6 km/h (1 Bft) N-NW 337 0 min 0,0 UV-I 0 W/m -4,9 C -3,7 C 1,6 km/h (1 Bft)
16.01.2021 03:59 -3,7 C -3,3 C 91 % 1030,8 hPa 0,0 l/m 0,0 km/h (0 Bft) N-NW 337 0 min 0,0 UV-I 0 W/m -4,9 C -3,7 C 1,6 km/h (1 Bft)
16.01.2021 04:00 -3,7 C -2,8 C 91 % 1030,8 hPa 0,0 l/m 0,0 km/h (0 Bft) N-NW 337 0 min 0,0 UV-I 0 W/m -4,9 C -3,7 C 1,6 km/h (1 Bft)
16.01.2021 04:01 -3,7 C -2,8 C 91 % 1030,8 hPa 0,0 l/m 0,0 km/h (0 Bft) N-NW 337 0 min 0,0 UV-I 0 W/m -4,9 C -3,7 C 1,6 km/h (1 Bft)
16.01.2021 04:02 -3,7 C -2,8 C 91 % 1030,7 hPa 0,0 l/m 1,6 km/h (1 Bft) N-NW 337 0 min 0,0 UV-I 0 W/m -4,9 C -3,7 C 1,6 km/h (1 Bft)
16.01.2021 04:03 -3,7 C -2,8 C 91 % 1030,8 hPa 0,0 l/m 0,0 km/h (0 Bft) N-NW 337 0 min 0,0 UV-I 0 W/m -4,9 C -3,7 C 1,6 km/h (1 Bft)
16.01.2021 04:04 -3,7 C -2,8 C 91 % 1030,8 hPa 0,0 l/m 0,0 km/h (0 Bft) N-NW 337 0 min 0,0 UV-I 0 W/m -4,9 C -3,7 C 1,6 km/h (1 Bft)
16.01.2021 04:05 -3,8 C -2,8 C 91 % 1030,8 hPa 0,0 l/m 0,0 km/h (0 Bft) N 0 0 min 0,0 UV-I 0 W/m -5,0 C -3,8 C 0,0 km/h (0 Bft)
16.01.2021 04:06 -3,8 C -2,8 C 91 % 1030,7 hPa 0,0 l/m 0,0 km/h (0 Bft) N 0 0 min 0,0 UV-I 0 W/m -5,0 C -3,8 C 0,0 km/h (0 Bft)
16.01.2021 04:07 -3,8 C -2,8 C 91 % 1030,8 hPa 0,0 l/m 0,0 km/h (0 Bft) N 0 0 min 0,0 UV-I 0 W/m -5,0 C -3,8 C 0,0 km/h (0 Bft)
16.01.2021 04:08 -3,8 C -2,8 C 91 % 1030,8 hPa 0,0 l/m 0,0 km/h (0 Bft) N 0 0 min 0,0 UV-I 0 W/m -5,0 C -3,8 C 0,0 km/h (0 Bft)
16.01.2021 04:09 -3,8 C -3,3 C 91 % 1030,8 hPa 0,0 l/m 0,0 km/h (0 Bft) N 0 0 min 0,0 UV-I 0 W/m -5,0 C -3,8 C 0,0 km/h (0 Bft)
16.01.2021 04:10 -3,8 C -3,3 C 91 % 1030,8 hPa 0,0 l/m 0,0 km/h (0 Bft) N 0 0 min 0,0 UV-I 0 W/m -5,0 C -3,8 C 0,0 km/h (0 Bft)
16.01.2021 04:11 -3,8 C -3,3 C 91 % 1030,8 hPa 0,0 l/m 0,0 km/h (0 Bft) N 0 0 min 0,0 UV-I 0 W/m -5,0 C -3,8 C 0,0 km/h (0 Bft)
16.01.2021 04:12 -3,8 C -3,3 C 91 % 1030,7 hPa 0,0 l/m 0,0 km/h (0 Bft) N-NW 337 0 min 0,0 UV-I 0 W/m -5,0 C -3,8 C 1,6 km/h (1 Bft)
16.01.2021 04:13 -3,8 C -3,3 C 91 % 1030,7 hPa 0,0 l/m 1,6 km/h (1 Bft) N-NW 337 0 min 0,0 UV-I 0 W/m -5,0 C -3,8 C 1,6 km/h (1 Bft)
16.01.2021 04:14 -3,8 C -3,3 C 91 % 1030,6 hPa 0,0 l/m 1,6 km/h (1 Bft) N-NW 337 0 min 0,0 UV-I 0 W/m -5,0 C -3,8 C 1,6 km/h (1 Bft)
16.01.2021 04:15 -3,8 C -3,3 C 91 % 1030,7 hPa 0,0 l/m 1,6 km/h (1 Bft) N-NW 337 0 min 0,0 UV-I 0 W/m -5,0 C -3,8 C 3,2 km/h (1 Bft)
16.01.2021 04:16 -3,8 C -3,3 C 91 % 1030,7 hPa 0,0 l/m 1,6 km/h (1 Bft) N-NW 337 0 min 0,0 UV-I 0 W/m -5,0 C -3,8 C 3,2 km/h (1 Bft)
16.01.2021 04:17 -3,7 C -3,9 C 91 % 1030,7 hPa 0,0 l/m 3,2 km/h (1 Bft) N-NW 337 0 min 0,0 UV-I 0 W/m -4,9 C -3,7 C 4,8 km/h (1 Bft)
16.01.2021 04:18 -3,8 C -3,9 C 91 % 1030,7 hPa 0,0 l/m 3,2 km/h (1 Bft) N-NW 337 0 min 0,0 UV-I 0 W/m -5,0 C -3,8 C 3,2 km/h (1 Bft)
16.01.2021 04:19 -3,8 C -3,9 C 91 % 1030,7 hPa 0,0 l/m 3,2 km/h (1 Bft) N-NW 337 0 min 0,0 UV-I 0 W/m -5,0 C -3,8 C 3,2 km/h (1 Bft)
16.01.2021 04:20 -3,8 C -3,9 C 91 % 1030,7 hPa 0,0 l/m 3,2 km/h (1 Bft) N-NW 337 0 min 0,0 UV-I 0 W/m -5,0 C -3,8 C 4,8 km/h (1 Bft)
16.01.2021 04:21 -3,8 C -3,9 C 91 % 1030,7 hPa 0,0 l/m 3,2 km/h (1 Bft) N-NW 337 0 min 0,0 UV-I 0 W/m -5,0 C -3,8 C 4,8 km/h (1 Bft)
16.01.2021 04:22 -3,8 C -3,9 C 91 % 1030,7 hPa 0,0 l/m 1,6 km/h (1 Bft) N-NW 337 0 min 0,0 UV-I 0 W/m -5,0 C -3,8 C 3,2 km/h (1 Bft)
16.01.2021 04:23 -3,8 C -3,9 C 91 % 1030,9 hPa 0,0 l/m 1,6 km/h (1 Bft) N-NW 337 0 min 0,0 UV-I 0 W/m -5,0 C -3,8 C 3,2 km/h (1 Bft)
16.01.2021 04:24 -3,8 C -3,9 C 91 % 1030,7 hPa 0,0 l/m 1,6 km/h (1 Bft) N-NW 337 0 min 0,0 UV-I 0 W/m -5,0 C -3,8 C 3,2 km/h (1 Bft)
16.01.2021 04:25 -3,8 C -3,9 C 91 % 1030,8 hPa 0,0 l/m 1,6 km/h (1 Bft) N-NW 337 0 min 0,0 UV-I 0 W/m -5,0 C -3,8 C 3,2 km/h (1 Bft)
16.01.2021 04:26 -3,8 C -3,9 C 91 % 1030,9 hPa 0,0 l/m 3,2 km/h (1 Bft) N-NW 337 0 min 0,0 UV-I 0 W/m -5,0 C -3,8 C 4,8 km/h (1 Bft)
16.01.2021 04:27 -3,8 C -3,9 C 91 % 1030,8 hPa 0,0 l/m 3,2 km/h (1 Bft) N-NW 337 0 min 0,0 UV-I 0 W/m -5,0 C -3,8 C 3,2 km/h (1 Bft)
16.01.2021 04:28 -3,8 C -3,9 C 91 % 1031,0 hPa 0,0 l/m 1,6 km/h (1 Bft) N-NW 337 0 min 0,0 UV-I 0 W/m -5,0 C -3,8 C 1,6 km/h (1 Bft)
16.01.2021 04:29 -3,8 C -3,9 C 91 % 1030,9 hPa 0,0 l/m 3,2 km/h (1 Bft) N-NW 337 0 min 0,0 UV-I 0 W/m -5,0 C -3,8 C 4,8 km/h (1 Bft)
16.01.2021 04:30 -3,8 C -3,9 C 91 % 1030,8 hPa 0,0 l/m 1,6 km/h (1 Bft) N-NW 337 0 min 0,0 UV-I 0 W/m -5,0 C -3,8 C 3,2 km/h (1 Bft)
16.01.2021 04:31 -3,8 C -3,9 C 91 % 1030,9 hPa 0,0 l/m 3,2 km/h (1 Bft) N-NW 337 0 min 0,0 UV-I 0 W/m -5,0 C -3,8 C 3,2 km/h (1 Bft)
16.01.2021 04:32 -3,8 C -3,9 C 91 % 1031,0 hPa 0,0 l/m 1,6 km/h (1 Bft) N-NW 337 0 min 0,0 UV-I 0 W/m -5,0 C -3,8 C 3,2 km/h (1 Bft)
16.01.2021 04:33 -3,8 C -3,9 C 91 % 1030,9 hPa 0,0 l/m 1,6 km/h (1 Bft) N-NW 337 0 min 0,0 UV-I 0 W/m -5,0 C -3,8 C 1,6 km/h (1 Bft)
16.01.2021 04:34 -3,8 C -3,9 C 91 % 1030,9 hPa 0,0 l/m 0,0 km/h (0 Bft) N-NW 337 0 min 0,0 UV-I 0 W/m -5,0 C -3,8 C 1,6 km/h (1 Bft)
16.01.2021 04:35 -3,8 C -3,9 C 91 % 1030,9 hPa 0,0 l/m 1,6 km/h (1 Bft) N-NW 337 0 min 0,0 UV-I 0 W/m -5,0 C -3,8 C 3,2 km/h (1 Bft)
16.01.2021 04:36 -3,8 C -3,9 C 91 % 1031,0 hPa 0,0 l/m 1,6 km/h (1 Bft) N-NW 337 0 min 0,0 UV-I 0 W/m -5,0 C -3,8 C 3,2 km/h (1 Bft)
16.01.2021 04:37 -3,8 C -3,9 C 91 % 1030,8 hPa 0,0 l/m 3,2 km/h (1 Bft) N-NW 337 0 min 0,0 UV-I 0 W/m -5,0 C -3,8 C 4,8 km/h (1 Bft)
16.01.2021 04:38 -3,8 C -3,9 C 91 % 1030,9 hPa 0,0 l/m 1,6 km/h (1 Bft) N-NW 337 0 min 0,0 UV-I 0 W/m -5,0 C -3,8 C 3,2 km/h (1 Bft)
16.01.2021 04:39 -3,8 C -3,9 C 91 % 1031,0 hPa 0,0 l/m 3,2 km/h (1 Bft) N-NW 337 0 min 0,0 UV-I 0 W/m -5,0 C -3,8 C 3,2 km/h (1 Bft)
16.01.2021 04:40 -3,8 C -3,9 C 91 % 1030,9 hPa 0,0 l/m 1,6 km/h (1 Bft) N-NW 337 0 min 0,0 UV-I 0 W/m -5,0 C -3,8 C 3,2 km/h (1 Bft)
16.01.2021 04:41 -3,8 C -3,9 C 91 % 1031,0 hPa 0,0 l/m 1,6 km/h (1 Bft) N-NW 337 0 min 0,0 UV-I 0 W/m -5,0 C -3,8 C 3,2 km/h (1 Bft)
16.01.2021 04:42 -3,8 C -3,9 C 91 % 1030,9 hPa 0,0 l/m 0,0 km/h (0 Bft) N-NW 337 0 min 0,0 UV-I 0 W/m -5,0 C -3,8 C 1,6 km/h (1 Bft)
16.01.2021 04:43 -3,8 C -3,9 C 91 % 1031,0 hPa 0,0 l/m 0,0 km/h (0 Bft) N-NW 337 0 min 0,0 UV-I 0 W/m -5,0 C -3,8 C 1,6 km/h (1 Bft)
16.01.2021 04:44 -3,8 C -3,9 C 91 % 1030,9 hPa 0,0 l/m 1,6 km/h (1 Bft) N-NW 337 0 min 0,0 UV-I 0 W/m -5,0 C -3,8 C 1,6 km/h (1 Bft)
16.01.2021 04:45 -3,8 C -3,9 C 91 % 1031,0 hPa 0,0 l/m 1,6 km/h (1 Bft) N-NW 337 0 min 0,0 UV-I 0 W/m -5,0 C -3,8 C 1,6 km/h (1 Bft)
16.01.2021 04:46 -3,9 C -3,9 C 91 % 1031,0 hPa 0,0 l/m 0,0 km/h (0 Bft) N-NW 337 0 min 0,0 UV-I 0 W/m -5,1 C -3,9 C 1,6 km/h (1 Bft)
16.01.2021 04:47 -3,9 C -3,9 C 91 % 1030,9 hPa 0,0 l/m 0,0 km/h (0 Bft) N-NW 337 0 min 0,0 UV-I 0 W/m -5,1 C -3,9 C 1,6 km/h (1 Bft)
16.01.2021 04:48 -3,9 C -3,9 C 91 % 1030,9 hPa 0,0 l/m 0,0 km/h (0 Bft) N 0 0 min 0,0 UV-I 0 W/m -5,1 C -3,9 C 0,0 km/h (0 Bft)
16.01.2021 04:49 -3,9 C -3,9 C 91 % 1030,9 hPa 0,0 l/m 0,0 km/h (0 Bft) N-NW 337 0 min 0,0 UV-I 0 W/m -5,1 C -3,9 C 1,6 km/h (1 Bft)
16.01.2021 04:50 -3,9 C -3,9 C 91 % 1030,9 hPa 0,0 l/m 1,6 km/h (1 Bft) N-NW 337 0 min 0,0 UV-I 0 W/m -5,1 C -3,9 C 1,6 km/h (1 Bft)
16.01.2021 04:51 -3,9 C -3,9 C 91 % 1030,8 hPa 0,0 l/m 0,0 km/h (0 Bft) N-NW 337 0 min 0,0 UV-I 0 W/m -5,1 C -3,9 C 1,6 km/h (1 Bft)
16.01.2021 04:52 -3,9 C -3,9 C 91 % 1030,8 hPa 0,0 l/m 0,0 km/h (0 Bft) N 0 0 min 0,0 UV-I 0 W/m -5,1 C -3,9 C 0,0 km/h (0 Bft)
16.01.2021 04:53 -3,9 C -3,9 C 91 % 1030,7 hPa 0,0 l/m 0,0 km/h (0 Bft) N-NW 337 0 min 0,0 UV-I 0 W/m -5,1 C -3,9 C 1,6 km/h (1 Bft)
16.01.2021 04:54 -3,9 C -3,9 C 92 % 1030,7 hPa 0,0 l/m 1,6 km/h (1 Bft) N-NW 337 0 min 0,0 UV-I 0 W/m -5,0 C -3,9 C 3,2 km/h (1 Bft)
16.01.2021 04:55 -3,9 C -3,9 C 92 % 1030,7 hPa 0,0 l/m 1,6 km/h (1 Bft) N-NW 337 0 min 0,0 UV-I 0 W/m -5,0 C -3,9 C 3,2 km/h (1 Bft)
16.01.2021 04:56 -3,9 C -3,9 C 92 % 1030,8 hPa 0,0 l/m 1,6 km/h (1 Bft) N-NW 337 0 min 0,0 UV-I 0 W/m -5,0 C -3,9 C 3,2 km/h (1 Bft)
16.01.2021 04:57 -3,9 C -3,9 C 92 % 1030,8 hPa 0,0 l/m 1,6 km/h (1 Bft) N-NW 337 0 min 0,0 UV-I 0 W/m -5,0 C -3,9 C 3,2 km/h (1 Bft)
16.01.2021 04:58 -3,9 C -3,9 C 92 % 1030,9 hPa 0,0 l/m 1,6 km/h (1 Bft) N-NW 337 0 min 0,0 UV-I 0 W/m -5,0 C -3,9 C 3,2 km/h (1 Bft)
16.01.2021 04:59 -3,9 C -3,9 C 92 % 1030,9 hPa 0,0 l/m 3,2 km/h (1 Bft) N-NW 337 0 min 0,0 UV-I 0 W/m -5,0 C -3,9 C 3,2 km/h (1 Bft)
16.01.2021 05:00 -3,9 C -3,9 C 92 % 1030,9 hPa 0,0 l/m 1,6 km/h (1 Bft) N-NW 337 0 min 0,0 UV-I 0 W/m -5,0 C -3,9 C 3,2 km/h (1 Bft)
16.01.2021 05:01 -3,9 C -3,9 C 92 % 1031,0 hPa 0,0 l/m 1,6 km/h (1 Bft) N-NW 337 0 min 0,0 UV-I 0 W/m -5,0 C -3,9 C 3,2 km/h (1 Bft)
16.01.2021 05:02 -3,9 C -3,9 C 92 % 1030,8 hPa 0,0 l/m 3,2 km/h (1 Bft) N-NW 337 0 min 0,0 UV-I 0 W/m -5,0 C -3,9 C 3,2 km/h (1 Bft)
16.01.2021 05:03 -3,9 C -3,9 C 92 % 1030,9 hPa 0,0 l/m 1,6 km/h (1 Bft) N-NW 337 0 min 0,0 UV-I 0 W/m -5,0 C -3,9 C 1,6 km/h (1 Bft)
16.01.2021 05:04 -3,9 C -3,9 C 92 % 1030,9 hPa 0,0 l/m 1,6 km/h (1 Bft) N-NW 337 0 min 0,0 UV-I 0 W/m -5,0 C -3,9 C 3,2 km/h (1 Bft)
16.01.2021 05:05 -3,9 C -3,9 C 92 % 1030,8 hPa 0,0 l/m 1,6 km/h (1 Bft) N-NW 337 0 min 0,0 UV-I 0 W/m -5,0 C -3,9 C 3,2 km/h (1 Bft)
16.01.2021 05:06 -3,9 C -3,9 C 92 % 1030,8 hPa 0,0 l/m 3,2 km/h (1 Bft) N-NW 337 0 min 0,0 UV-I 0 W/m -5,0 C -3,9 C 3,2 km/h (1 Bft)
16.01.2021 05:07 -3,9 C -3,9 C 92 % 1030,8 hPa 0,0 l/m 3,2 km/h (1 Bft) N-NW 337 0 min 0,0 UV-I 0 W/m -5,0 C -3,9 C 4,8 km/h (1 Bft)
16.01.2021 05:08 -3,9 C -3,9 C 92 % 1030,8 hPa 0,0 l/m 3,2 km/h (1 Bft) N-NW 337 0 min 0,0 UV-I 0 W/m -5,0 C -3,9 C 3,2 km/h (1 Bft)
16.01.2021 05:09 -3,9 C -3,9 C 92 % 1030,8 hPa 0,0 l/m 3,2 km/h (1 Bft) N-NW 337 0 min 0,0 UV-I 0 W/m -5,0 C -3,9 C 3,2 km/h (1 Bft)
16.01.2021 05:10 -3,9 C -3,9 C 92 % 1030,8 hPa 0,0 l/m 3,2 km/h (1 Bft) N-NW 337 0 min 0,0 UV-I 0 W/m -5,0 C -3,9 C 4,8 km/h (1 Bft)
16.01.2021 05:11 -3,9 C -3,9 C 92 % 1030,8 hPa 0,0 l/m 3,2 km/h (1 Bft) N-NW 337 0 min 0,0 UV-I 0 W/m -5,0 C -3,9 C 4,8 km/h (1 Bft)
16.01.2021 05:12 -3,9 C -3,9 C 92 % 1030,8 hPa 0,0 l/m 3,2 km/h (1 Bft) N-NW 337 0 min 0,0 UV-I 0 W/m -5,0 C -3,9 C 4,8 km/h (1 Bft)
16.01.2021 05:13 -3,9 C -3,9 C 92 % 1030,7 hPa 0,0 l/m 3,2 km/h (1 Bft) N-NW 337 0 min 0,0 UV-I 0 W/m -5,0 C -3,9 C 3,2 km/h (1 Bft)
16.01.2021 05:14 -3,9 C -3,9 C 92 % 1030,8 hPa 0,0 l/m 1,6 km/h (1 Bft) N-NW 337 0 min 0,0 UV-I 0 W/m -5,0 C -3,9 C 3,2 km/h (1 Bft)
16.01.2021 05:15 -3,9 C -3,9 C 92 % 1030,9 hPa 0,0 l/m 1,6 km/h (1 Bft) N-NW 337 0 min 0,0 UV-I 0 W/m -5,0 C -3,9 C 1,6 km/h (1 Bft)
16.01.2021 05:16 -3,9 C -3,9 C 92 % 1030,8 hPa 0,0 l/m 1,6 km/h (1 Bft) N-NW 337 0 min 0,0 UV-I 0 W/m -5,0 C -3,9 C 1,6 km/h (1 Bft)
16.01.2021 05:17 -3,9 C -3,9 C 92 % 1030,7 hPa 0,0 l/m 1,6 km/h (1 Bft) N-NW 337 0 min 0,0 UV-I 0 W/m -5,0 C -3,9 C 1,6 km/h (1 Bft)
16.01.2021 05:18 -3,9 C -3,9 C 92 % 1030,8 hPa 0,0 l/m 1,6 km/h (1 Bft) N-NW 337 0 min 0,0 UV-I 0 W/m -5,0 C -3,9 C 3,2 km/h (1 Bft)
16.01.2021 05:19 -3,9 C -3,9 C 92 % 1030,7 hPa 0,0 l/m 1,6 km/h (1 Bft) N-NW 337 0 min 0,0 UV-I 0 W/m -5,0 C -3,9 C 3,2 km/h (1 Bft)
16.01.2021 05:20 -3,9 C -3,9 C 92 % 1030,7 hPa 0,0 l/m 1,6 km/h (1 Bft) N-NW 337 0 min 0,0 UV-I 0 W/m -5,0 C -3,9 C 3,2 km/h (1 Bft)
16.01.2021 05:21 -3,9 C -3,9 C 92 % 1030,6 hPa 0,0 l/m 0,0 km/h (0 Bft) N 0 0 min 0,0 UV-I 0 W/m -5,0 C -3,9 C 0,0 km/h (0 Bft)
16.01.2021 05:22 -3,9 C -3,9 C 92 % 1030,8 hPa 0,0 l/m 0,0 km/h (0 Bft) N 0 0 min 0,0 UV-I 0 W/m -5,0 C -3,9 C 0,0 km/h (0 Bft)
16.01.2021 05:23 -3,9 C -3,3 C 92 % 1030,7 hPa 0,0 l/m 0,0 km/h (0 Bft) N 0 0 min 0,0 UV-I 0 W/m -5,0 C -3,9 C 0,0 km/h (0 Bft)
16.01.2021 05:24 -3,9 C -3,3 C 92 % 1030,7 hPa 0,0 l/m 0,0 km/h (0 Bft) N 0 0 min 0,0 UV-I 0 W/m -5,0 C -3,9 C 0,0 km/h (0 Bft)
16.01.2021 05:25 -3,9 C -3,3 C 92 % 1030,7 hPa 0,0 l/m 0,0 km/h (0 Bft) N 0 0 min 0,0 UV-I 0 W/m -5,0 C -3,9 C 0,0 km/h (0 Bft)
16.01.2021 05:26 -3,9 C -3,3 C 92 % 1030,6 hPa 0,0 l/m 0,0 km/h (0 Bft) N-NW 337 0 min 0,0 UV-I 0 W/m -5,0 C -3,9 C 1,6 km/h (1 Bft)
16.01.2021 05:27 -3,9 C -3,3 C 92 % 1030,6 hPa 0,0 l/m 0,0 km/h (0 Bft) N 0 0 min 0,0 UV-I 0 W/m -5,0 C -3,9 C 0,0 km/h (0 Bft)
16.01.2021 05:28 -3,9 C -3,3 C 92 % 1030,6 hPa 0,0 l/m 0,0 km/h (0 Bft) N-NW 337 0 min 0,0 UV-I 0 W/m -5,0 C -3,9 C 1,6 km/h (1 Bft)
16.01.2021 05:29 -3,9 C -3,3 C 92 % 1030,5 hPa 0,0 l/m 1,6 km/h (1 Bft) N-NW 337 0 min 0,0 UV-I 0 W/m -5,0 C -3,9 C 3,2 km/h (1 Bft)
16.01.2021 05:30 -3,9 C -3,3 C 92 % 1030,5 hPa 0,0 l/m 1,6 km/h (1 Bft) N-NW 337 0 min 0,0 UV-I 0 W/m -5,0 C -3,9 C 3,2 km/h (1 Bft)
16.01.2021 05:31 -3,9 C -3,3 C 92 % 1030,6 hPa 0,0 l/m 1,6 km/h (1 Bft) N-NW 337 0 min 0,0 UV-I 0 W/m -5,0 C -3,9 C 3,2 km/h (1 Bft)
16.01.2021 05:32 -3,9 C -3,3 C 92 % 1030,7 hPa 0,0 l/m 1,6 km/h (1 Bft) N-NW 337 0 min 0,0 UV-I 0 W/m -5,0 C -3,9 C 3,2 km/h (1 Bft)
16.01.2021 05:33 -3,9 C -3,9 C 92 % 1030,6 hPa 0,0 l/m 1,6 km/h (1 Bft) N-NW 337 0 min 0,0 UV-I 0 W/m -5,0 C -3,9 C 3,2 km/h (1 Bft)
16.01.2021 05:34 -3,9 C -3,9 C 92 % 1030,6 hPa 0,0 l/m 1,6 km/h (1 Bft) N-NW 337 0 min 0,0 UV-I 0 W/m -5,0 C -3,9 C 1,6 km/h (1 Bft)
16.01.2021 05:35 -3,9 C -3,9 C 92 % 1030,7 hPa 0,0 l/m 0,0 km/h (0 Bft) N-NW 337 0 min 0,0 UV-I 0 W/m -5,0 C -3,9 C 1,6 km/h (1 Bft)
16.01.2021 05:36 -3,9 C -3,9 C 92 % 1030,7 hPa 0,0 l/m 0,0 km/h (0 Bft) N 0 0 min 0,0 UV-I 0 W/m -5,0 C -3,9 C 0,0 km/h (0 Bft)
16.01.2021 05:37 -3,9 C -3,9 C 92 % 1030,6 hPa 0,0 l/m 0,0 km/h (0 Bft) N-NW 337 0 min 0,0 UV-I 0 W/m -5,0 C -3,9 C 1,6 km/h (1 Bft)
16.01.2021 05:38 -3,9 C -3,9 C 92 % 1030,5 hPa 0,0 l/m 0,0 km/h (0 Bft) N-NW 337 0 min 0,0 UV-I 0 W/m -5,0 C -3,9 C 1,6 km/h (1 Bft)
16.01.2021 05:39 -3,9 C -3,9 C 92 % 1030,6 hPa 0,0 l/m 1,6 km/h (1 Bft) N-NW 337 0 min 0,0 UV-I 0 W/m -5,0 C -3,9 C 3,2 km/h (1 Bft)
16.01.2021 05:40 -3,9 C -3,9 C 92 % 1030,7 hPa 0,0 l/m 0,0 km/h (0 Bft) N-NW 337 0 min 0,0 UV-I 0 W/m -5,0 C -3,9 C 1,6 km/h (1 Bft)
16.01.2021 05:41 -3,9 C -3,9 C 92 % 1030,6 hPa 0,0 l/m 0,0 km/h (0 Bft) N-NW 337 0 min 0,0 UV-I 0 W/m -5,0 C -3,9 C 1,6 km/h (1 Bft)
16.01.2021 05:42 -3,9 C -3,9 C 92 % 1030,7 hPa 0,0 l/m 1,6 km/h (1 Bft) N-NW 337 0 min 0,0 UV-I 0 W/m -5,0 C -3,9 C 1,6 km/h (1 Bft)
16.01.2021 05:43 -3,9 C -3,9 C 92 % 1030,6 hPa 0,0 l/m 0,0 km/h (0 Bft) N-NW 337 0 min 0,0 UV-I 0 W/m -5,0 C -3,9 C 1,6 km/h (1 Bft)
16.01.2021 05:44 -3,9 C -3,9 C 92 % 1030,6 hPa 0,0 l/m 0,0 km/h (0 Bft) N 0 0 min 0,0 UV-I 0 W/m -5,0 C -3,9 C 0,0 km/h (0 Bft)
16.01.2021 05:45 -3,9 C -3,9 C 92 % 1030,7 hPa 0,0 l/m 0,0 km/h (0 Bft) N 0 0 min 0,0 UV-I 0 W/m -5,0 C -3,9 C 0,0 km/h (0 Bft)
16.01.2021 05:46 -3,9 C -3,9 C 92 % 1030,7 hPa 0,0 l/m 0,0 km/h (0 Bft) N 0 0 min 0,0 UV-I 0 W/m -5,0 C -3,9 C 0,0 km/h (0 Bft)
16.01.2021 05:47 -3,9 C -3,3 C 92 % 1030,6 hPa 0,0 l/m 0,0 km/h (0 Bft) N 0 0 min 0,0 UV-I 0 W/m -5,0 C -3,9 C 0,0 km/h (0 Bft)
16.01.2021 05:48 -3,9 C -3,3 C 92 % 1030,6 hPa 0,0 l/m 0,0 km/h (0 Bft) N 0 0 min 0,0 UV-I 0 W/m -5,0 C -3,9 C 0,0 km/h (0 Bft)
16.01.2021 05:49 -3,9 C -3,3 C 92 % 1030,6 hPa 0,0 l/m 0,0 km/h (0 Bft) N 0 0 min 0,0 UV-I 0 W/m -5,0 C -3,9 C 0,0 km/h (0 Bft)
16.01.2021 05:50 -3,9 C -3,3 C 92 % 1030,5 hPa 0,0 l/m 0,0 km/h (0 Bft) N 0 0 min 0,0 UV-I 0 W/m -5,0 C -3,9 C 0,0 km/h (0 Bft)
16.01.2021 05:51 -3,9 C -3,3 C 92 % 1030,6 hPa 0,0 l/m 0,0 km/h (0 Bft) N 0 0 min 0,0 UV-I 0 W/m -5,0 C -3,9 C 0,0 km/h (0 Bft)
16.01.2021 05:52 -3,9 C -3,3 C 92 % 1030,6 hPa 0,0 l/m 0,0 km/h (0 Bft) N 0 0 min 0,0 UV-I 0 W/m -5,0 C -3,9 C 0,0 km/h (0 Bft)
16.01.2021 05:53 -3,9 C -3,3 C 92 % 1030,5 hPa 0,0 l/m 0,0 km/h (0 Bft) N 0 0 min 0,0 UV-I 0 W/m -5,0 C -3,9 C 0,0 km/h (0 Bft)
16.01.2021 05:54 -3,9 C -3,3 C 92 % 1030,5 hPa 0,0 l/m 0,0 km/h (0 Bft) N 0 0 min 0,0 UV-I 0 W/m -5,0 C -3,9 C 0,0 km/h (0 Bft)
16.01.2021 05:55 -3,9 C -3,3 C 92 % 1030,5 hPa 0,0 l/m 0,0 km/h (0 Bft) N 0 0 min 0,0 UV-I 0 W/m -5,0 C -3,9 C 0,0 km/h (0 Bft)
16.01.2021 05:56 -3,9 C -3,3 C 92 % 1030,4 hPa 0,0 l/m 0,0 km/h (0 Bft) N 0 0 min 0,0 UV-I 0 W/m -5,0 C -3,9 C 0,0 km/h (0 Bft)
16.01.2021 05:57 -3,9 C -3,3 C 92 % 1030,4 hPa 0,0 l/m 0,0 km/h (0 Bft) N 0 0 min 0,0 UV-I 0 W/m -5,0 C -3,9 C 0,0 km/h (0 Bft)
16.01.2021 05:58 -3,9 C -3,3 C 92 % 1030,4 hPa 0,0 l/m 0,0 km/h (0 Bft) N 0 0 min 0,0 UV-I 0 W/m -5,0 C -3,9 C 0,0 km/h (0 Bft)
16.01.2021 05:59 -3,9 C -3,3 C 92 % 1030,5 hPa 0,0 l/m 0,0 km/h (0 Bft) N 0 0 min 0,0 UV-I 0 W/m -5,0 C -3,9 C 0,0 km/h (0 Bft)
16.01.2021 06:00 -3,9 C -3,3 C 92 % 1030,4 hPa 0,0 l/m 0,0 km/h (0 Bft) N 0 0 min 0,0 UV-I 0 W/m -5,0 C -3,9 C 0,0 km/h (0 Bft)
16.01.2021 06:01 -3,9 C -2,8 C 92 % 1030,4 hPa 0,0 l/m 0,0 km/h (0 Bft) N 0 0 min 0,0 UV-I 0 W/m -5,0 C -3,9 C 0,0 km/h (0 Bft)
16.01.2021 06:02 -3,9 C -3,3 C 92 % 1030,4 hPa 0,0 l/m 0,0 km/h (0 Bft) N 0 0 min 0,0 UV-I 0 W/m -5,0 C -3,9 C 0,0 km/h (0 Bft)
16.01.2021 06:03 -3,9 C -3,3 C 92 % 1030,4 hPa 0,0 l/m 0,0 km/h (0 Bft) N-NW 337 0 min 0,0 UV-I 0 W/m -5,0 C -3,9 C 1,6 km/h (1 Bft)
16.01.2021 06:04 -3,9 C -3,3 C 92 % 1030,4 hPa 0,0 l/m 1,6 km/h (1 Bft) N-NW 337 0 min 0,0 UV-I 0 W/m -5,0 C -3,9 C 1,6 km/h (1 Bft)
16.01.2021 06:05 -3,9 C -3,3 C 92 % 1030,5 hPa 0,0 l/m 0,0 km/h (0 Bft) N 0 0 min 0,0 UV-I 0 W/m -5,0 C -3,9 C 0,0 km/h (0 Bft)
16.01.2021 06:06 -3,9 C -3,3 C 92 % 1030,5 hPa 0,0 l/m 0,0 km/h (0 Bft) N-NW 337 0 min 0,0 UV-I 0 W/m -5,0 C -3,9 C 1,6 km/h (1 Bft)
16.01.2021 06:07 -3,9 C -3,3 C 92 % 1030,4 hPa 0,0 l/m 0,0 km/h (0 Bft) N 0 0 min 0,0 UV-I 0 W/m -5,0 C -3,9 C 0,0 km/h (0 Bft)
16.01.2021 06:08 -3,9 C -3,3 C 92 % 1030,4 hPa 0,0 l/m 0,0 km/h (0 Bft) N 0 0 min 0,0 UV-I 0 W/m -5,0 C -3,9 C 0,0 km/h (0 Bft)
16.01.2021 06:09 -3,9 C -3,3 C 92 % 1030,4 hPa 0,0 l/m 0,0 km/h (0 Bft) N-NW 337 0 min 0,0 UV-I 0 W/m -5,0 C -3,9 C 1,6 km/h (1 Bft)
16.01.2021 06:10 -3,9 C -3,3 C 92 % 1030,4 hPa 0,0 l/m 1,6 km/h (1 Bft) N-NW 337 0 min 0,0 UV-I 0 W/m -5,0 C -3,9 C 3,2 km/h (1 Bft)
16.01.2021 06:11 -3,9 C -3,3 C 92 % 1030,3 hPa 0,0 l/m 1,6 km/h (1 Bft) N-NW 337 0 min 0,0 UV-I 0 W/m -5,0 C -3,9 C 3,2 km/h (1 Bft)
16.01.2021 06:12 -3,9 C -3,3 C 92 % 1030,4 hPa 0,0 l/m 1,6 km/h (1 Bft) N-NW 337 0 min 0,0 UV-I 0 W/m -5,0 C -3,9 C 3,2 km/h (1 Bft)
16.01.2021 06:13 -3,9 C -3,3 C 92 % 1030,4 hPa 0,0 l/m 0,0 km/h (0 Bft) N 0 0 min 0,0 UV-I 0 W/m -5,0 C -3,9 C 0,0 km/h (0 Bft)
16.01.2021 06:14 -3,9 C -3,3 C 92 % 1030,4 hPa 0,0 l/m 1,6 km/h (1 Bft) N-NW 337 0 min 0,0 UV-I 0 W/m -5,0 C -3,9 C 1,6 km/h (1 Bft)
16.01.2021 06:15 -3,9 C -3,3 C 92 % 1030,4 hPa 0,0 l/m 1,6 km/h (1 Bft) N-NW 337 0 min 0,0 UV-I 0 W/m -5,0 C -3,9 C 1,6 km/h (1 Bft)
16.01.2021 06:16 -3,9 C -3,3 C 92 % 1030,4 hPa 0,0 l/m 1,6 km/h (1 Bft) N-NW 337 0 min 0,0 UV-I 0 W/m -5,0 C -3,9 C 1,6 km/h (1 Bft)
16.01.2021 06:17 -3,9 C -3,9 C 92 % 1030,4 hPa 0,0 l/m 1,6 km/h (1 Bft) N-NW 337 0 min 0,0 UV-I 0 W/m -5,0 C -3,9 C 3,2 km/h (1 Bft)
16.01.2021 06:18 -3,9 C -3,9 C 92 % 1030,4 hPa 0,0 l/m 1,6 km/h (1 Bft) N-NW 337 0 min 0,0 UV-I 0 W/m -5,0 C -3,9 C 1,6 km/h (1 Bft)
16.01.2021 06:19 -3,9 C -3,9 C 92 % 1030,4 hPa 0,0 l/m 1,6 km/h (1 Bft) N-NW 337 0 min 0,0 UV-I 0 W/m -5,0 C -3,9 C 1,6 km/h (1 Bft)
16.01.2021 06:20 -3,9 C -3,9 C 92 % 1030,3 hPa 0,0 l/m 1,6 km/h (1 Bft) N-NW 337 0 min 0,0 UV-I 0 W/m -5,0 C -3,9 C 3,2 km/h (1 Bft)
16.01.2021 06:21 -3,9 C -3,9 C 92 % 1030,4 hPa 0,0 l/m 1,6 km/h (1 Bft) N-NW 337 0 min 0,0 UV-I 0 W/m -5,0 C -3,9 C 1,6 km/h (1 Bft)
16.01.2021 06:22 -3,9 C -3,9 C 92 % 1030,4 hPa 0,0 l/m 0,0 km/h (0 Bft) N-NW 337 0 min 0,0 UV-I 0 W/m -5,0 C -3,9 C 1,6 km/h (1 Bft)
16.01.2021 06:23 -3,9 C -3,3 C 92 % 1030,4 hPa 0,0 l/m 0,0 km/h (0 Bft) N 0 0 min 0,0 UV-I 0 W/m -5,0 C -3,9 C 0,0 km/h (0 Bft)
16.01.2021 06:24 -3,9 C -3,3 C 92 % 1030,4 hPa 0,0 l/m 0,0 km/h (0 Bft) N 0 0 min 0,0 UV-I 0 W/m -5,0 C -3,9 C 0,0 km/h (0 Bft)
16.01.2021 06:25 -3,9 C -3,3 C 92 % 1030,3 hPa 0,0 l/m 0,0 km/h (0 Bft) N 0 0 min 0,0 UV-I 0 W/m -5,0 C -3,9 C 0,0 km/h (0 Bft)
16.01.2021 06:26 -3,9 C -3,3 C 92 % 1030,3 hPa 0,0 l/m 0,0 km/h (0 Bft) N 0 0 min 0,0 UV-I 0 W/m -5,0 C -3,9 C 0,0 km/h (0 Bft)
16.01.2021 06:27 -3,9 C -3,3 C 92 % 1030,3 hPa 0,0 l/m 0,0 km/h (0 Bft) N-NW 337 0 min 0,0 UV-I 0 W/m -5,0 C -3,9 C 1,6 km/h (1 Bft)
16.01.2021 06:28 -3,9 C -3,3 C 92 % 1030,4 hPa 0,0 l/m 1,6 km/h (1 Bft) N-NW 337 0 min 0,0 UV-I 0 W/m -5,0 C -3,9 C 1,6 km/h (1 Bft)
16.01.2021 06:29 -3,9 C -3,3 C 92 % 1030,2 hPa 0,0 l/m 0,0 km/h (0 Bft) N-NW 337 0 min 0,0 UV-I 0 W/m -5,0 C -3,9 C 1,6 km/h (1 Bft)
16.01.2021 06:30 -3,9 C -3,9 C 92 % 1030,3 hPa 0,0 l/m 1,6 km/h (1 Bft) N-NW 337 0 min 0,0 UV-I 0 W/m -5,0 C -3,9 C 3,2 km/h (1 Bft)
16.01.2021 06:31 -3,9 C -3,9 C 92 % 1030,2 hPa 0,0 l/m 3,2 km/h (1 Bft) N-NW 337 0 min 0,0 UV-I 0 W/m -5,0 C -3,9 C 3,2 km/h (1 Bft)
16.01.2021 06:32 -3,9 C -3,9 C 92 % 1030,2 hPa 0,0 l/m 1,6 km/h (1 Bft) N-NW 337 0 min 0,0 UV-I 0 W/m -5,0 C -3,9 C 3,2 km/h (1 Bft)
16.01.2021 06:33 -3,9 C -3,9 C 92 % 1030,2 hPa 0,0 l/m 1,6 km/h (1 Bft) N-NW 337 0 min 0,0 UV-I 0 W/m -5,0 C -3,9 C 1,6 km/h (1 Bft)
16.01.2021 06:34 -3,9 C -3,9 C 92 % 1030,2 hPa 0,0 l/m 0,0 km/h (0 Bft) N-NW 337 0 min 0,0 UV-I 0 W/m -5,0 C -3,9 C 1,6 km/h (1 Bft)
16.01.2021 06:35 -3,9 C -3,9 C 92 % 1030,1 hPa 0,0 l/m 0,0 km/h (0 Bft) N-NW 337 0 min 0,0 UV-I 0 W/m -5,0 C -3,9 C 1,6 km/h (1 Bft)
16.01.2021 06:36 -3,9 C -3,9 C 92 % 1030,2 hPa 0,0 l/m 0,0 km/h (0 Bft) N 0 0 min 0,0 UV-I 0 W/m -5,0 C -3,9 C 0,0 km/h (0 Bft)
16.01.2021 06:37 -4,0 C -3,3 C 92 % 1030,2 hPa 0,0 l/m 0,0 km/h (0 Bft) N 0 0 min 0,0 UV-I 0 W/m -5,1 C -4,0 C 0,0 km/h (0 Bft)
16.01.2021 06:38 -4,0 C -3,3 C 92 % 1030,3 hPa 0,0 l/m 0,0 km/h (0 Bft) N 0 0 min 0,0 UV-I 0 W/m -5,1 C -4,0 C 0,0 km/h (0 Bft)
16.01.2021 06:39 -4,0 C -3,3 C 92 % 1030,2 hPa 0,0 l/m 0,0 km/h (0 Bft) N 0 0 min 0,0 UV-I 0 W/m -5,1 C -4,0 C 0,0 km/h (0 Bft)
16.01.2021 06:40 -3,9 C -3,3 C 92 % 1030,1 hPa 0,0 l/m 0,0 km/h (0 Bft) N-NW 337 0 min 0,0 UV-I 0 W/m -5,0 C -3,9 C 1,6 km/h (1 Bft)
16.01.2021 06:41 -3,9 C -3,3 C 92 % 1030,1 hPa 0,0 l/m 0,0 km/h (0 Bft) N-NW 337 0 min 0,0 UV-I 0 W/m -5,0 C -3,9 C 1,6 km/h (1 Bft)
16.01.2021 06:42 -4,0 C -3,3 C 92 % 1030,1 hPa 0,0 l/m 0,0 km/h (0 Bft) N-NW 337 0 min 0,0 UV-I 0 W/m -5,1 C -4,0 C 1,6 km/h (1 Bft)
16.01.2021 06:43 -3,9 C -3,3 C 92 % 1030,1 hPa 0,0 l/m 0,0 km/h (0 Bft) N-NW 337 0 min 0,0 UV-I 0 W/m -5,0 C -3,9 C 1,6 km/h (1 Bft)
16.01.2021 06:44 -3,9 C -3,3 C 92 % 1030,1 hPa 0,0 l/m 0,0 km/h (0 Bft) N-NW 337 0 min 0,0 UV-I 0 W/m -5,0 C -3,9 C 1,6 km/h (1 Bft)
16.01.2021 06:45 -4,0 C -3,3 C 92 % 1030,1 hPa 0,0 l/m 0,0 km/h (0 Bft) N 0 0 min 0,0 UV-I 0 W/m -5,1 C -4,0 C 0,0 km/h (0 Bft)
16.01.2021 06:46 -4,0 C -3,3 C 92 % 1030,1 hPa 0,0 l/m 0,0 km/h (0 Bft) N-NW 337 0 min 0,0 UV-I 0 W/m -5,1 C -4,0 C 1,6 km/h (1 Bft)
16.01.2021 06:47 -3,9 C -3,3 C 92 % 1030,0 hPa 0,0 l/m 0,0 km/h (0 Bft) N-NW 337 0 min 0,0 UV-I 0 W/m -5,0 C -3,9 C 1,6 km/h (1 Bft)
16.01.2021 06:48 -3,9 C -3,3 C 92 % 1030,0 hPa 0,0 l/m 0,0 km/h (0 Bft) N 0 0 min 0,0 UV-I 0 W/m -5,0 C -3,9 C 0,0 km/h (0 Bft)
16.01.2021 06:49 -3,9 C -3,3 C 92 % 1030,0 hPa 0,0 l/m 0,0 km/h (0 Bft) N-NW 337 0 min 0,0 UV-I 0 W/m -5,0 C -3,9 C 1,6 km/h (1 Bft)
16.01.2021 06:50 -4,0 C -3,3 C 92 % 1030,0 hPa 0,0 l/m 1,6 km/h (1 Bft) N-NW 337 0 min 0,0 UV-I 0 W/m -5,1 C -4,0 C 3,2 km/h (1 Bft)
16.01.2021 06:51 -3,9 C -3,3 C 92 % 1030,0 hPa 0,0 l/m 1,6 km/h (1 Bft) N-NW 337 0 min 0,0 UV-I 0 W/m -5,0 C -3,9 C 3,2 km/h (1 Bft)
16.01.2021 06:52 -3,9 C -3,9 C 92 % 1030,0 hPa 0,0 l/m 1,6 km/h (1 Bft) N-NW 337 0 min 0,0 UV-I 0 W/m -5,0 C -3,9 C 3,2 km/h (1 Bft)
16.01.2021 06:53 -3,9 C -3,9 C 92 % 1030,0 hPa 0,0 l/m 1,6 km/h (1 Bft) N-NW 337 0 min 0,0 UV-I 0 W/m -5,0 C -3,9 C 1,6 km/h (1 Bft)
16.01.2021 06:54 -3,9 C -3,9 C 92 % 1030,0 hPa 0,0 l/m 0,0 km/h (0 Bft) N-NW 337 0 min 0,0 UV-I 0 W/m -5,0 C -3,9 C 1,6 km/h (1 Bft)
16.01.2021 06:55 -4,0 C -3,9 C 92 % 1029,9 hPa 0,0 l/m 0,0 km/h (0 Bft) N-NW 337 0 min 0,0 UV-I 0 W/m -5,1 C -4,0 C 1,6 km/h (1 Bft)
16.01.2021 06:56 -3,9 C -3,9 C 92 % 1029,9 hPa 0,0 l/m 1,6 km/h (1 Bft) N-NW 337 0 min 0,0 UV-I 0 W/m -5,0 C -3,9 C 1,6 km/h (1 Bft)
16.01.2021 06:57 -3,9 C -3,9 C 92 % 1029,9 hPa 0,0 l/m 1,6 km/h (1 Bft) N-NW 337 0 min 0,0 UV-I 0 W/m -5,0 C -3,9 C 3,2 km/h (1 Bft)
16.01.2021 06:58 -4,0 C -3,9 C 92 % 1030,0 hPa 0,0 l/m 1,6 km/h (1 Bft) N-NW 337 0 min 0,0 UV-I 0 W/m -5,1 C -4,0 C 1,6 km/h (1 Bft)
16.01.2021 06:59 -3,9 C -3,9 C 92 % 1030,0 hPa 0,0 l/m 1,6 km/h (1 Bft) N-NW 337 0 min 0,0 UV-I 0 W/m -5,0 C -3,9 C 3,2 km/h (1 Bft)
16.01.2021 07:00 -4,0 C -3,9 C 92 % 1029,9 hPa 0,0 l/m 1,6 km/h (1 Bft) N-NW 337 0 min 0,0 UV-I 0 W/m -5,1 C -4,0 C 3,2 km/h (1 Bft)
16.01.2021 07:01 -3,9 C -3,3 C 92 % 1029,9 hPa 0,0 l/m 1,6 km/h (1 Bft) N-NW 337 0 min 0,0 UV-I 0 W/m -5,0 C -3,9 C 3,2 km/h (1 Bft)
16.01.2021 07:02 -3,9 C -3,3 C 92 % 1029,9 hPa 0,0 l/m 0,0 km/h (0 Bft) N-NW 337 0 min 0,0 UV-I 0 W/m -5,0 C -3,9 C 1,6 km/h (1 Bft)
16.01.2021 07:03 -3,9 C -3,3 C 92 % 1029,9 hPa 0,0 l/m 0,0 km/h (0 Bft) N 0 0 min 0,0 UV-I 0 W/m -5,0 C -3,9 C 0,0 km/h (0 Bft)
16.01.2021 07:04 -4,0 C -3,3 C 92 % 1029,9 hPa 0,0 l/m 0,0 km/h (0 Bft) N 0 0 min 0,0 UV-I 0 W/m -5,1 C -4,0 C 0,0 km/h (0 Bft)
16.01.2021 07:05 -3,9 C -3,9 C 92 % 1029,9 hPa 0,0 l/m 1,6 km/h (1 Bft) N-NW 337 0 min 0,0 UV-I 0 W/m -5,0 C -3,9 C 1,6 km/h (1 Bft)
16.01.2021 07:06 -4,0 C -3,9 C 92 % 1029,8 hPa 0,0 l/m 1,6 km/h (1 Bft) N-NW 337 0 min 0,0 UV-I 0 W/m -5,1 C -4,0 C 3,2 km/h (1 Bft)
16.01.2021 07:07 -4,0 C -3,9 C 92 % 1029,9 hPa 0,0 l/m 1,6 km/h (1 Bft) N-NW 337 0 min 0,0 UV-I 0 W/m -5,1 C -4,0 C 3,2 km/h (1 Bft)
16.01.2021 07:08 -3,9 C -3,9 C 92 % 1029,9 hPa 0,0 l/m 1,6 km/h (1 Bft) N-NW 337 0 min 0,0 UV-I 0 W/m -5,0 C -3,9 C 3,2 km/h (1 Bft)
16.01.2021 07:09 -4,0 C -3,9 C 92 % 1029,9 hPa 0,0 l/m 1,6 km/h (1 Bft) N-NW 337 0 min 0,0 UV-I 0 W/m -5,1 C -4,0 C 1,6 km/h (1 Bft)
16.01.2021 07:10 -3,9 C -3,9 C 92 % 1029,9 hPa 0,0 l/m 1,6 km/h (1 Bft) N-NW 337 0 min 0,0 UV-I 0 W/m -5,0 C -3,9 C 1,6 km/h (1 Bft)
16.01.2021 07:11 -4,0 C -3,9 C 92 % 1029,8 hPa 0,0 l/m 1,6 km/h (1 Bft) N-NW 337 0 min 0,0 UV-I 0 W/m -5,1 C -4,0 C 1,6 km/h (1 Bft)
16.01.2021 07:12 -4,0 C -3,9 C 92 % 1029,8 hPa 0,0 l/m 1,6 km/h (1 Bft) N-NW 337 0 min 0,0 UV-I 0 W/m -5,1 C -4,0 C 1,6 km/h (1 Bft)
16.01.2021 07:13 -4,0 C -3,9 C 92 % 1029,9 hPa 0,0 l/m 1,6 km/h (1 Bft) N-NW 337 0 min 0,0 UV-I 0 W/m -5,1 C -4,0 C 3,2 km/h (1 Bft)
16.01.2021 07:14 -3,9 C -3,9 C 92 % 1029,9 hPa 0,0 l/m 1,6 km/h (1 Bft) N-NW 337 0 min 0,0 UV-I 0 W/m -5,0 C -3,9 C 3,2 km/h (1 Bft)
16.01.2021 07:15 -3,9 C -3,9 C 92 % 1029,8 hPa 0,0 l/m 1,6 km/h (1 Bft) N-NW 337 0 min 0,0 UV-I 0 W/m -5,0 C -3,9 C 1,6 km/h (1 Bft)
16.01.2021 07:16 -4,0 C -3,9 C 92 % 1029,9 hPa 0,0 l/m 0,0 km/h (0 Bft) N-NW 337 0 min 0,0 UV-I 0 W/m -5,1 C -4,0 C 1,6 km/h (1 Bft)
16.01.2021 07:17 -4,0 C -3,9 C 92 % 1029,8 hPa 0,0 l/m 0,0 km/h (0 Bft) N-NW 337 0 min 0,0 UV-I 0 W/m -5,1 C -4,0 C 1,6 km/h (1 Bft)
16.01.2021 07:18 -4,0 C -3,9 C 92 % 1029,8 hPa 0,0 l/m 0,0 km/h (0 Bft) N-NW 337 0 min 0,0 UV-I 0 W/m -5,1 C -4,0 C 1,6 km/h (1 Bft)
16.01.2021 07:19 -4,0 C -3,9 C 92 % 1029,9 hPa 0,0 l/m 0,0 km/h (0 Bft) N 0 0 min 0,0 UV-I 0 W/m -5,1 C -4,0 C 0,0 km/h (0 Bft)
16.01.2021 07:20 -3,9 C -3,3 C 92 % 1029,9 hPa 0,0 l/m 0,0 km/h (0 Bft) N 0 0 min 0,0 UV-I 0 W/m -5,0 C -3,9 C 0,0 km/h (0 Bft)
16.01.2021 07:21 -4,0 C -3,3 C 92 % 1029,9 hPa 0,0 l/m 0,0 km/h (0 Bft) N 0 0 min 0,0 UV-I 0 W/m -5,1 C -4,0 C 0,0 km/h (0 Bft)
16.01.2021 07:22 -4,0 C -3,3 C 92 % 1029,9 hPa 0,0 l/m 0,0 km/h (0 Bft) N 0 0 min 0,0 UV-I 0 W/m -5,1 C -4,0 C 0,0 km/h (0 Bft)
16.01.2021 07:23 -3,9 C -3,3 C 92 % 1030,0 hPa 0,0 l/m 0,0 km/h (0 Bft) N 0 0 min 0,0 UV-I 0 W/m -5,0 C -3,9 C 0,0 km/h (0 Bft)
16.01.2021 07:24 -3,9 C -3,9 C 92 % 1030,0 hPa 0,0 l/m 0,0 km/h (0 Bft) N 0 0 min 0,0 UV-I 0 W/m -5,0 C -3,9 C 0,0 km/h (0 Bft)
16.01.2021 07:25 -4,0 C -3,9 C 92 % 1029,9 hPa 0,0 l/m 0,0 km/h (0 Bft) N-NW 337 0 min 0,0 UV-I 0 W/m -5,1 C -4,0 C 1,6 km/h (1 Bft)
16.01.2021 07:26 -4,0 C -3,9 C 92 % 1029,9 hPa 0,0 l/m 0,0 km/h (0 Bft) N-NW 337 0 min 0,0 UV-I 0 W/m -5,1 C -4,0 C 1,6 km/h (1 Bft)
16.01.2021 07:27 -3,9 C -3,9 C 92 % 1029,9 hPa 0,0 l/m 0,0 km/h (0 Bft) N-NW 337 0 min 0,0 UV-I 0 W/m -5,0 C -3,9 C 1,6 km/h (1 Bft)
16.01.2021 07:28 -4,0 C -3,9 C 92 % 1029,9 hPa 0,0 l/m 0,0 km/h (0 Bft) N 0 0 min 0,0 UV-I 0 W/m -5,1 C -4,0 C 0,0 km/h (0 Bft)
16.01.2021 07:29 -3,9 C -3,9 C 92 % 1029,9 hPa 0,0 l/m 0,0 km/h (0 Bft) N 0 0 min 0,0 UV-I 0 W/m -5,0 C -3,9 C 0,0 km/h (0 Bft)
16.01.2021 07:30 -4,0 C -3,9 C 92 % 1029,8 hPa 0,0 l/m 0,0 km/h (0 Bft) N 0 0 min 0,0 UV-I 0 W/m -5,1 C -4,0 C 0,0 km/h (0 Bft)
16.01.2021 07:31 -3,9 C -3,9 C 92 % 1029,8 hPa 0,0 l/m 0,0 km/h (0 Bft) N 0 0 min 0,0 UV-I 0 W/m -5,0 C -3,9 C 0,0 km/h (0 Bft)
16.01.2021 07:32 -3,9 C -3,3 C 92 % 1029,9 hPa 0,0 l/m 0,0 km/h (0 Bft) N 0 0 min 0,0 UV-I 0 W/m -5,0 C -3,9 C 0,0 km/h (0 Bft)
16.01.2021 07:33 -4,0 C -3,3 C 92 % 1029,9 hPa 0,0 l/m 0,0 km/h (0 Bft) N 0 0 min 0,0 UV-I 0 W/m -5,1 C -4,0 C 0,0 km/h (0 Bft)
16.01.2021 07:34 -4,0 C -3,3 C 92 % 1029,9 hPa 0,0 l/m 0,0 km/h (0 Bft) N 0 0 min 0,0 UV-I 0 W/m -5,1 C -4,0 C 0,0 km/h (0 Bft)
16.01.2021 07:35 -4,0 C -3,3 C 92 % 1029,9 hPa 0,0 l/m 0,0 km/h (0 Bft) N 0 0 min 0,0 UV-I 0 W/m -5,1 C -4,0 C 0,0 km/h (0 Bft)
16.01.2021 07:36 -4,0 C -3,3 C 92 % 1029,8 hPa 0,0 l/m 0,0 km/h (0 Bft) N 0 0 min 0,0 UV-I 0 W/m -5,1 C -4,0 C 0,0 km/h (0 Bft)
16.01.2021 07:37 -4,0 C -3,3 C 92 % 1029,9 hPa 0,0 l/m 0,0 km/h (0 Bft) N 0 0 min 0,0 UV-I 0 W/m -5,1 C -4,0 C 0,0 km/h (0 Bft)
16.01.2021 07:38 -3,9 C -3,3 C 92 % 1029,9 hPa 0,0 l/m 0,0 km/h (0 Bft) N-NW 337 0 min 0,0 UV-I 0 W/m -5,0 C -3,9 C 1,6 km/h (1 Bft)
16.01.2021 07:39 -3,9 C -3,3 C 92 % 1029,8 hPa 0,0 l/m 0,0 km/h (0 Bft) N-NW 337 0 min 0,0 UV-I 0 W/m -5,0 C -3,9 C 1,6 km/h (1 Bft)
16.01.2021 07:40 -4,0 C -3,3 C 92 % 1029,9 hPa 0,0 l/m 0,0 km/h (0 Bft) N-NW 337 0 min 0,0 UV-I 0 W/m -5,1 C -4,0 C 1,6 km/h (1 Bft)
16.01.2021 07:41 -4,0 C -3,3 C 92 % 1029,9 hPa 0,0 l/m 1,6 km/h (1 Bft) N-NW 337 0 min 0,0 UV-I 0 W/m -5,1 C -4,0 C 3,2 km/h (1 Bft)
16.01.2021 07:42 -4,0 C -3,9 C 92 % 1029,8 hPa 0,0 l/m 1,6 km/h (1 Bft) N-NW 337 0 min 0,0 UV-I 0 W/m -5,1 C -4,0 C 3,2 km/h (1 Bft)
16.01.2021 07:43 -3,9 C -3,9 C 92 % 1029,8 hPa 0,0 l/m 1,6 km/h (1 Bft) N-NW 337 0 min 0,0 UV-I 0 W/m -5,0 C -3,9 C 3,2 km/h (1 Bft)
16.01.2021 07:44 -4,0 C -3,9 C 92 % 1029,8 hPa 0,0 l/m 1,6 km/h (1 Bft) N-NW 337 0 min 0,0 UV-I 0 W/m -5,1 C -4,0 C 3,2 km/h (1 Bft)
16.01.2021 07:45 -3,9 C -3,9 C 92 % 1029,8 hPa 0,0 l/m 1,6 km/h (1 Bft) N-NW 337 0 min 0,0 UV-I 0 W/m -5,0 C -3,9 C 1,6 km/h (1 Bft)
16.01.2021 07:46 -4,0 C -3,9 C 92 % 1029,8 hPa 0,0 l/m 1,6 km/h (1 Bft) N-NW 337 0 min 0,0 UV-I 0 W/m -5,1 C -4,0 C 1,6 km/h (1 Bft)
16.01.2021 07:47 -3,9 C -3,9 C 92 % 1029,8 hPa 0,0 l/m 0,0 km/h (0 Bft) N-NW 337 0 min 0,0 UV-I 0 W/m -5,0 C -3,9 C 1,6 km/h (1 Bft)
16.01.2021 07:48 -3,9 C -3,9 C 92 % 1029,8 hPa 0,0 l/m 0,0 km/h (0 Bft) N-NW 337 0 min 0,0 UV-I 0 W/m -5,0 C -3,9 C 1,6 km/h (1 Bft)
16.01.2021 07:49 -4,0 C -3,9 C 92 % 1029,8 hPa 0,0 l/m 0,0 km/h (0 Bft) N 0 0 min 0,0 UV-I 0 W/m -5,1 C -4,0 C 0,0 km/h (0 Bft)
16.01.2021 07:50 -4,0 C -3,9 C 92 % 1029,8 hPa 0,0 l/m 0,0 km/h (0 Bft) N 0 0 min 0,0 UV-I 0 W/m -5,1 C -4,0 C 0,0 km/h (0 Bft)
16.01.2021 07:51 -4,0 C -3,9 C 92 % 1029,8 hPa 0,0 l/m 0,0 km/h (0 Bft) N-NW 337 0 min 0,0 UV-I 0 W/m -5,1 C -4,0 C 1,6 km/h (1 Bft)
16.01.2021 07:52 -4,0 C -3,9 C 92 % 1029,8 hPa 0,0 l/m 0,0 km/h (0 Bft) N-NW 337 0 min 0,0 UV-I 0 W/m -5,1 C -4,0 C 1,6 km/h (1 Bft)
16.01.2021 07:53 -4,0 C -3,9 C 92 % 1029,8 hPa 0,0 l/m 1,6 km/h (1 Bft) N-NW 337 0 min 0,0 UV-I 0 W/m -5,1 C -4,0 C 3,2 km/h (1 Bft)
16.01.2021 07:54 -4,0 C -3,9 C 92 % 1029,8 hPa 0,0 l/m 1,6 km/h (1 Bft) N-NW 337 0 min 0,0 UV-I 0 W/m -5,1 C -4,0 C 1,6 km/h (1 Bft)
16.01.2021 07:55 -4,0 C -3,9 C 92 % 1029,8 hPa 0,0 l/m 3,2 km/h (1 Bft) N-NW 337 0 min 0,0 UV-I 0 W/m -5,1 C -4,0 C 3,2 km/h (1 Bft)
16.01.2021 07:56 -4,0 C -3,9 C 92 % 1029,8 hPa 0,0 l/m 1,6 km/h (1 Bft) N-NW 337 0 min 0,0 UV-I 0 W/m -5,1 C -4,0 C 3,2 km/h (1 Bft)
16.01.2021 07:57 -4,0 C -3,9 C 92 % 1029,8 hPa 0,0 l/m 3,2 km/h (1 Bft) N-NW 337 0 min 0,0 UV-I 0 W/m -5,1 C -4,0 C 4,8 km/h (1 Bft)
16.01.2021 07:58 -4,0 C -3,9 C 92 % 1029,8 hPa 0,0 l/m 3,2 km/h (1 Bft) N-NW 337 0 min 0,0 UV-I 0 W/m -5,1 C -4,0 C 4,8 km/h (1 Bft)
16.01.2021 07:59 -3,9 C -3,9 C 92 % 1029,8 hPa 0,0 l/m 3,2 km/h (1 Bft) N-NW 337 0 min 0,0 UV-I 0 W/m -5,0 C -3,9 C 3,2 km/h (1 Bft)
16.01.2021 08:00 -4,0 C -3,9 C 92 % 1029,8 hPa 0,0 l/m 3,2 km/h (1 Bft) N-NW 337 0 min 0,0 UV-I 0 W/m -5,1 C -4,0 C 4,8 km/h (1 Bft)
16.01.2021 08:01 -4,0 C -3,9 C 92 % 1029,8 hPa 0,0 l/m 1,6 km/h (1 Bft) N-NW 337 0 min 0,0 UV-I 0 W/m -5,1 C -4,0 C 3,2 km/h (1 Bft)
16.01.2021 08:02 -4,0 C -3,9 C 92 % 1029,8 hPa 0,0 l/m 1,6 km/h (1 Bft) N-NW 337 0 min 0,0 UV-I 0 W/m -5,1 C -4,0 C 3,2 km/h (1 Bft)
16.01.2021 08:03 -3,9 C -3,9 C 92 % 1029,8 hPa 0,0 l/m 0,0 km/h (0 Bft) N-NW 337 0 min 0,0 UV-I 0 W/m -5,0 C -3,9 C 1,6 km/h (1 Bft)
16.01.2021 08:04 -4,0 C -3,3 C 92 % 1029,8 hPa 0,0 l/m 0,0 km/h (0 Bft) N 0 0 min 0,0 UV-I 0 W/m -5,1 C -4,0 C 0,0 km/h (0 Bft)
16.01.2021 08:05 -4,0 C -3,3 C 92 % 1029,8 hPa 0,0 l/m 0,0 km/h (0 Bft) N 0 0 min 0,0 UV-I 0 W/m -5,1 C -4,0 C 0,0 km/h (0 Bft)
16.01.2021 08:06 -3,9 C -3,3 C 92 % 1029,8 hPa 0,0 l/m 0,0 km/h (0 Bft) N 0 0 min 0,0 UV-I 0 W/m -5,0 C -3,9 C 0,0 km/h (0 Bft)
16.01.2021 08:07 -3,9 C -3,3 C 92 % 1029,8 hPa 0,0 l/m 1,6 km/h (1 Bft) N-NW 337 0 min 0,0 UV-I 0 W/m -5,0 C -3,9 C 1,6 km/h (1 Bft)
16.01.2021 08:08 -3,9 C -3,3 C 92 % 1029,8 hPa 0,0 l/m 1,6 km/h (1 Bft) N-NW 337 0 min 0,0 UV-I 0 W/m -5,0 C -3,9 C 3,2 km/h (1 Bft)
16.01.2021 08:09 -3,9 C -3,3 C 92 % 1029,8 hPa 0,0 l/m 1,6 km/h (1 Bft) N-NW 337 0 min 0,0 UV-I 0 W/m -5,0 C -3,9 C 3,2 km/h (1 Bft)
16.01.2021 08:10 -4,0 C -3,9 C 92 % 1029,8 hPa 0,0 l/m 1,6 km/h (1 Bft) N-NW 337 0 min 0,0 UV-I 0 W/m -5,1 C -4,0 C 1,6 km/h (1 Bft)
16.01.2021 08:11 -3,9 C -3,9 C 92 % 1029,8 hPa 0,0 l/m 0,0 km/h (0 Bft) N-NW 337 0 min 0,0 UV-I 0 W/m -5,0 C -3,9 C 1,6 km/h (1 Bft)
16.01.2021 08:12 -3,9 C -3,9 C 92 % 1029,8 hPa 0,0 l/m 1,6 km/h (1 Bft) N-NW 337 0 min 0,0 UV-I 0 W/m -5,0 C -3,9 C 1,6 km/h (1 Bft)
16.01.2021 08:13 -3,9 C -3,9 C 92 % 1029,7 hPa 0,0 l/m 1,6 km/h (1 Bft) N-NW 337 0 min 0,0 UV-I 0 W/m -5,0 C -3,9 C 3,2 km/h (1 Bft)
16.01.2021 08:14 -4,0 C -3,9 C 92 % 1029,7 hPa 0,0 l/m 1,6 km/h (1 Bft) N-NW 337 0 min 0,0 UV-I 0 W/m -5,1 C -4,0 C 3,2 km/h (1 Bft)
16.01.2021 08:15 -3,9 C -3,9 C 92 % 1029,7 hPa 0,0 l/m 3,2 km/h (1 Bft) N-NW 337 0 min 0,0 UV-I 0 W/m -5,0 C -3,9 C 3,2 km/h (1 Bft)
16.01.2021 08:16 -4,0 C -3,9 C 92 % 1029,6 hPa 0,0 l/m 3,2 km/h (1 Bft) N-NW 337 0 min 0,0 UV-I 0 W/m -5,1 C -4,0 C 3,2 km/h (1 Bft)
16.01.2021 08:17 -4,0 C -3,9 C 92 % 1029,6 hPa 0,0 l/m 3,2 km/h (1 Bft) N-NW 337 0 min 0,0 UV-I 0 W/m -5,1 C -4,0 C 3,2 km/h (1 Bft)
16.01.2021 08:18 -4,0 C -3,9 C 92 % 1029,6 hPa 0,0 l/m 1,6 km/h (1 Bft) N-NW 337 0 min 0,0 UV-I 0 W/m -5,1 C -4,0 C 3,2 km/h (1 Bft)
16.01.2021 08:19 -3,9 C -3,9 C 92 % 1029,6 hPa 0,0 l/m 3,2 km/h (1 Bft) N-NW 337 0 min 0,0 UV-I 0 W/m -5,0 C -3,9 C 3,2 km/h (1 Bft)
16.01.2021 08:20 -3,9 C -3,9 C 92 % 1029,7 hPa 0,0 l/m 1,6 km/h (1 Bft) N-NW 337 0 min 0,0 UV-I 0 W/m -5,0 C -3,9 C 3,2 km/h (1 Bft)
16.01.2021 08:21 -3,9 C -3,9 C 92 % 1029,7 hPa 0,0 l/m 0,0 km/h (0 Bft) N-NW 337 0 min 0,0 UV-I 0 W/m -5,0 C -3,9 C 3,2 km/h (1 Bft)
16.01.2021 08:22 -3,9 C -3,9 C 92 % 1029,7 hPa 0,0 l/m 0,0 km/h (0 Bft) N-NW 337 0 min 0,0 UV-I 0 W/m -5,0 C -3,9 C 1,6 km/h (1 Bft)
16.01.2021 08:23 -4,0 C -3,9 C 92 % 1029,6 hPa 0,0 l/m 0,0 km/h (0 Bft) N 0 0 min 0,0 UV-I 0 W/m -5,1 C -4,0 C 0,0 km/h (0 Bft)
16.01.2021 08:24 -3,9 C -3,3 C 92 % 1029,8 hPa 0,0 l/m 0,0 km/h (0 Bft) N 0 0 min 0,0 UV-I 0 W/m -5,0 C -3,9 C 0,0 km/h (0 Bft)
16.01.2021 08:25 -3,9 C -3,3 C 92 % 1029,8 hPa 0,0 l/m 0,0 km/h (0 Bft) N 0 0 min 0,0 UV-I 0 W/m -5,0 C -3,9 C 0,0 km/h (0 Bft)
16.01.2021 08:26 -3,9 C -3,3 C 92 % 1029,8 hPa 0,0 l/m 0,0 km/h (0 Bft) N 0 0 min 0,0 UV-I 0 W/m -5,0 C -3,9 C 0,0 km/h (0 Bft)
16.01.2021 08:27 -3,9 C -3,3 C 92 % 1029,8 hPa 0,0 l/m 0,0 km/h (0 Bft) N 0 0 min 0,0 UV-I 0 W/m -5,0 C -3,9 C 0,0 km/h (0 Bft)
16.01.2021 08:28 -3,9 C -3,3 C 93 % 1029,8 hPa 0,0 l/m 0,0 km/h (0 Bft) N-NW 337 0 min 0,0 UV-I 0 W/m -4,9 C -3,9 C 1,6 km/h (1 Bft)
16.01.2021 08:29 -3,9 C -3,3 C 93 % 1029,8 hPa 0,0 l/m 1,6 km/h (1 Bft) N-NW 337 0 min 0,0 UV-I 0 W/m -4,9 C -3,9 C 1,6 km/h (1 Bft)
16.01.2021 08:30 -3,9 C -3,3 C 93 % 1029,8 hPa 0,0 l/m 1,6 km/h (1 Bft) N-NW 337 0 min 0,0 UV-I 0 W/m -4,9 C -3,9 C 1,6 km/h (1 Bft)
16.01.2021 08:31 -3,9 C -3,3 C 93 % 1029,8 hPa 0,0 l/m 0,0 km/h (0 Bft) N-NW 337 0 min 0,0 UV-I 0 W/m -4,9 C -3,9 C 1,6 km/h (1 Bft)
16.01.2021 08:32 -3,9 C -3,3 C 93 % 1029,8 hPa 0,0 l/m 0,0 km/h (0 Bft) N 0 0 min 0,0 UV-I 0 W/m -4,9 C -3,9 C 0,0 km/h (0 Bft)
16.01.2021 08:33 -3,9 C -3,3 C 93 % 1029,7 hPa 0,0 l/m 0,0 km/h (0 Bft) N-NW 337 0 min 0,0 UV-I 5 W/m -4,9 C -3,9 C 1,6 km/h (1 Bft)
16.01.2021 08:34 -3,9 C -3,3 C 93 % 1029,8 hPa 0,0 l/m 1,6 km/h (1 Bft) N-NW 337 0 min 0,0 UV-I 5 W/m -4,9 C -3,9 C 1,6 km/h (1 Bft)
16.01.2021 08:35 -3,9 C -3,3 C 92 % 1029,6 hPa 0,0 l/m 1,6 km/h (1 Bft) N-NW 337 0 min 0,0 UV-I 5 W/m -5,0 C -3,9 C 3,2 km/h (1 Bft)
16.01.2021 08:36 -3,9 C -3,3 C 93 % 1029,6 hPa 0,0 l/m 3,2 km/h (1 Bft) N-NW 337 0 min 0,0 UV-I 5 W/m -4,9 C -3,9 C 3,2 km/h (1 Bft)
16.01.2021 08:37 -3,9 C -3,3 C 93 % 1029,7 hPa 0,0 l/m 3,2 km/h (1 Bft) N-NW 337 0 min 0,0 UV-I 7 W/m -4,9 C -3,9 C 4,8 km/h (1 Bft)
16.01.2021 08:38 -3,9 C -3,3 C 93 % 1029,7 hPa 0,0 l/m 3,2 km/h (1 Bft) N-NW 337 0 min 0,0 UV-I 7 W/m -4,9 C -3,9 C 4,8 km/h (1 Bft)
16.01.2021 08:39 -3,9 C -3,9 C 93 % 1029,8 hPa 0,0 l/m 3,2 km/h (1 Bft) N-NW 337 0 min 0,0 UV-I 7 W/m -4,9 C -3,9 C 4,8 km/h (1 Bft)
16.01.2021 08:40 -3,9 C -3,9 C 93 % 1029,6 hPa 0,0 l/m 3,2 km/h (1 Bft) N-NW 337 0 min 0,0 UV-I 9 W/m -4,9 C -3,9 C 4,8 km/h (1 Bft)
16.01.2021 08:41 -3,9 C -3,9 C 93 % 1029,8 hPa 0,0 l/m 4,8 km/h (1 Bft) N-NW 337 0 min 0,0 UV-I 9 W/m -4,9 C -3,9 C 4,8 km/h (1 Bft)
16.01.2021 08:42 -3,9 C -3,9 C 93 % 1029,6 hPa 0,0 l/m 3,2 km/h (1 Bft) N-NW 337 0 min 0,0 UV-I 11 W/m -4,9 C -3,9 C 4,8 km/h (1 Bft)
16.01.2021 08:43 -3,9 C -3,9 C 93 % 1029,7 hPa 0,0 l/m 4,8 km/h (1 Bft) N-NW 337 0 min 0,0 UV-I 11 W/m -4,9 C -3,9 C 4,8 km/h (1 Bft)
16.01.2021 08:44 -3,9 C -3,9 C 92 % 1029,8 hPa 0,0 l/m 3,2 km/h (1 Bft) N-NW 337 0 min 0,0 UV-I 12 W/m -5,0 C -3,9 C 4,8 km/h (1 Bft)
16.01.2021 08:45 -3,9 C -3,9 C 92 % 1029,7 hPa 0,0 l/m 4,8 km/h (1 Bft) S-SW 202 0 min 0,0 UV-I 12 W/m -5,0 C -3,9 C 6,4 km/h (2 Bft)
16.01.2021 08:46 -3,9 C -3,9 C 92 % 1029,7 hPa 0,0 l/m 4,8 km/h (1 Bft) S-SW 202 0 min 0,0 UV-I 12 W/m -5,0 C -3,9 C 6,4 km/h (2 Bft)
16.01.2021 08:47 -3,8 C -3,9 C 92 % 1029,6 hPa 0,0 l/m 3,2 km/h (1 Bft) S-SW 202 0 min 0,0 UV-I 14 W/m -4,9 C -3,8 C 4,8 km/h (1 Bft)
16.01.2021 08:48 -3,8 C -3,9 C 93 % 1029,6 hPa 0,0 l/m 4,8 km/h (1 Bft) S-SO 157 0 min 0,0 UV-I 14 W/m -4,8 C -3,8 C 6,4 km/h (2 Bft)
16.01.2021 08:49 -3,8 C -3,9 C 92 % 1029,7 hPa 0,0 l/m 4,8 km/h (1 Bft) S-SO 157 0 min 0,0 UV-I 16 W/m -4,9 C -3,8 C 6,4 km/h (2 Bft)
16.01.2021 08:50 -3,8 C -3,9 C 92 % 1029,6 hPa 0,0 l/m 4,8 km/h (1 Bft) S-SO 157 0 min 0,0 UV-I 17 W/m -4,9 C -3,8 C 4,8 km/h (1 Bft)
16.01.2021 08:51 -3,8 C -3,9 C 93 % 1029,7 hPa 0,0 l/m 4,8 km/h (1 Bft) S-SO 157 0 min 0,0 UV-I 18 W/m -4,8 C -3,8 C 6,4 km/h (2 Bft)
16.01.2021 08:52 -3,8 C -3,9 C 93 % 1029,7 hPa 0,0 l/m 3,2 km/h (1 Bft) S-SO 157 0 min 0,0 UV-I 18 W/m -4,8 C -3,8 C 4,8 km/h (1 Bft)
16.01.2021 08:53 -3,8 C -3,9 C 92 % 1029,7 hPa 0,0 l/m 4,8 km/h (1 Bft) S-SO 157 0 min 0,0 UV-I 18 W/m -4,9 C -3,8 C 6,4 km/h (2 Bft)
16.01.2021 08:54 -3,8 C -3,9 C 93 % 1029,7 hPa 0,0 l/m 4,8 km/h (1 Bft) S 180 0 min 0,0 UV-I 19 W/m -4,8 C -3,8 C 8,0 km/h (2 Bft)
16.01.2021 08:55 -3,8 C -3,9 C 92 % 1029,7 hPa 0,0 l/m 4,8 km/h (1 Bft) S 180 0 min 0,0 UV-I 19 W/m -4,9 C -3,8 C 4,8 km/h (1 Bft)
16.01.2021 08:56 -3,8 C -3,9 C 92 % 1029,6 hPa 0,0 l/m 3,2 km/h (1 Bft) S 180 0 min 0,0 UV-I 20 W/m -4,9 C -3,8 C 4,8 km/h (1 Bft)
16.01.2021 08:57 -3,8 C -3,9 C 93 % 1029,8 hPa 0,0 l/m 4,8 km/h (1 Bft) S 180 0 min 0,0 UV-I 21 W/m -4,8 C -3,8 C 4,8 km/h (1 Bft)
16.01.2021 08:58 -3,8 C -3,3 C 93 % 1029,8 hPa 0,0 l/m 3,2 km/h (1 Bft) S 180 0 min 0,0 UV-I 21 W/m -4,8 C -3,8 C 4,8 km/h (1 Bft)
16.01.2021 08:59 -3,8 C -3,3 C 92 % 1029,7 hPa 0,0 l/m 3,2 km/h (1 Bft) S 180 0 min 0,0 UV-I 21 W/m -4,9 C -3,8 C 4,8 km/h (1 Bft)
16.01.2021 09:00 -3,7 C -3,3 C 92 % 1029,8 hPa 0,0 l/m 3,2 km/h (1 Bft) S 180 0 min 0,0 UV-I 21 W/m -4,8 C -3,7 C 4,8 km/h (1 Bft)
16.01.2021 09:01 -3,8 C -3,3 C 92 % 1029,8 hPa 0,0 l/m 3,2 km/h (1 Bft) S 180 0 min 0,0 UV-I 21 W/m -4,9 C -3,8 C 4,8 km/h (1 Bft)
16.01.2021 09:02 -3,7 C -3,3 C 92 % 1029,8 hPa 0,0 l/m 1,6 km/h (1 Bft) S 180 0 min 0,0 UV-I 23 W/m -4,8 C -3,7 C 3,2 km/h (1 Bft)
16.01.2021 09:03 -3,7 C -3,3 C 92 % 1029,7 hPa 0,0 l/m 3,2 km/h (1 Bft) S 180 0 min 0,0 UV-I 23 W/m -4,8 C -3,7 C 4,8 km/h (1 Bft)
16.01.2021 09:04 -3,7 C -3,3 C 92 % 1029,6 hPa 0,0 l/m 1,6 km/h (1 Bft) S 180 0 min 0,0 UV-I 25 W/m -4,8 C -3,7 C 3,2 km/h (1 Bft)
16.01.2021 09:05 -3,7 C -3,3 C 92 % 1029,7 hPa 0,0 l/m 1,6 km/h (1 Bft) S 180 0 min 0,0 UV-I 25 W/m -4,8 C -3,7 C 3,2 km/h (1 Bft)
16.01.2021 09:06 -3,7 C -3,3 C 93 % 1029,6 hPa 0,0 l/m 1,6 km/h (1 Bft) S 180 0 min 0,0 UV-I 25 W/m -4,7 C -3,7 C 3,2 km/h (1 Bft)
16.01.2021 09:07 -3,7 C -3,3 C 92 % 1029,6 hPa 0,0 l/m 1,6 km/h (1 Bft) S 180 0 min 0,0 UV-I 26 W/m -4,8 C -3,7 C 3,2 km/h (1 Bft)
16.01.2021 09:08 -3,7 C -3,3 C 93 % 1029,7 hPa 0,0 l/m 1,6 km/h (1 Bft) S 180 0 min 0,0 UV-I 26 W/m -4,7 C -3,7 C 3,2 km/h (1 Bft)
16.01.2021 09:09 -3,7 C -3,3 C 93 % 1029,6 hPa 0,0 l/m 0,0 km/h (0 Bft) N 0 0 min 0,0 UV-I 28 W/m -4,7 C -3,7 C 0,0 km/h (0 Bft)
16.01.2021 09:10 -3,7 C -3,3 C 93 % 1029,7 hPa 0,0 l/m 0,0 km/h (0 Bft) N 0 0 min 0,0 UV-I 28 W/m -4,7 C -3,7 C 0,0 km/h (0 Bft)
16.01.2021 09:11 -3,7 C -3,3 C 93 % 1029,6 hPa 0,0 l/m 0,0 km/h (0 Bft) N 0 0 min 0,0 UV-I 30 W/m -4,7 C -3,7 C 0,0 km/h (0 Bft)
16.01.2021 09:12 -3,7 C -3,3 C 93 % 1029,6 hPa 0,0 l/m 0,0 km/h (0 Bft) N 0 0 min 0,0 UV-I 28 W/m -4,7 C -3,7 C 0,0 km/h (0 Bft)
16.01.2021 09:13 -3,7 C -3,3 C 93 % 1029,6 hPa 0,0 l/m 0,0 km/h (0 Bft) N 0 0 min 0,0 UV-I 28 W/m -4,7 C -3,7 C 0,0 km/h (0 Bft)
16.01.2021 09:14 -3,7 C -2,8 C 93 % 1029,5 hPa 0,0 l/m 0,0 km/h (0 Bft) N 0 0 min 0,0 UV-I 28 W/m -4,7 C -3,7 C 0,0 km/h (0 Bft)
16.01.2021 09:15 -3,7 C -3,3 C 93 % 1029,6 hPa 0,0 l/m 0,0 km/h (0 Bft) N 0 0 min 0,0 UV-I 30 W/m -4,7 C -3,7 C 0,0 km/h (0 Bft)
16.01.2021 09:16 -3,6 C -2,8 C 93 % 1029,5 hPa 0,0 l/m 0,0 km/h (0 Bft) N 0 0 min 0,0 UV-I 30 W/m -4,6 C -3,6 C 0,0 km/h (0 Bft)
16.01.2021 09:17 -3,6 C -2,8 C 93 % 1029,6 hPa 0,0 l/m 0,0 km/h (0 Bft) N 0 0 min 0,0 UV-I 30 W/m -4,6 C -3,6 C 0,0 km/h (0 Bft)
16.01.2021 09:18 -3,6 C -2,8 C 93 % 1029,5 hPa 0,0 l/m 0,0 km/h (0 Bft) N 0 0 min 0,0 UV-I 30 W/m -4,6 C -3,6 C 0,0 km/h (0 Bft)
16.01.2021 09:19 -3,6 C -2,8 C 93 % 1029,6 hPa 0,0 l/m 0,0 km/h (0 Bft) N 0 0 min 0,0 UV-I 30 W/m -4,6 C -3,6 C 0,0 km/h (0 Bft)
16.01.2021 09:20 -3,6 C -2,8 C 93 % 1029,5 hPa 0,0 l/m 0,0 km/h (0 Bft) N 0 0 min 0,0 UV-I 30 W/m -4,6 C -3,6 C 0,0 km/h (0 Bft)
16.01.2021 09:21 -3,6 C -2,8 C 93 % 1029,5 hPa 0,0 l/m 0,0 km/h (0 Bft) N 0 0 min 0,0 UV-I 30 W/m -4,6 C -3,6 C 0,0 km/h (0 Bft)
16.01.2021 09:22 -3,6 C -2,8 C 93 % 1029,5 hPa 0,0 l/m 0,0 km/h (0 Bft) N 0 0 min 0,0 UV-I 30 W/m -4,6 C -3,6 C 0,0 km/h (0 Bft)
16.01.2021 09:23 -3,6 C -2,8 C 92 % 1029,5 hPa 0,0 l/m 0,0 km/h (0 Bft) N 0 0 min 0,0 UV-I 28 W/m -4,7 C -3,6 C 0,0 km/h (0 Bft)
16.01.2021 09:24 -3,6 C -2,8 C 92 % 1029,5 hPa 0,0 l/m 0,0 km/h (0 Bft) N 0 0 min 0,0 UV-I 28 W/m -4,7 C -3,6 C 0,0 km/h (0 Bft)
16.01.2021 09:25 -3,6 C -2,8 C 92 % 1029,5 hPa 0,0 l/m 0,0 km/h (0 Bft) N 0 0 min 0,0 UV-I 28 W/m -4,7 C -3,6 C 0,0 km/h (0 Bft)
16.01.2021 09:26 -3,6 C -2,8 C 93 % 1029,4 hPa 0,0 l/m 0,0 km/h (0 Bft) N 0 0 min 0,0 UV-I 28 W/m -4,6 C -3,6 C 0,0 km/h (0 Bft)
16.01.2021 09:27 -3,5 C -2,8 C 92 % 1029,5 hPa 0,0 l/m 0,0 km/h (0 Bft) N 0 0 min 0,0 UV-I 30 W/m -4,6 C -3,5 C 0,0 km/h (0 Bft)
16.01.2021 09:28 -3,5 C -2,8 C 92 % 1029,5 hPa 0,0 l/m 0,0 km/h (0 Bft) N 0 0 min 0,0 UV-I 30 W/m -4,6 C -3,5 C 0,0 km/h (0 Bft)
16.01.2021 09:29 -3,6 C -2,8 C 92 % 1029,5 hPa 0,0 l/m 0,0 km/h (0 Bft) N 0 0 min 0,0 UV-I 30 W/m -4,7 C -3,6 C 0,0 km/h (0 Bft)
16.01.2021 09:30 -3,5 C -2,8 C 92 % 1029,5 hPa 0,0 l/m 0,0 km/h (0 Bft) N 0 0 min 0,0 UV-I 32 W/m -4,6 C -3,5 C 0,0 km/h (0 Bft)
16.01.2021 09:31 -3,5 C -2,8 C 92 % 1029,5 hPa 0,0 l/m 0,0 km/h (0 Bft) N 0 0 min 0,0 UV-I 32 W/m -4,6 C -3,5 C 0,0 km/h (0 Bft)
16.01.2021 09:32 -3,5 C -2,8 C 92 % 1029,4 hPa 0,0 l/m 0,0 km/h (0 Bft) N 0 0 min 0,0 UV-I 30 W/m -4,6 C -3,5 C 0,0 km/h (0 Bft)
16.01.2021 09:33 -3,4 C -2,8 C 92 % 1029,4 hPa 0,0 l/m 1,6 km/h (1 Bft) S 180 0 min 0,0 UV-I 30 W/m -4,5 C -3,4 C 3,2 km/h (1 Bft)
16.01.2021 09:34 -3,4 C -2,8 C 93 % 1029,4 hPa 0,0 l/m 1,6 km/h (1 Bft) S 180 0 min 0,0 UV-I 30 W/m -4,4 C -3,4 C 3,2 km/h (1 Bft)
16.01.2021 09:35 -3,4 C -2,8 C 92 % 1029,3 hPa 0,0 l/m 1,6 km/h (1 Bft) S 180 0 min 0,0 UV-I 30 W/m -4,5 C -3,4 C 1,6 km/h (1 Bft)
16.01.2021 09:36 -3,4 C -2,8 C 92 % 1029,4 hPa 0,0 l/m 0,0 km/h (0 Bft) S 180 0 min 0,0 UV-I 32 W/m -4,5 C -3,4 C 1,6 km/h (1 Bft)
16.01.2021 09:37 -3,4 C -2,8 C 92 % 1029,3 hPa 0,0 l/m 1,6 km/h (1 Bft) S 180 0 min 0,0 UV-I 34 W/m -4,5 C -3,4 C 3,2 km/h (1 Bft)
16.01.2021 09:38 -3,4 C -2,8 C 92 % 1029,3 hPa 0,0 l/m 1,6 km/h (1 Bft) S 180 0 min 0,0 UV-I 37 W/m -4,5 C -3,4 C 3,2 km/h (1 Bft)
16.01.2021 09:39 -3,4 C -2,8 C 92 % 1029,2 hPa 0,0 l/m 1,6 km/h (1 Bft) S 180 0 min 0,0 UV-I 37 W/m -4,5 C -3,4 C 1,6 km/h (1 Bft)
16.01.2021 09:40 -3,4 C -2,8 C 92 % 1029,3 hPa 0,0 l/m 1,6 km/h (1 Bft) S 180 0 min 0,0 UV-I 39 W/m -4,5 C -3,4 C 1,6 km/h (1 Bft)
16.01.2021 09:41 -3,4 C -2,8 C 92 % 1029,3 hPa 0,0 l/m 0,0 km/h (0 Bft) S 180 0 min 0,0 UV-I 40 W/m -4,5 C -3,4 C 1,6 km/h (1 Bft)
16.01.2021 09:42 -3,4 C -2,8 C 92 % 1029,3 hPa 0,0 l/m 1,6 km/h (1 Bft) S 180 0 min 0,0 UV-I 42 W/m -4,5 C -3,4 C 3,2 km/h (1 Bft)
16.01.2021 09:43 -3,4 C -2,8 C 92 % 1029,3 hPa 0,0 l/m 1,6 km/h (1 Bft) S 180 0 min 0,0 UV-I 42 W/m -4,5 C -3,4 C 3,2 km/h (1 Bft)
16.01.2021 09:44 -3,3 C -2,8 C 92 % 1029,3 hPa 0,0 l/m 1,6 km/h (1 Bft) S 180 0 min 0,0 UV-I 44 W/m -4,4 C -3,3 C 3,2 km/h (1 Bft)
16.01.2021 09:45 -3,3 C -2,8 C 92 % 1029,2 hPa 0,0 l/m 1,6 km/h (1 Bft) S 180 0 min 0,0 UV-I 46 W/m -4,4 C -3,3 C 3,2 km/h (1 Bft)
16.01.2021 09:46 -3,3 C -2,8 C 92 % 1029,3 hPa 0,0 l/m 1,6 km/h (1 Bft) S 180 0 min 0,0 UV-I 47 W/m -4,4 C -3,3 C 3,2 km/h (1 Bft)
16.01.2021 09:47 -3,3 C -2,8 C 92 % 1029,2 hPa 0,0 l/m 3,2 km/h (1 Bft) S 180 0 min 0,0 UV-I 47 W/m -4,4 C -3,3 C 3,2 km/h (1 Bft)
16.01.2021 09:48 -3,3 C -2,8 C 92 % 1029,2 hPa 0,0 l/m 3,2 km/h (1 Bft) S 180 0 min 0,0 UV-I 50 W/m -4,4 C -3,3 C 3,2 km/h (1 Bft)
16.01.2021 09:54 -3,2 C -2,8 C 92 % 1029,1 hPa 0,0 l/m 2,8 km/h (1 Bft) S 184 0 min 0,0 UV-I 57 W/m -4,3 C -3,2 C 4,8 km/h (1 Bft)
16.01.2021 09:56 -3,2 C -2,8 C 92 % 1029,1 hPa 0,0 l/m 6,5 km/h (2 Bft) S-SO 153 0 min 0,0 UV-I 69 W/m -4,3 C -3,3 C 8,0 km/h (2 Bft)
16.01.2021 09:58 -3,2 C -2,8 C 91 % 1029,1 hPa 0,0 l/m 4,0 km/h (1 Bft) S-SO 153 0 min 0,0 UV-I 74 W/m -4,5 C -3,2 C 4,8 km/h (1 Bft)
16.01.2021 10:00 -3,1 C -2,8 C 91 % 1029,1 hPa 0,0 l/m 2,4 km/h (1 Bft) S-SO 153 0 min 0,0 UV-I 73 W/m -4,4 C -3,1 C 4,8 km/h (1 Bft)
16.01.2021 10:02 -3,1 C -2,8 C 91 % 1029,0 hPa 0,0 l/m 2,2 km/h (1 Bft) S-SO 153 0 min 0,0 UV-I 73 W/m -4,4 C -3,1 C 3,2 km/h (1 Bft)
16.01.2021 10:04 -3,1 C -2,8 C 91 % 1029,2 hPa 0,0 l/m 3,8 km/h (1 Bft) S-SO 153 0 min 0,0 UV-I 74 W/m -4,4 C -3,1 C 4,8 km/h (1 Bft)
16.01.2021 10:06 -3,1 C -2,8 C 91 % 1029,2 hPa 0,0 l/m 2,7 km/h (1 Bft) S-SO 153 0 min 0,0 UV-I 73 W/m -4,4 C -3,1 C 4,8 km/h (1 Bft)
16.01.2021 10:08 -3,0 C -2,8 C 91 % 1029,1 hPa 0,0 l/m 1,7 km/h (1 Bft) S-SO 153 0 min 0,0 UV-I 78 W/m -4,3 C -3,0 C 3,2 km/h (1 Bft)
16.01.2021 10:10 -2,9 C -2,2 C 90 % 1029,1 hPa 0,0 l/m 1,8 km/h (1 Bft) S-SO 153 0 min 0,0 UV-I 85 W/m -4,3 C -2,9 C 3,2 km/h (1 Bft)
16.01.2021 10:12 -2,9 C -2,2 C 90 % 1029,0 hPa 0,0 l/m 1,9 km/h (1 Bft) S-SO 153 0 min 0,0 UV-I 80 W/m -4,3 C -2,9 C 3,2 km/h (1 Bft)
16.01.2021 10:14 -2,8 C -2,2 C 90 % 1029,0 hPa 0,0 l/m 3,2 km/h (1 Bft) S-SO 153 0 min 0,0 UV-I 80 W/m -4,2 C -2,8 C 4,8 km/h (1 Bft)
16.01.2021 10:16 -2,8 C -2,2 C 90 % 1029,0 hPa 0,0 l/m 2,6 km/h (1 Bft) S-SO 153 0 min 0,0 UV-I 83 W/m -4,2 C -2,8 C 4,8 km/h (1 Bft)
16.01.2021 10:18 -2,8 C -2,2 C 90 % 1029,0 hPa 0,0 l/m 1,9 km/h (1 Bft) S-SO 153 0 min 0,0 UV-I 86 W/m -4,2 C -2,8 C 3,2 km/h (1 Bft)
16.01.2021 10:20 -2,8 C -2,2 C 90 % 1029,0 hPa 0,0 l/m 2,7 km/h (1 Bft) S-SO 153 0 min 0,0 UV-I 80 W/m -4,2 C -2,8 C 4,8 km/h (1 Bft)
16.01.2021 10:22 -2,7 C -2,2 C 89 % 1029,1 hPa 0,0 l/m 3,2 km/h (1 Bft) S-SO 153 0 min 0,0 UV-I 76 W/m -4,3 C -2,7 C 6,4 km/h (2 Bft)
16.01.2021 10:24 -2,7 C -2,2 C 89 % 1029,1 hPa 0,0 l/m 2,9 km/h (1 Bft) S-SO 153 0 min 0,0 UV-I 77 W/m -4,3 C -2,7 C 4,8 km/h (1 Bft)
16.01.2021 10:26 -2,6 C -2,2 C 89 % 1029,0 hPa 0,0 l/m 3,1 km/h (1 Bft) S-SO 153 0 min 0,0 UV-I 83 W/m -4,2 C -2,6 C 4,8 km/h (1 Bft)
16.01.2021 10:28 -2,6 C -2,2 C 88 % 1029,1 hPa 0,0 l/m 2,5 km/h (1 Bft) S-SO 153 0 min 0,2 UV-I 92 W/m -4,3 C -2,6 C 3,2 km/h (1 Bft)
16.01.2021 10:30 -2,7 C -2,2 C 88 % 1029,0 hPa 0,0 l/m 2,2 km/h (1 Bft) S-SO 153 0 min 0,5 UV-I 98 W/m -4,4 C -2,7 C 3,2 km/h (1 Bft)
16.01.2021 10:32 -2,8 C -2,2 C 88 % 1029,0 hPa 0,0 l/m 2,5 km/h (1 Bft) S-SO 153 0 min 0,5 UV-I 104 W/m -4,5 C -2,8 C 4,8 km/h (1 Bft)
16.01.2021 10:34 -2,8 C -2,2 C 88 % 1028,9 hPa 0,0 l/m 3,1 km/h (1 Bft) S-SO 153 0 min 0,5 UV-I 105 W/m -4,5 C -2,8 C 4,8 km/h (1 Bft)
16.01.2021 10:36 -2,8 C -2,2 C 88 % 1028,9 hPa 0,0 l/m 1,2 km/h (1 Bft) S-SO 153 0 min 0,5 UV-I 104 W/m -4,5 C -2,8 C 3,2 km/h (1 Bft)
16.01.2021 10:38 -2,8 C -1,7 C 88 % 1029,0 hPa 0,0 l/m 1,9 km/h (1 Bft) S-SO 153 0 min 0,5 UV-I 103 W/m -4,5 C -2,8 C 4,8 km/h (1 Bft)
16.01.2021 10:40 -2,8 C -2,2 C 88 % 1028,9 hPa 0,0 l/m 4,9 km/h (1 Bft) S-SO 159 0 min 0,5 UV-I 102 W/m -4,5 C -2,8 C 8,0 km/h (2 Bft)
16.01.2021 10:42 -2,8 C -2,2 C 88 % 1028,9 hPa 0,0 l/m 6,1 km/h (2 Bft) S-SO 157 0 min 0,5 UV-I 105 W/m -4,5 C -2,8 C 9,7 km/h (2 Bft)
16.01.2021 10:44 -2,7 C -2,2 C 88 % 1028,8 hPa 0,0 l/m 3,9 km/h (1 Bft) S-SO 157 0 min 0,5 UV-I 106 W/m -4,4 C -2,7 C 8,0 km/h (2 Bft)
16.01.2021 10:46 -2,8 C -2,2 C 88 % 1028,9 hPa 0,0 l/m 3,7 km/h (1 Bft) S-SO 157 0 min 0,5 UV-I 104 W/m -4,5 C -2,8 C 4,8 km/h (1 Bft)
16.01.2021 10:48 -2,7 C -2,2 C 88 % 1028,9 hPa 0,0 l/m 2,8 km/h (1 Bft) S-SO 157 0 min 0,5 UV-I 102 W/m -4,4 C -2,7 C 4,8 km/h (1 Bft)
16.01.2021 10:50 -2,7 C -2,2 C 88 % 1028,9 hPa 0,0 l/m 4,6 km/h (1 Bft) S-SO 157 0 min 0,5 UV-I 102 W/m -4,4 C -2,7 C 8,0 km/h (2 Bft)
16.01.2021 10:52 -2,7 C -2,2 C 87 % 1028,9 hPa 0,0 l/m 5,7 km/h (1 Bft) S-SO 167 0 min 0,5 UV-I 104 W/m -4,6 C -2,7 C 9,7 km/h (2 Bft)
16.01.2021 10:54 -2,6 C -2,2 C 87 % 1028,8 hPa 0,0 l/m 5,0 km/h (1 Bft) S 189 0 min 0,5 UV-I 108 W/m -4,5 C -2,6 C 8,0 km/h (2 Bft)
16.01.2021 10:56 -2,6 C -2,2 C 87 % 1028,9 hPa 0,0 l/m 3,6 km/h (1 Bft) S 183 0 min 0,5 UV-I 111 W/m -4,5 C -2,6 C 6,4 km/h (2 Bft)
16.01.2021 10:58 -2,6 C -2,2 C 87 % 1028,9 hPa 0,0 l/m 5,2 km/h (1 Bft) S 178 0 min 0,5 UV-I 112 W/m -4,5 C -2,6 C 11,3 km/h (2 Bft)
16.01.2021 11:00 -2,7 C -2,2 C 87 % 1028,8 hPa 0,0 l/m 9,5 km/h (2 Bft) SO 138 0 min 0,5 UV-I 114 W/m -4,6 C -6,0 C 16,1 km/h (3 Bft)
16.01.2021 11:02 -2,7 C -2,2 C 87 % 1028,8 hPa 0,0 l/m 7,5 km/h (2 Bft) S-SO 159 0 min 0,6 UV-I 114 W/m -4,6 C -3,9 C 12,9 km/h (3 Bft)
16.01.2021 11:04 -2,7 C -2,2 C 87 % 1028,8 hPa 0,0 l/m 6,0 km/h (2 Bft) SO 144 0 min 0,6 UV-I 116 W/m -4,6 C -2,7 C 11,3 km/h (2 Bft)
16.01.2021 11:06 -2,7 C -2,2 C 87 % 1028,7 hPa 0,0 l/m 4,7 km/h (1 Bft) SO 143 0 min 0,6 UV-I 116 W/m -4,6 C -2,7 C 11,3 km/h (2 Bft)
16.01.2021 11:08 -2,7 C -2,2 C 87 % 1028,8 hPa 0,0 l/m 5,5 km/h (1 Bft) S-SO 161 0 min 0,6 UV-I 116 W/m -4,6 C -2,7 C 9,7 km/h (2 Bft)
16.01.2021 11:10 -2,6 C -2,2 C 87 % 1028,8 hPa 0,0 l/m 7,1 km/h (2 Bft) S 180 0 min 0,6 UV-I 117 W/m -4,5 C -3,4 C 9,7 km/h (2 Bft)
16.01.2021 11:12 -2,7 C -2,2 C 87 % 1028,8 hPa 0,0 l/m 6,3 km/h (2 Bft) S-SO 152 0 min 0,6 UV-I 119 W/m -4,6 C -2,7 C 9,7 km/h (2 Bft)
16.01.2021 11:14 -2,6 C -2,2 C 87 % 1028,8 hPa 0,0 l/m 6,6 km/h (2 Bft) S-SO 166 0 min 0,6 UV-I 121 W/m -4,5 C -2,8 C 11,3 km/h (2 Bft)
16.01.2021 11:16 -2,6 C -2,2 C 87 % 1028,8 hPa 0,0 l/m 7,3 km/h (2 Bft) S-SO 165 0 min 0,6 UV-I 121 W/m -4,5 C -3,6 C 11,3 km/h (2 Bft)
16.01.2021 11:18 -2,6 C -2,2 C 87 % 1028,8 hPa 0,0 l/m 8,0 km/h (2 Bft) SO 146 0 min 0,6 UV-I 120 W/m -4,5 C -4,4 C 11,3 km/h (2 Bft)
16.01.2021 11:20 -2,6 C -2,2 C 87 % 1028,7 hPa 0,0 l/m 6,2 km/h (2 Bft) S-SO 155 0 min 0,6 UV-I 116 W/m -4,5 C -2,6 C 9,7 km/h (2 Bft)
16.01.2021 11:22 -2,6 C -2,2 C 87 % 1028,7 hPa 0,0 l/m 5,8 km/h (2 Bft) S-SO 154 0 min 0,6 UV-I 114 W/m -4,5 C -2,6 C 9,7 km/h (2 Bft)
16.01.2021 11:23 -2,6 C -2,2 C 87 % 1028,7 hPa 0,0 l/m 6,4 km/h (2 Bft) SO 135 0 min 0,6 UV-I 111 W/m -4,5 C -2,6 C 11,3 km/h (2 Bft)
16.01.2021 11:24 -2,6 C -2,2 C 87 % 1028,6 hPa 0,0 l/m 6,4 km/h (2 Bft) S-SO 157 0 min 0,6 UV-I 111 W/m -4,5 C -2,6 C 11,3 km/h (2 Bft)
16.01.2021 11:26 -2,6 C -2,2 C 87 % 1028,6 hPa 0,0 l/m 5,1 km/h (1 Bft) S-SO 149 0 min 0,6 UV-I 111 W/m -4,5 C -2,6 C 8,0 km/h (2 Bft)
16.01.2021 11:28 -2,6 C -2,2 C 87 % 1028,6 hPa 0,0 l/m 5,6 km/h (1 Bft) S-SO 151 0 min 0,6 UV-I 107 W/m -4,5 C -2,6 C 8,0 km/h (2 Bft)
16.01.2021 11:30 -2,6 C -2,2 C 87 % 1028,7 hPa 0,0 l/m 5,7 km/h (1 Bft) S-SO 150 0 min 0,6 UV-I 107 W/m -4,5 C -2,6 C 9,7 km/h (2 Bft)
16.01.2021 11:32 -2,6 C -2,2 C 87 % 1028,6 hPa 0,0 l/m 8,1 km/h (2 Bft) SO 144 0 min 0,6 UV-I 107 W/m -4,5 C -4,5 C 11,3 km/h (2 Bft)
16.01.2021 11:34 -2,6 C -2,2 C 86 % 1028,5 hPa 0,0 l/m 9,1 km/h (2 Bft) S 183 0 min 0,6 UV-I 107 W/m -4,6 C -5,5 C 14,5 km/h (3 Bft)
16.01.2021 11:36 -2,7 C -2,2 C 86 % 1028,6 hPa 0,0 l/m 8,2 km/h (2 Bft) S-SW 194 0 min 0,6 UV-I 107 W/m -4,7 C -4,7 C 11,3 km/h (2 Bft)
16.01.2021 11:38 -2,6 C -2,2 C 86 % 1028,6 hPa 0,0 l/m 7,7 km/h (2 Bft) S-SO 153 0 min 0,6 UV-I 108 W/m -4,6 C -4,1 C 12,9 km/h (3 Bft)
16.01.2021 11:40 -2,6 C -2,2 C 86 % 1028,5 hPa 0,0 l/m 7,5 km/h (2 Bft) S-SO 168 0 min 0,6 UV-I 112 W/m -4,6 C -3,8 C 11,3 km/h (2 Bft)
16.01.2021 11:42 -2,6 C -2,2 C 86 % 1028,5 hPa 0,0 l/m 4,1 km/h (1 Bft) S 171 0 min 0,6 UV-I 114 W/m -4,6 C -2,6 C 6,4 km/h (2 Bft)
16.01.2021 11:44 -2,6 C -2,2 C 86 % 1028,4 hPa 0,0 l/m 6,8 km/h (2 Bft) S 172 0 min 0,6 UV-I 112 W/m -4,6 C -3,0 C 11,3 km/h (2 Bft)
16.01.2021 11:46 -2,6 C -2,2 C 86 % 1028,4 hPa 0,0 l/m 8,1 km/h (2 Bft) S-SO 156 0 min 0,6 UV-I 108 W/m -4,6 C -4,5 C 11,3 km/h (2 Bft)
16.01.2021 11:48 -2,6 C -2,2 C 86 % 1028,4 hPa 0,0 l/m 7,0 km/h (2 Bft) S-SO 159 0 min 0,6 UV-I 108 W/m -4,6 C -3,3 C 9,7 km/h (2 Bft)
16.01.2021 11:50 -2,6 C -2,2 C 86 % 1028,3 hPa 0,0 l/m 6,1 km/h (2 Bft) S-SW 200 0 min 0,6 UV-I 112 W/m -4,6 C -2,6 C 11,3 km/h (2 Bft)
16.01.2021 11:52 -2,6 C -2,2 C 86 % 1028,3 hPa 0,0 l/m 4,9 km/h (1 Bft) S 187 0 min 0,6 UV-I 114 W/m -4,6 C -2,6 C 9,7 km/h (2 Bft)
16.01.2021 11:54 -2,6 C -2,2 C 86 % 1028,3 hPa 0,0 l/m 5,5 km/h (1 Bft) S-SO 162 0 min 0,6 UV-I 117 W/m -4,6 C -2,6 C 9,7 km/h (2 Bft)
16.01.2021 11:56 -2,6 C -2,2 C 86 % 1028,2 hPa 0,0 l/m 7,8 km/h (2 Bft) S 171 0 min 0,7 UV-I 120 W/m -4,6 C -4,2 C 11,3 km/h (2 Bft)
16.01.2021 11:58 -2,6 C -2,2 C 86 % 1028,2 hPa 0,0 l/m 5,0 km/h (1 Bft) S-SO 150 0 min 0,7 UV-I 124 W/m -4,6 C -2,6 C 8,0 km/h (2 Bft)
16.01.2021 12:00 -2,6 C -2,2 C 86 % 1028,2 hPa 0,0 l/m 8,0 km/h (2 Bft) S-SO 161 0 min 0,7 UV-I 129 W/m -4,6 C -4,4 C 16,1 km/h (3 Bft)
16.01.2021 12:02 -2,6 C -2,2 C 86 % 1028,1 hPa 0,0 l/m 7,1 km/h (2 Bft) S 171 0 min 0,7 UV-I 134 W/m -4,6 C -3,4 C 14,5 km/h (3 Bft)
16.01.2021 12:04 -2,6 C -2,2 C 85 % 1028,1 hPa 0,0 l/m 11,1 km/h (2 Bft) S 184 0 min 0,7 UV-I 138 W/m -4,8 C -7,3 C 14,5 km/h (3 Bft)
16.01.2021 12:06 -2,6 C -2,2 C 85 % 1028,1 hPa 0,0 l/m 7,4 km/h (2 Bft) S-SO 161 0 min 0,8 UV-I 141 W/m -4,8 C -3,7 C 11,3 km/h (2 Bft)
16.01.2021 12:08 -2,6 C -2,2 C 86 % 1028,1 hPa 0,0 l/m 7,6 km/h (2 Bft) SO 145 0 min 0,8 UV-I 141 W/m -4,6 C -3,9 C 11,3 km/h (2 Bft)
16.01.2021 12:10 -2,6 C -2,2 C 85 % 1028,1 hPa 0,0 l/m 6,5 km/h (2 Bft) S 172 0 min 0,8 UV-I 139 W/m -4,8 C -2,7 C 9,7 km/h (2 Bft)
16.01.2021 12:12 -2,6 C -2,2 C 85 % 1028,1 hPa 0,0 l/m 8,2 km/h (2 Bft) SW 214 0 min 0,7 UV-I 133 W/m -4,8 C -4,6 C 11,3 km/h (2 Bft)
16.01.2021 12:14 -2,6 C -2,2 C 85 % 1028,1 hPa 0,0 l/m 7,4 km/h (2 Bft) S 190 0 min 0,7 UV-I 131 W/m -4,8 C -3,7 C 9,7 km/h (2 Bft)
16.01.2021 12:16 -2,5 C -2,2 C 86 % 1028,1 hPa 0,0 l/m 6,4 km/h (2 Bft) S-SW 194 0 min 0,7 UV-I 130 W/m -4,5 C -2,5 C 9,7 km/h (2 Bft)
16.01.2021 12:18 -2,5 C -2,2 C 85 % 1028,1 hPa 0,0 l/m 7,6 km/h (2 Bft) S 180 0 min 0,7 UV-I 133 W/m -4,7 C -3,8 C 12,9 km/h (3 Bft)
16.01.2021 12:20 -2,5 C -2,2 C 85 % 1028,0 hPa 0,0 l/m 7,1 km/h (2 Bft) S-SW 193 0 min 0,7 UV-I 128 W/m -4,7 C -3,3 C 11,3 km/h (2 Bft)
16.01.2021 12:22 -2,5 C -2,2 C 85 % 1028,0 hPa 0,0 l/m 7,2 km/h (2 Bft) S 185 0 min 0,7 UV-I 124 W/m -4,7 C -3,4 C 12,9 km/h (3 Bft)
16.01.2021 12:24 -2,6 C -2,2 C 85 % 1027,9 hPa 0,0 l/m 8,6 km/h (2 Bft) S-SO 150 0 min 0,7 UV-I 128 W/m -4,8 C -5,0 C 14,5 km/h (3 Bft)
16.01.2021 12:26 -2,6 C -2,2 C 85 % 1027,9 hPa 0,0 l/m 8,3 km/h (2 Bft) S-SO 158 0 min 0,7 UV-I 133 W/m -4,8 C -4,7 C 12,9 km/h (3 Bft)
16.01.2021 12:28 -2,7 C -2,2 C 85 % 1027,9 hPa 0,0 l/m 8,0 km/h (2 Bft) S-SO 161 0 min 0,7 UV-I 128 W/m -4,9 C -4,5 C 12,9 km/h (3 Bft)
16.01.2021 12:30 -2,6 C -2,2 C 85 % 1027,8 hPa 0,0 l/m 6,7 km/h (2 Bft) S 181 0 min 0,7 UV-I 133 W/m -4,8 C -2,9 C 17,7 km/h (3 Bft)
16.01.2021 12:32 -2,6 C -2,2 C 85 % 1027,7 hPa 0,0 l/m 10,4 km/h (2 Bft) S 184 0 min 0,8 UV-I 146 W/m -4,8 C -6,7 C 17,7 km/h (3 Bft)
16.01.2021 12:34 -2,6 C -2,2 C 85 % 1027,7 hPa 0,0 l/m 7,4 km/h (2 Bft) S-SW 192 0 min 0,8 UV-I 146 W/m -4,8 C -3,7 C 9,7 km/h (2 Bft)
16.01.2021 12:36 -2,6 C -2,2 C 84 % 1027,6 hPa 0,0 l/m 7,4 km/h (2 Bft) S 186 0 min 0,8 UV-I 143 W/m -4,9 C -3,7 C 14,5 km/h (3 Bft)
16.01.2021 12:38 -2,6 C -2,2 C 85 % 1027,6 hPa 0,0 l/m 7,9 km/h (2 Bft) S 190 0 min 0,8 UV-I 143 W/m -4,8 C -4,3 C 12,9 km/h (3 Bft)
16.01.2021 12:40 -2,6 C -2,2 C 85 % 1027,6 hPa 0,0 l/m 6,4 km/h (2 Bft) S-SO 155 0 min 0,8 UV-I 146 W/m -4,8 C -2,6 C 14,5 km/h (3 Bft)
16.01.2021 12:42 -2,6 C -2,2 C 85 % 1027,5 hPa 0,0 l/m 6,3 km/h (2 Bft) S 184 0 min 0,8 UV-I 145 W/m -4,8 C -2,6 C 9,7 km/h (2 Bft)
16.01.2021 12:44 -2,6 C -2,2 C 85 % 1027,4 hPa 0,0 l/m 6,5 km/h (2 Bft) S 173 0 min 0,8 UV-I 148 W/m -4,8 C -2,7 C 14,5 km/h (3 Bft)
16.01.2021 12:46 -2,6 C -2,2 C 84 % 1027,5 hPa 0,0 l/m 12,1 km/h (2 Bft) S-SW 206 0 min 0,8 UV-I 148 W/m -4,9 C -8,1 C 16,1 km/h (3 Bft)
16.01.2021 12:48 -2,6 C -2,2 C 84 % 1027,3 hPa 0,0 l/m 8,8 km/h (2 Bft) S 172 0 min 0,8 UV-I 151 W/m -4,9 C -5,2 C 12,9 km/h (3 Bft)
16.01.2021 12:50 -2,6 C -2,2 C 84 % 1027,3 hPa 0,0 l/m 7,8 km/h (2 Bft) S-SW 196 0 min 0,8 UV-I 153 W/m -4,9 C -4,2 C 14,5 km/h (3 Bft)
16.01.2021 12:52 -2,6 C -2,2 C 84 % 1027,3 hPa 0,0 l/m 5,9 km/h (2 Bft) S-SO 157 0 min 0,8 UV-I 151 W/m -4,9 C -2,6 C 9,7 km/h (2 Bft)
16.01.2021 12:54 -2,5 C -1,7 C 84 % 1027,2 hPa 0,0 l/m 5,4 km/h (1 Bft) S-SO 161 0 min 0,8 UV-I 146 W/m -4,8 C -2,5 C 9,7 km/h (2 Bft)
16.01.2021 12:56 -2,5 C -1,7 C 84 % 1027,2 hPa 0,0 l/m 6,1 km/h (2 Bft) S 170 0 min 0,8 UV-I 146 W/m -4,8 C -2,5 C 9,7 km/h (2 Bft)
16.01.2021 12:58 -2,5 C -1,7 C 84 % 1027,2 hPa 0,0 l/m 7,8 km/h (2 Bft) S-SW 203 0 min 0,8 UV-I 146 W/m -4,8 C -4,1 C 16,1 km/h (3 Bft)
16.01.2021 13:00 -2,6 C -2,2 C 83 % 1027,2 hPa 0,0 l/m 13,0 km/h (3 Bft) S 174 0 min 0,8 UV-I 142 W/m -5,1 C -8,8 C 19,3 km/h (3 Bft)
16.01.2021 13:02 -2,7 C -2,2 C 83 % 1027,2 hPa 0,0 l/m 12,3 km/h (3 Bft) S 175 0 min 0,8 UV-I 139 W/m -5,2 C -8,3 C 19,3 km/h (3 Bft)
16.01.2021 13:04 -2,7 C -2,2 C 83 % 1027,0 hPa 0,0 l/m 11,2 km/h (2 Bft) S 190 0 min 0,7 UV-I 131 W/m -5,2 C -7,5 C 14,5 km/h (3 Bft)
16.01.2021 13:06 -2,7 C -2,2 C 83 % 1027,1 hPa 0,0 l/m 11,7 km/h (2 Bft) S-SW 192 0 min 0,7 UV-I 125 W/m -5,2 C -7,9 C 16,1 km/h (3 Bft)
16.01.2021 13:08 -2,7 C -2,8 C 83 % 1027,0 hPa 0,0 l/m 12,5 km/h (3 Bft) S-SO 166 0 min 0,7 UV-I 127 W/m -5,2 C -8,5 C 17,7 km/h (3 Bft)
16.01.2021 13:10 -2,7 C -2,2 C 83 % 1027,1 hPa 0,0 l/m 9,7 km/h (2 Bft) S 173 0 min 0,8 UV-I 139 W/m -5,2 C -6,2 C 14,5 km/h (3 Bft)
16.01.2021 13:12 -2,7 C -2,2 C 84 % 1026,9 hPa 0,0 l/m 8,3 km/h (2 Bft) S-SW 192 0 min 0,7 UV-I 139 W/m -5,0 C -4,8 C 14,5 km/h (3 Bft)
16.01.2021 13:14 -2,7 C -2,2 C 83 % 1026,9 hPa 0,0 l/m 8,1 km/h (2 Bft) S-SW 193 0 min 0,7 UV-I 133 W/m -5,2 C -4,6 C 16,1 km/h (3 Bft)
16.01.2021 13:16 -2,7 C -2,2 C 83 % 1026,8 hPa 0,0 l/m 10,5 km/h (2 Bft) S 178 0 min 0,7 UV-I 126 W/m -5,2 C -6,9 C 16,1 km/h (3 Bft)
16.01.2021 13:18 -2,7 C -2,2 C 83 % 1026,7 hPa 0,0 l/m 10,7 km/h (2 Bft) S 182 0 min 0,7 UV-I 126 W/m -5,2 C -7,0 C 16,1 km/h (3 Bft)
16.01.2021 13:20 -2,7 C -2,2 C 83 % 1026,8 hPa 0,0 l/m 9,7 km/h (2 Bft) S 190 0 min 0,7 UV-I 123 W/m -5,2 C -6,2 C 14,5 km/h (3 Bft)
16.01.2021 13:22 -2,7 C -2,2 C 83 % 1026,8 hPa 0,0 l/m 11,4 km/h (2 Bft) S-SW 205 0 min 0,7 UV-I 125 W/m -5,2 C -7,6 C 16,1 km/h (3 Bft)
16.01.2021 13:24 -2,7 C -2,2 C 84 % 1026,8 hPa 0,0 l/m 8,3 km/h (2 Bft) S 174 0 min 0,7 UV-I 129 W/m -5,0 C -4,8 C 12,9 km/h (3 Bft)
16.01.2021 13:26 -2,7 C -2,2 C 83 % 1026,8 hPa 0,0 l/m 9,9 km/h (2 Bft) S-SW 194 0 min 0,7 UV-I 125 W/m -5,2 C -6,3 C 17,7 km/h (3 Bft)
16.01.2021 13:28 -2,7 C -2,8 C 83 % 1026,8 hPa 0,0 l/m 13,6 km/h (3 Bft) S-SO 167 0 min 0,6 UV-I 120 W/m -5,2 C -9,3 C 19,3 km/h (3 Bft)
16.01.2021 13:30 -2,8 C -2,8 C 83 % 1026,7 hPa 0,0 l/m 11,1 km/h (2 Bft) SW 215 0 min 0,6 UV-I 116 W/m -5,3 C -7,5 C 16,1 km/h (3 Bft)
16.01.2021 13:32 -2,8 C -2,8 C 83 % 1026,6 hPa 0,0 l/m 10,7 km/h (2 Bft) S 190 0 min 0,6 UV-I 116 W/m -5,3 C -7,2 C 16,1 km/h (3 Bft)
16.01.2021 13:34 -2,8 C -2,8 C 83 % 1026,6 hPa 0,0 l/m 13,6 km/h (3 Bft) SW 221 0 min 0,6 UV-I 119 W/m -5,3 C -9,4 C 19,3 km/h (3 Bft)
16.01.2021 13:36 -2,8 C -2,8 C 83 % 1026,5 hPa 0,0 l/m 10,1 km/h (2 Bft) S-SO 160 0 min 0,6 UV-I 116 W/m -5,3 C -6,6 C 16,1 km/h (3 Bft)
16.01.2021 13:38 -2,8 C -2,8 C 83 % 1026,5 hPa 0,0 l/m 10,4 km/h (2 Bft) S-SW 209 0 min 0,6 UV-I 114 W/m -5,3 C -6,9 C 16,1 km/h (3 Bft)
16.01.2021 13:40 -2,7 C -2,8 C 83 % 1026,5 hPa 0,0 l/m 7,4 km/h (2 Bft) S 189 0 min 0,6 UV-I 120 W/m -5,2 C -3,8 C 14,5 km/h (3 Bft)
16.01.2021 13:42 -2,7 C -2,2 C 83 % 1026,4 hPa 0,0 l/m 9,0 km/h (2 Bft) S 182 0 min 0,7 UV-I 136 W/m -5,2 C -5,5 C 16,1 km/h (3 Bft)
16.01.2021 13:44 -2,7 C -2,2 C 83 % 1026,4 hPa 0,0 l/m 8,9 km/h (2 Bft) SW 229 0 min 0,8 UV-I 145 W/m -5,2 C -5,4 C 16,1 km/h (3 Bft)
16.01.2021 13:46 -2,7 C -2,2 C 83 % 1026,4 hPa 0,0 l/m 12,0 km/h (2 Bft) S 183 0 min 0,8 UV-I 147 W/m -5,2 C -8,1 C 17,7 km/h (3 Bft)
16.01.2021 13:48 -2,7 C -2,2 C 83 % 1026,4 hPa 0,0 l/m 11,1 km/h (2 Bft) S 178 0 min 0,8 UV-I 148 W/m -5,2 C -7,4 C 16,1 km/h (3 Bft)
16.01.2021 13:50 -2,7 C -2,2 C 83 % 1026,3 hPa 0,0 l/m 8,5 km/h (2 Bft) S 169 0 min 0,8 UV-I 148 W/m -5,2 C -5,0 C 14,5 km/h (3 Bft)
16.01.2021 13:52 -2,7 C -2,8 C 82 % 1026,3 hPa 0,0 l/m 10,9 km/h (2 Bft) S 182 0 min 0,8 UV-I 147 W/m -5,3 C -7,2 C 16,1 km/h (3 Bft)
16.01.2021 13:54 -2,8 C -2,8 C 82 % 1026,3 hPa 0,0 l/m 14,1 km/h (3 Bft) SW 214 0 min 0,7 UV-I 146 W/m -5,4 C -9,8 C 20,9 km/h (4 Bft)
16.01.2021 13:56 -2,8 C -2,8 C 82 % 1026,2 hPa 0,0 l/m 15,0 km/h (3 Bft) S-SW 196 0 min 0,7 UV-I 140 W/m -5,4 C -10,4 C 17,7 km/h (3 Bft)
16.01.2021 13:58 -2,8 C -2,8 C 82 % 1026,2 hPa 0,0 l/m 13,1 km/h (3 Bft) S-SW 196 0 min 0,7 UV-I 135 W/m -5,4 C -9,1 C 19,3 km/h (3 Bft)
16.01.2021 14:00 -2,8 C -2,8 C 83 % 1026,1 hPa 0,0 l/m 10,4 km/h (2 Bft) S-SW 211 0 min 0,7 UV-I 134 W/m -5,3 C -6,9 C 14,5 km/h (3 Bft)
16.01.2021 14:02 -2,8 C -2,8 C 83 % 1026,2 hPa 0,0 l/m 11,5 km/h (2 Bft) S-SW 197 0 min 0,7 UV-I 135 W/m -5,3 C -7,8 C 17,7 km/h (3 Bft)
16.01.2021 14:04 -2,7 C -2,8 C 83 % 1026,2 hPa 0,0 l/m 8,8 km/h (2 Bft) S 189 0 min 0,7 UV-I 139 W/m -5,2 C -5,3 C 14,5 km/h (3 Bft)
16.01.2021 14:06 -2,8 C -2,8 C 83 % 1026,1 hPa 0,0 l/m 10,6 km/h (2 Bft) S-SO 166 0 min 0,7 UV-I 142 W/m -5,3 C -7,1 C 17,7 km/h (3 Bft)
16.01.2021 14:08 -2,7 C -2,8 C 82 % 1026,0 hPa 0,0 l/m 10,6 km/h (2 Bft) S 188 0 min 0,7 UV-I 141 W/m -5,3 C -7,0 C 16,1 km/h (3 Bft)
16.01.2021 14:10 -2,7 C -2,8 C 82 % 1026,0 hPa 0,0 l/m 9,8 km/h (2 Bft) S-SW 207 0 min 0,7 UV-I 137 W/m -5,3 C -6,3 C 14,5 km/h (3 Bft)
16.01.2021 14:12 -2,8 C -2,8 C 82 % 1025,9 hPa 0,0 l/m 10,9 km/h (2 Bft) S-SO 160 0 min 0,7 UV-I 136 W/m -5,4 C -7,3 C 17,7 km/h (3 Bft)
16.01.2021 14:14 -2,8 C -2,8 C 82 % 1026,0 hPa 0,0 l/m 11,0 km/h (2 Bft) S-SO 158 0 min 0,7 UV-I 135 W/m -5,4 C -7,4 C 16,1 km/h (3 Bft)
16.01.2021 14:16 -2,8 C -2,8 C 82 % 1026,0 hPa 0,0 l/m 11,3 km/h (2 Bft) S 175 0 min 0,7 UV-I 133 W/m -5,4 C -7,7 C 16,1 km/h (3 Bft)
16.01.2021 14:18 -2,8 C -2,8 C 82 % 1025,9 hPa 0,0 l/m 8,4 km/h (2 Bft) S 174 0 min 0,7 UV-I 133 W/m -5,4 C -5,0 C 14,5 km/h (3 Bft)
16.01.2021 14:20 -2,8 C -2,8 C 82 % 1025,9 hPa 0,0 l/m 8,2 km/h (2 Bft) S-SW 206 0 min 0,6 UV-I 130 W/m -5,4 C -4,8 C 16,1 km/h (3 Bft)
16.01.2021 14:22 -2,8 C -2,8 C 83 % 1025,8 hPa 0,0 l/m 7,2 km/h (2 Bft) S 184 0 min 0,6 UV-I 126 W/m -5,3 C -3,7 C 11,3 km/h (2 Bft)
16.01.2021 14:24 -2,7 C -2,8 C 82 % 1025,7 hPa 0,0 l/m 12,6 km/h (3 Bft) S 184 0 min 0,6 UV-I 124 W/m -5,3 C -8,6 C 19,3 km/h (3 Bft)
16.01.2021 14:26 -2,8 C -2,8 C 82 % 1025,7 hPa 0,0 l/m 11,9 km/h (2 Bft) S-SO 165 0 min 0,6 UV-I 120 W/m -5,4 C -8,1 C 17,7 km/h (3 Bft)
16.01.2021 14:28 -2,8 C -2,8 C 82 % 1025,7 hPa 0,0 l/m 11,2 km/h (2 Bft) S 177 0 min 0,6 UV-I 118 W/m -5,4 C -7,6 C 14,5 km/h (3 Bft)
16.01.2021 14:30 -2,8 C -2,8 C 82 % 1025,6 hPa 0,0 l/m 14,1 km/h (3 Bft) S-SW 202 0 min 0,6 UV-I 115 W/m -5,4 C -9,8 C 19,3 km/h (3 Bft)
16.01.2021 14:32 -2,8 C -2,8 C 82 % 1025,6 hPa 0,0 l/m 10,0 km/h (2 Bft) S-SO 161 0 min 0,6 UV-I 113 W/m -5,4 C -6,5 C 14,5 km/h (3 Bft)
16.01.2021 14:34 -2,8 C -2,8 C 82 % 1025,5 hPa 0,0 l/m 11,4 km/h (2 Bft) S-SW 198 0 min 0,5 UV-I 112 W/m -5,4 C -7,7 C 19,3 km/h (3 Bft)
16.01.2021 14:36 -2,8 C -2,8 C 83 % 1025,6 hPa 0,0 l/m 8,9 km/h (2 Bft) S 191 0 min 0,5 UV-I 111 W/m -5,3 C -5,5 C 12,9 km/h (3 Bft)
16.01.2021 14:38 -2,8 C -2,8 C 82 % 1025,5 hPa 0,0 l/m 7,9 km/h (2 Bft) S-SW 212 0 min 0,5 UV-I 108 W/m -5,4 C -4,5 C 14,5 km/h (3 Bft)
16.01.2021 14:40 -2,8 C -2,8 C 82 % 1025,5 hPa 0,0 l/m 14,5 km/h (3 Bft) S 188 0 min 0,5 UV-I 105 W/m -5,4 C -10,0 C 19,3 km/h (3 Bft)
16.01.2021 14:42 -2,8 C -2,8 C 82 % 1025,4 hPa 0,0 l/m 12,3 km/h (3 Bft) S 178 0 min 0,5 UV-I 104 W/m -5,4 C -8,5 C 17,7 km/h (3 Bft)
16.01.2021 14:44 -2,8 C -2,8 C 83 % 1025,3 hPa 0,0 l/m 8,7 km/h (2 Bft) S 186 0 min 0,5 UV-I 101 W/m -5,3 C -5,3 C 14,5 km/h (3 Bft)
16.01.2021 14:46 -2,8 C -2,8 C 83 % 1025,3 hPa 0,0 l/m 10,5 km/h (2 Bft) S-SO 165 0 min 0,5 UV-I 98 W/m -5,3 C -7,0 C 17,7 km/h (3 Bft)
16.01.2021 14:48 -2,8 C -2,8 C 83 % 1025,3 hPa 0,0 l/m 10,6 km/h (2 Bft) S-SO 161 0 min 0,3 UV-I 94 W/m -5,3 C -7,1 C 16,1 km/h (3 Bft)
16.01.2021 14:50 -2,8 C -2,8 C 83 % 1025,3 hPa 0,0 l/m 11,0 km/h (2 Bft) S-SO 165 0 min 0,0 UV-I 90 W/m -5,3 C -7,4 C 16,1 km/h (3 Bft)
16.01.2021 14:52 -2,8 C -2,8 C 83 % 1025,2 hPa 0,0 l/m 10,1 km/h (2 Bft) S-SW 194 0 min 0,0 UV-I 85 W/m -5,3 C -6,6 C 16,1 km/h (3 Bft)
16.01.2021 14:54 -2,9 C -2,8 C 82 % 1025,1 hPa 0,0 l/m 11,3 km/h (2 Bft) S 189 0 min 0,0 UV-I 83 W/m -5,5 C -7,8 C 16,1 km/h (3 Bft)
16.01.2021 14:56 -2,9 C -2,8 C 83 % 1025,1 hPa 0,0 l/m 7,6 km/h (2 Bft) S 177 0 min 0,0 UV-I 80 W/m -5,4 C -4,3 C 12,9 km/h (3 Bft)
16.01.2021 14:58 -2,8 C -2,8 C 83 % 1025,1 hPa 0,0 l/m 8,9 km/h (2 Bft) SO 138 0 min 0,0 UV-I 78 W/m -5,3 C -5,5 C 16,1 km/h (3 Bft)
16.01.2021 15:00 -2,8 C -2,8 C 83 % 1025,1 hPa 0,0 l/m 12,1 km/h (2 Bft) S 175 0 min 0,0 UV-I 76 W/m -5,3 C -8,3 C 17,7 km/h (3 Bft)
16.01.2021 15:02 -2,9 C -2,8 C 83 % 1025,1 hPa 0,0 l/m 7,5 km/h (2 Bft) S 188 0 min 0,0 UV-I 74 W/m -5,4 C -4,1 C 11,3 km/h (2 Bft)
16.01.2021 15:04 -2,8 C -2,8 C 83 % 1025,2 hPa 0,0 l/m 8,4 km/h (2 Bft) S 182 0 min 0,0 UV-I 72 W/m -5,3 C -5,0 C 11,3 km/h (2 Bft)
16.01.2021 15:06 -2,9 C -2,8 C 83 % 1025,1 hPa 0,0 l/m 9,7 km/h (2 Bft) S-SW 205 0 min 0,0 UV-I 71 W/m -5,4 C -6,4 C 17,7 km/h (3 Bft)
16.01.2021 15:08 -2,8 C -2,8 C 83 % 1025,0 hPa 0,0 l/m 10,6 km/h (2 Bft) S 190 0 min 0,0 UV-I 69 W/m -5,3 C -7,1 C 19,3 km/h (3 Bft)
16.01.2021 15:10 -2,9 C -3,3 C 83 % 1025,0 hPa 0,0 l/m 11,5 km/h (2 Bft) S 186 0 min 0,0 UV-I 67 W/m -5,4 C -7,9 C 16,1 km/h (3 Bft)
16.01.2021 15:12 -2,9 C -3,3 C 82 % 1025,0 hPa 0,0 l/m 10,3 km/h (2 Bft) S-SO 160 0 min 0,0 UV-I 64 W/m -5,5 C -6,9 C 16,1 km/h (3 Bft)
16.01.2021 15:14 -2,9 C -3,3 C 82 % 1025,0 hPa 0,0 l/m 8,1 km/h (2 Bft) S 178 0 min 0,0 UV-I 61 W/m -5,5 C -4,8 C 16,1 km/h (3 Bft)
16.01.2021 15:16 -2,9 C -3,3 C 82 % 1025,0 hPa 0,0 l/m 10,7 km/h (2 Bft) S 182 0 min 0,0 UV-I 57 W/m -5,5 C -7,3 C 16,1 km/h (3 Bft)
16.01.2021 15:18 -2,9 C -3,3 C 82 % 1025,0 hPa 0,0 l/m 11,4 km/h (2 Bft) S-SW 200 0 min 0,0 UV-I 54 W/m -5,5 C -7,9 C 16,1 km/h (3 Bft)
16.01.2021 15:20 -3,0 C -3,3 C 82 % 1024,9 hPa 0,0 l/m 14,5 km/h (3 Bft) S-SW 200 0 min 0,0 UV-I 54 W/m -5,6 C -10,3 C 20,9 km/h (4 Bft)
16.01.2021 15:22 -3,0 C -3,3 C 82 % 1024,9 hPa 0,0 l/m 14,7 km/h (3 Bft) S-SW 207 0 min 0,0 UV-I 54 W/m -5,6 C -10,4 C 22,5 km/h (4 Bft)
16.01.2021 15:24 -3,0 C -3,3 C 82 % 1025,0 hPa 0,0 l/m 12,7 km/h (3 Bft) S 186 0 min 0,0 UV-I 53 W/m -5,6 C -9,0 C 19,3 km/h (3 Bft)
16.01.2021 15:26 -3,0 C -3,3 C 82 % 1025,0 hPa 0,0 l/m 11,9 km/h (2 Bft) S 188 0 min 0,0 UV-I 53 W/m -5,6 C -8,4 C 17,7 km/h (3 Bft)
16.01.2021 15:28 -3,0 C -3,3 C 82 % 1024,9 hPa 0,0 l/m 8,7 km/h (2 Bft) S-SW 198 0 min 0,0 UV-I 53 W/m -5,6 C -5,5 C 14,5 km/h (3 Bft)
16.01.2021 15:30 -3,0 C -3,3 C 82 % 1024,8 hPa 0,0 l/m 8,7 km/h (2 Bft) S-SW 198 0 min 0,0 UV-I 53 W/m -5,6 C -5,5 C 12,9 km/h (3 Bft)
16.01.2021 15:32 -3,0 C -3,3 C 83 % 1024,9 hPa 0,0 l/m 10,0 km/h (2 Bft) S-SW 203 0 min 0,0 UV-I 51 W/m -5,5 C -6,8 C 14,5 km/h (3 Bft)
16.01.2021 15:34 -3,1 C -3,3 C 83 % 1024,8 hPa 0,0 l/m 8,9 km/h (2 Bft) S-SO 156 0 min 0,0 UV-I 51 W/m -5,6 C -5,8 C 12,9 km/h (3 Bft)
16.01.2021 15:36 -3,1 C -3,3 C 83 % 1024,9 hPa 0,0 l/m 8,3 km/h (2 Bft) S 169 0 min 0,0 UV-I 50 W/m -5,6 C -5,2 C 11,3 km/h (2 Bft)
16.01.2021 15:38 -3,1 C -3,3 C 83 % 1024,8 hPa 0,0 l/m 8,0 km/h (2 Bft) S-SW 209 0 min 0,0 UV-I 49 W/m -5,6 C -4,9 C 12,9 km/h (3 Bft)
16.01.2021 15:40 -3,1 C -3,3 C 83 % 1024,8 hPa 0,0 l/m 7,7 km/h (2 Bft) S 190 0 min 0,0 UV-I 49 W/m -5,6 C -4,6 C 12,9 km/h (3 Bft)
16.01.2021 15:42 -3,1 C -3,3 C 83 % 1024,7 hPa 0,0 l/m 5,6 km/h (1 Bft) S 178 0 min 0,0 UV-I 48 W/m -5,6 C -3,1 C 8,0 km/h (2 Bft)
16.01.2021 15:44 -3,1 C -3,3 C 83 % 1024,8 hPa 0,0 l/m 10,6 km/h (2 Bft) S-SW 208 0 min 0,0 UV-I 47 W/m -5,6 C -7,4 C 19,3 km/h (3 Bft)
16.01.2021 15:46 -3,1 C -3,3 C 83 % 1024,7 hPa 0,0 l/m 9,0 km/h (2 Bft) S-SW 196 0 min 0,0 UV-I 44 W/m -5,6 C -5,9 C 20,9 km/h (4 Bft)
16.01.2021 15:48 -3,1 C -3,3 C 83 % 1024,8 hPa 0,0 l/m 11,0 km/h (2 Bft) S-SW 197 0 min 0,0 UV-I 42 W/m -5,6 C -7,8 C 17,7 km/h (3 Bft)
16.01.2021 15:50 -3,1 C -3,3 C 83 % 1024,7 hPa 0,0 l/m 13,4 km/h (3 Bft) S-SW 203 0 min 0,0 UV-I 40 W/m -5,6 C -9,6 C 19,3 km/h (3 Bft)
16.01.2021 15:52 -3,1 C -3,3 C 83 % 1024,7 hPa 0,0 l/m 11,5 km/h (2 Bft) S 185 0 min 0,0 UV-I 39 W/m -5,6 C -8,2 C 17,7 km/h (3 Bft)
16.01.2021 15:54 -3,1 C -3,3 C 83 % 1024,7 hPa 0,0 l/m 9,7 km/h (2 Bft) S-SW 192 0 min 0,0 UV-I 37 W/m -5,6 C -6,6 C 14,5 km/h (3 Bft)
16.01.2021 15:56 -3,2 C -3,3 C 83 % 1024,7 hPa 0,0 l/m 9,9 km/h (2 Bft) S-SO 165 0 min 0,0 UV-I 35 W/m -5,7 C -6,9 C 12,9 km/h (3 Bft)
16.01.2021 15:58 -3,2 C -3,3 C 83 % 1024,7 hPa 0,0 l/m 9,2 km/h (2 Bft) S-SW 194 0 min 0,0 UV-I 34 W/m -5,7 C -6,2 C 12,9 km/h (3 Bft)
16.01.2021 16:00 -3,2 C -3,3 C 83 % 1024,7 hPa 0,0 l/m 7,7 km/h (2 Bft) S 171 0 min 0,0 UV-I 32 W/m -5,7 C -4,7 C 9,7 km/h (2 Bft)
16.01.2021 16:02 -3,2 C -3,3 C 83 % 1024,7 hPa 0,0 l/m 8,9 km/h (2 Bft) S-SW 192 0 min 0,0 UV-I 31 W/m -5,7 C -5,9 C 12,9 km/h (3 Bft)
16.01.2021 16:04 -3,2 C -3,3 C 83 % 1024,6 hPa 0,0 l/m 7,1 km/h (2 Bft) S 183 0 min 0,0 UV-I 29 W/m -5,7 C -4,0 C 11,3 km/h (2 Bft)
16.01.2021 16:06 -3,2 C -3,3 C 84 % 1024,5 hPa 0,0 l/m 7,6 km/h (2 Bft) S 172 0 min 0,0 UV-I 27 W/m -5,5 C -4,6 C 9,7 km/h (2 Bft)
16.01.2021 16:08 -3,2 C -3,3 C 84 % 1024,4 hPa 0,0 l/m 7,8 km/h (2 Bft) S 179 0 min 0,0 UV-I 26 W/m -5,5 C -4,8 C 12,9 km/h (3 Bft)
16.01.2021 16:10 -3,2 C -3,3 C 84 % 1024,4 hPa 0,0 l/m 8,2 km/h (2 Bft) S 190 0 min 0,0 UV-I 25 W/m -5,5 C -5,2 C 14,5 km/h (3 Bft)
16.01.2021 16:12 -3,2 C -3,3 C 84 % 1024,4 hPa 0,0 l/m 7,4 km/h (2 Bft) S 183 0 min 0,0 UV-I 24 W/m -5,5 C -4,3 C 12,9 km/h (3 Bft)
16.01.2021 16:14 -3,2 C -3,3 C 84 % 1024,3 hPa 0,0 l/m 7,7 km/h (2 Bft) S-SO 163 0 min 0,0 UV-I 23 W/m -5,5 C -4,7 C 12,9 km/h (3 Bft)
16.01.2021 16:16 -3,2 C -3,3 C 84 % 1024,2 hPa 0,0 l/m 7,8 km/h (2 Bft) S 180 0 min 0,0 UV-I 21 W/m -5,5 C -4,8 C 12,9 km/h (3 Bft)
16.01.2021 16:18 -3,2 C -3,3 C 84 % 1024,2 hPa 0,0 l/m 7,5 km/h (2 Bft) S 183 0 min 0,0 UV-I 20 W/m -5,5 C -4,5 C 11,3 km/h (2 Bft)
16.01.2021 16:20 -3,2 C -3,3 C 84 % 1024,2 hPa 0,0 l/m 9,8 km/h (2 Bft) S 180 0 min 0,0 UV-I 19 W/m -5,5 C -6,8 C 14,5 km/h (3 Bft)
16.01.2021 16:22 -3,3 C -3,3 C 84 % 1024,1 hPa 0,0 l/m 8,7 km/h (2 Bft) S 189 0 min 0,0 UV-I 18 W/m -5,6 C -5,8 C 12,9 km/h (3 Bft)
16.01.2021 16:24 -3,3 C -3,3 C 84 % 1024,1 hPa 0,0 l/m 8,3 km/h (2 Bft) S-SO 166 0 min 0,0 UV-I 16 W/m -5,6 C -5,4 C 12,9 km/h (3 Bft)
16.01.2021 16:26 -3,2 C -3,3 C 84 % 1024,1 hPa 0,0 l/m 6,3 km/h (2 Bft) S-SO 151 0 min 0,0 UV-I 14 W/m -5,5 C -3,2 C 11,3 km/h (2 Bft)
16.01.2021 16:28 -3,2 C -3,9 C 84 % 1024,1 hPa 0,0 l/m 7,5 km/h (2 Bft) S 187 0 min 0,0 UV-I 14 W/m -5,5 C -4,5 C 12,9 km/h (3 Bft)
16.01.2021 16:30 -3,3 C -3,9 C 84 % 1024,1 hPa 0,0 l/m 7,5 km/h (2 Bft) S-SW 198 0 min 0,0 UV-I 12 W/m -5,6 C -4,6 C 12,9 km/h (3 Bft)
16.01.2021 16:32 -3,3 C -3,9 C 84 % 1024,0 hPa 0,0 l/m 9,1 km/h (2 Bft) S 178 0 min 0,0 UV-I 11 W/m -5,6 C -6,2 C 12,9 km/h (3 Bft)
16.01.2021 16:34 -3,3 C -3,9 C 84 % 1024,0 hPa 0,0 l/m 6,9 km/h (2 Bft) S 184 0 min 0,0 UV-I 11 W/m -5,6 C -3,9 C 9,7 km/h (2 Bft)
16.01.2021 16:36 -3,3 C -3,9 C 84 % 1023,9 hPa 0,0 l/m 10,5 km/h (2 Bft) S 185 0 min 0,0 UV-I 9 W/m -5,6 C -7,5 C 17,7 km/h (3 Bft)
16.01.2021 16:38 -3,3 C -3,9 C 84 % 1023,9 hPa 0,0 l/m 6,0 km/h (2 Bft) SW 215 0 min 0,0 UV-I 7 W/m -5,6 C -3,3 C 11,3 km/h (2 Bft)
16.01.2021 16:40 -3,3 C -3,9 C 84 % 1023,9 hPa 0,0 l/m 6,3 km/h (2 Bft) S-SW 198 0 min 0,0 UV-I 7 W/m -5,6 C -3,3 C 9,7 km/h (2 Bft)
16.01.2021 16:42 -3,3 C -3,9 C 84 % 1023,9 hPa 0,0 l/m 6,0 km/h (2 Bft) S 175 0 min 0,0 UV-I 5 W/m -5,6 C -3,3 C 9,7 km/h (2 Bft)
16.01.2021 16:44 -3,3 C -3,9 C 84 % 1023,8 hPa 0,0 l/m 8,3 km/h (2 Bft) S-SO 167 0 min 0,0 UV-I 5 W/m -5,6 C -5,4 C 12,9 km/h (3 Bft)
16.01.2021 16:46 -3,3 C -3,9 C 84 % 1023,8 hPa 0,0 l/m 8,3 km/h (2 Bft) S 171 0 min 0,0 UV-I 0 W/m -5,6 C -5,4 C 11,3 km/h (2 Bft)
16.01.2021 16:48 -3,3 C -3,9 C 85 % 1023,8 hPa 0,0 l/m 9,0 km/h (2 Bft) S 178 0 min 0,0 UV-I 0 W/m -5,5 C -6,1 C 14,5 km/h (3 Bft)
16.01.2021 16:50 -3,3 C -3,9 C 85 % 1023,7 hPa 0,0 l/m 7,8 km/h (2 Bft) S-SO 167 0 min 0,0 UV-I 0 W/m -5,5 C -4,9 C 12,9 km/h (3 Bft)
16.01.2021 16:52 -3,3 C -3,9 C 85 % 1023,7 hPa 0,0 l/m 8,1 km/h (2 Bft) S 171 0 min 0,0 UV-I 0 W/m -5,5 C -5,2 C 12,9 km/h (3 Bft)
16.01.2021 16:54 -3,3 C -3,9 C 85 % 1023,8 hPa 0,0 l/m 7,7 km/h (2 Bft) S-SW 196 0 min 0,0 UV-I 0 W/m -5,5 C -4,8 C 12,9 km/h (3 Bft)
16.01.2021 16:56 -3,3 C -3,9 C 85 % 1023,6 hPa 0,0 l/m 8,9 km/h (2 Bft) SO 140 0 min 0,0 UV-I 0 W/m -5,5 C -6,0 C 16,1 km/h (3 Bft)
16.01.2021 16:58 -3,3 C -3,9 C 85 % 1023,6 hPa 0,0 l/m 7,2 km/h (2 Bft) S 174 0 min 0,0 UV-I 0 W/m -5,5 C -4,2 C 12,9 km/h (3 Bft)
16.01.2021 17:00 -3,3 C -3,9 C 85 % 1023,6 hPa 0,0 l/m 7,8 km/h (2 Bft) S 176 0 min 0,0 UV-I 0 W/m -5,5 C -4,9 C 11,3 km/h (2 Bft)
16.01.2021 17:02 -3,3 C -3,9 C 85 % 1023,6 hPa 0,0 l/m 6,7 km/h (2 Bft) S 170 0 min 0,0 UV-I 0 W/m -5,5 C -3,6 C 9,7 km/h (2 Bft)
16.01.2021 17:04 -3,3 C -3,9 C 85 % 1023,5 hPa 0,0 l/m 8,3 km/h (2 Bft) S 182 0 min 0,0 UV-I 0 W/m -5,5 C -5,4 C 14,5 km/h (3 Bft)
16.01.2021 17:06 -3,3 C -3,9 C 85 % 1023,5 hPa 0,0 l/m 11,0 km/h (2 Bft) S 170 0 min 0,0 UV-I 0 W/m -5,5 C -8,0 C 17,7 km/h (3 Bft)
16.01.2021 17:08 -3,3 C -3,9 C 85 % 1023,5 hPa 0,0 l/m 11,9 km/h (2 Bft) S 180 0 min 0,0 UV-I 0 W/m -5,5 C -8,7 C 19,3 km/h (3 Bft)
16.01.2021 17:10 -3,3 C -3,9 C 85 % 1023,4 hPa 0,0 l/m 10,2 km/h (2 Bft) S 178 0 min 0,0 UV-I 0 W/m -5,5 C -7,3 C 17,7 km/h (3 Bft)
16.01.2021 17:12 -3,3 C -3,9 C 86 % 1023,4 hPa 0,0 l/m 10,7 km/h (2 Bft) S 188 0 min 0,0 UV-I 0 W/m -5,3 C -7,7 C 17,7 km/h (3 Bft)
16.01.2021 17:14 -3,3 C -3,9 C 86 % 1023,3 hPa 0,0 l/m 8,8 km/h (2 Bft) S 169 0 min 0,0 UV-I 0 W/m -5,3 C -5,9 C 14,5 km/h (3 Bft)
16.01.2021 17:16 -3,3 C -3,9 C 86 % 1023,1 hPa 0,0 l/m 10,0 km/h (2 Bft) S-SW 195 0 min 0,0 UV-I 0 W/m -5,3 C -7,1 C 22,5 km/h (4 Bft)
16.01.2021 17:18 -3,4 C -3,9 C 86 % 1023,2 hPa 0,0 l/m 11,0 km/h (2 Bft) S-SO 167 0 min 0,0 UV-I 0 W/m -5,4 C -8,1 C 16,1 km/h (3 Bft)
16.01.2021 17:20 -3,4 C -3,9 C 86 % 1023,1 hPa 0,0 l/m 7,5 km/h (2 Bft) SO 132 0 min 0,0 UV-I 0 W/m -5,4 C -4,7 C 12,9 km/h (3 Bft)
16.01.2021 17:22 -3,4 C -3,9 C 86 % 1023,1 hPa 0,0 l/m 7,7 km/h (2 Bft) S 178 0 min 0,0 UV-I 0 W/m -5,4 C -4,9 C 11,3 km/h (2 Bft)
16.01.2021 17:24 -3,4 C -3,9 C 86 % 1023,1 hPa 0,0 l/m 8,0 km/h (2 Bft) S 187 0 min 0,0 UV-I 0 W/m -5,4 C -5,2 C 12,9 km/h (3 Bft)
16.01.2021 17:26 -3,4 C -3,9 C 86 % 1023,0 hPa 0,0 l/m 7,6 km/h (2 Bft) S 175 0 min 0,0 UV-I 0 W/m -5,4 C -4,8 C 11,3 km/h (2 Bft)
16.01.2021 17:28 -3,4 C -3,9 C 86 % 1023,1 hPa 0,0 l/m 8,5 km/h (2 Bft) S-SW 202 0 min 0,0 UV-I 0 W/m -5,4 C -5,7 C 12,9 km/h (3 Bft)
16.01.2021 17:30 -3,4 C -3,9 C 87 % 1023,0 hPa 0,0 l/m 9,1 km/h (2 Bft) S-SW 212 0 min 0,0 UV-I 0 W/m -5,2 C -6,4 C 12,9 km/h (3 Bft)
16.01.2021 17:32 -3,4 C -3,9 C 87 % 1023,0 hPa 0,0 l/m 11,0 km/h (2 Bft) S 179 0 min 0,0 UV-I 0 W/m -5,2 C -8,1 C 16,1 km/h (3 Bft)
16.01.2021 17:34 -3,4 C -3,9 C 87 % 1022,9 hPa 0,0 l/m 8,3 km/h (2 Bft) S 186 0 min 0,0 UV-I 0 W/m -5,2 C -5,5 C 11,3 km/h (2 Bft)
16.01.2021 17:36 -3,4 C -3,9 C 87 % 1022,9 hPa 0,0 l/m 7,4 km/h (2 Bft) S 179 0 min 0,0 UV-I 0 W/m -5,2 C -4,5 C 12,9 km/h (3 Bft)
16.01.2021 17:38 -3,4 C -3,9 C 87 % 1022,9 hPa 0,0 l/m 7,7 km/h (2 Bft) S 175 0 min 0,0 UV-I 0 W/m -5,2 C -4,9 C 11,3 km/h (2 Bft)
16.01.2021 17:40 -3,4 C -3,9 C 88 % 1022,9 hPa 0,0 l/m 8,0 km/h (2 Bft) S 181 0 min 0,0 UV-I 0 W/m -5,1 C -5,2 C 11,3 km/h (2 Bft)
16.01.2021 17:42 -3,4 C -3,9 C 88 % 1022,8 hPa 0,0 l/m 8,3 km/h (2 Bft) S-SO 165 0 min 0,0 UV-I 0 W/m -5,1 C -5,5 C 11,3 km/h (2 Bft)
16.01.2021 17:44 -3,4 C -3,9 C 88 % 1022,6 hPa 0,0 l/m 9,1 km/h (2 Bft) S 190 0 min 0,0 UV-I 0 W/m -5,1 C -6,4 C 17,7 km/h (3 Bft)
16.01.2021 17:46 -3,4 C -3,9 C 88 % 1022,6 hPa 0,0 l/m 5,9 km/h (2 Bft) S 188 0 min 0,0 UV-I 0 W/m -5,1 C -3,4 C 9,7 km/h (2 Bft)
16.01.2021 17:48 -3,4 C -3,9 C 88 % 1022,6 hPa 0,0 l/m 4,5 km/h (1 Bft) S 189 0 min 0,0 UV-I 0 W/m -5,1 C -3,4 C 6,4 km/h (2 Bft)
16.01.2021 17:50 -3,4 C -3,9 C 88 % 1022,6 hPa 0,0 l/m 5,8 km/h (2 Bft) S 171 0 min 0,0 UV-I 0 W/m -5,1 C -3,4 C 8,0 km/h (2 Bft)
16.01.2021 17:52 -3,4 C -3,3 C 88 % 1022,5 hPa 0,0 l/m 8,9 km/h (2 Bft) S 169 0 min 0,0 UV-I 0 W/m -5,1 C -6,2 C 12,9 km/h (3 Bft)
16.01.2021 17:54 -3,4 C -3,9 C 88 % 1022,5 hPa 0,0 l/m 8,1 km/h (2 Bft) S-SO 148 0 min 0,0 UV-I 0 W/m -5,1 C -5,3 C 12,9 km/h (3 Bft)
16.01.2021 17:55 -3,4 C -3,9 C 88 % 1022,5 hPa 0,0 l/m 6,4 km/h (2 Bft) S-SO 157 0 min 0,0 UV-I 0 W/m -5,1 C -3,3 C 11,3 km/h (2 Bft)
16.01.2021 17:56 -3,4 C -3,9 C 88 % 1022,4 hPa 0,0 l/m 8,0 km/h (2 Bft) SO 135 0 min 0,0 UV-I 0 W/m -5,1 C -5,2 C 12,9 km/h (3 Bft)
16.01.2021 17:58 -3,4 C -3,3 C 89 % 1022,4 hPa 0,0 l/m 8,0 km/h (2 Bft) S-SO 153 0 min 0,0 UV-I 0 W/m -4,9 C -5,2 C 9,7 km/h (2 Bft)
16.01.2021 18:00 -3,5 C -3,3 C 89 % 1022,4 hPa 0,0 l/m 5,3 km/h (1 Bft) S-SO 149 0 min 0,0 UV-I 0 W/m -5,0 C -3,5 C 9,7 km/h (2 Bft)
16.01.2021 18:02 -3,4 C -3,3 C 89 % 1022,3 hPa 0,0 l/m 6,2 km/h (2 Bft) S-SO 161 0 min 0,0 UV-I 0 W/m -4,9 C -3,4 C 11,3 km/h (2 Bft)
16.01.2021 18:04 -3,4 C -3,9 C 89 % 1022,3 hPa 0,0 l/m 7,9 km/h (2 Bft) S-SO 157 0 min 0,0 UV-I 0 W/m -4,9 C -5,1 C 11,3 km/h (2 Bft)
16.01.2021 18:06 -3,4 C -3,9 C 89 % 1022,2 hPa 0,0 l/m 10,6 km/h (2 Bft) S-SO 159 0 min 0,0 UV-I 0 W/m -4,9 C -7,7 C 16,1 km/h (3 Bft)
16.01.2021 18:08 -3,5 C -3,9 C 89 % 1022,1 hPa 0,0 l/m 12,0 km/h (2 Bft) S 172 0 min 0,0 UV-I 0 W/m -5,0 C -9,0 C 20,9 km/h (4 Bft)
16.01.2021 18:10 -3,4 C -3,9 C 89 % 1022,1 hPa 0,0 l/m 14,8 km/h (3 Bft) SO 146 0 min 0,0 UV-I 0 W/m -4,9 C -11,0 C 20,9 km/h (4 Bft)
16.01.2021 18:12 -3,5 C -3,9 C 89 % 1022,0 hPa 0,0 l/m 12,4 km/h (3 Bft) O-SO 116 0 min 0,0 UV-I 0 W/m -5,0 C -9,3 C 19,3 km/h (3 Bft)
16.01.2021 18:14 -3,5 C -3,9 C 89 % 1022,0 hPa 0,0 l/m 9,2 km/h (2 Bft) S-SO 167 0 min 0,0 UV-I 0 W/m -5,0 C -6,6 C 19,3 km/h (3 Bft)
16.01.2021 18:16 -3,5 C -3,9 C 89 % 1022,0 hPa 0,0 l/m 11,3 km/h (2 Bft) SO 146 0 min 0,0 UV-I 0 W/m -5,0 C -8,5 C 16,1 km/h (3 Bft)
16.01.2021 18:18 -3,5 C -3,9 C 90 % 1021,9 hPa 0,0 l/m 14,3 km/h (3 Bft) S-SO 149 0 min 0,0 UV-I 0 W/m -4,9 C -10,7 C 24,1 km/h (4 Bft)
16.01.2021 18:20 -3,5 C -3,9 C 90 % 1021,9 hPa 0,0 l/m 11,9 km/h (2 Bft) S-SO 153 0 min 0,0 UV-I 0 W/m -4,9 C -9,0 C 17,7 km/h (3 Bft)
16.01.2021 18:22 -3,6 C -3,9 C 90 % 1021,9 hPa 0,0 l/m 11,7 km/h (2 Bft) S-SO 155 0 min 0,0 UV-I 0 W/m -5,0 C -8,9 C 16,1 km/h (3 Bft)
16.01.2021 18:24 -3,6 C -3,9 C 90 % 1021,8 hPa 0,0 l/m 10,1 km/h (2 Bft) S 189 0 min 0,0 UV-I 0 W/m -5,0 C -7,5 C 16,1 km/h (3 Bft)
16.01.2021 18:26 -3,5 C -3,9 C 90 % 1021,9 hPa 0,0 l/m 11,3 km/h (2 Bft) S-SO 155 0 min 0,0 UV-I 0 W/m -4,9 C -8,5 C 17,7 km/h (3 Bft)
16.01.2021 18:28 -3,5 C -3,9 C 90 % 1021,9 hPa 0,0 l/m 8,7 km/h (2 Bft) S-SW 192 0 min 0,0 UV-I 0 W/m -4,9 C -6,1 C 16,1 km/h (3 Bft)
16.01.2021 18:30 -3,5 C -3,9 C 90 % 1021,8 hPa 0,0 l/m 8,0 km/h (2 Bft) O-SO 123 0 min 0,0 UV-I 0 W/m -4,9 C -5,3 C 11,3 km/h (2 Bft)
16.01.2021 18:32 -3,5 C -3,9 C 90 % 1021,8 hPa 0,0 l/m 8,6 km/h (2 Bft) S-SO 166 0 min 0,0 UV-I 0 W/m -4,9 C -6,0 C 14,5 km/h (3 Bft)
16.01.2021 18:34 -3,6 C -3,9 C 90 % 1021,8 hPa 0,0 l/m 10,0 km/h (2 Bft) S 186 0 min 0,0 UV-I 0 W/m -5,0 C -7,4 C 16,1 km/h (3 Bft)
16.01.2021 18:36 -3,6 C -3,9 C 90 % 1021,8 hPa 0,0 l/m 7,8 km/h (2 Bft) S-SO 157 0 min 0,0 UV-I 0 W/m -5,0 C -5,2 C 12,9 km/h (3 Bft)
16.01.2021 18:38 -3,6 C -3,9 C 90 % 1021,9 hPa 0,0 l/m 12,3 km/h (3 Bft) S-SO 165 0 min 0,0 UV-I 0 W/m -5,0 C -9,4 C 19,3 km/h (3 Bft)
16.01.2021 18:40 -3,6 C -3,9 C 90 % 1021,9 hPa 0,0 l/m 10,2 km/h (2 Bft) S-SO 151 0 min 0,0 UV-I 0 W/m -5,0 C -7,6 C 16,1 km/h (3 Bft)
16.01.2021 18:42 -3,6 C -3,9 C 90 % 1021,9 hPa 0,0 l/m 9,5 km/h (2 Bft) S-SW 202 0 min 0,0 UV-I 0 W/m -5,0 C -7,0 C 12,9 km/h (3 Bft)
16.01.2021 18:44 -3,6 C -3,9 C 90 % 1021,8 hPa 0,0 l/m 9,8 km/h (2 Bft) S-SW 200 0 min 0,0 UV-I 0 W/m -5,0 C -7,2 C 16,1 km/h (3 Bft)
16.01.2021 18:46 -3,6 C -3,9 C 90 % 1021,8 hPa 0,0 l/m 13,5 km/h (3 Bft) S 185 0 min 0,0 UV-I 0 W/m -5,0 C -10,3 C 19,3 km/h (3 Bft)
16.01.2021 18:48 -3,6 C -3,9 C 90 % 1021,7 hPa 0,0 l/m 11,6 km/h (2 Bft) SW 222 0 min 0,0 UV-I 0 W/m -5,0 C -8,8 C 17,7 km/h (3 Bft)
16.01.2021 18:50 -3,6 C -3,9 C 90 % 1021,7 hPa 0,0 l/m 12,2 km/h (2 Bft) S-SW 194 0 min 0,0 UV-I 0 W/m -5,0 C -9,3 C 19,3 km/h (3 Bft)
16.01.2021 18:52 -3,6 C -3,9 C 90 % 1021,7 hPa 0,0 l/m 11,6 km/h (2 Bft) S 190 0 min 0,0 UV-I 0 W/m -5,0 C -8,8 C 17,7 km/h (3 Bft)
16.01.2021 18:54 -3,6 C -3,9 C 90 % 1021,7 hPa 0,0 l/m 9,7 km/h (2 Bft) S 178 0 min 0,0 UV-I 0 W/m -5,0 C -7,1 C 16,1 km/h (3 Bft)
16.01.2021 18:56 -3,6 C -3,9 C 90 % 1021,7 hPa 0,0 l/m 10,6 km/h (2 Bft) S 178 0 min 0,0 UV-I 0 W/m -5,0 C -8,0 C 17,7 km/h (3 Bft)
16.01.2021 18:58 -3,6 C -3,9 C 90 % 1021,7 hPa 0,0 l/m 6,9 km/h (2 Bft) S-SW 200 0 min 0,0 UV-I 0 W/m -5,0 C -4,2 C 12,9 km/h (3 Bft)
16.01.2021 19:00 -3,6 C -3,9 C 90 % 1021,7 hPa 0,0 l/m 9,8 km/h (2 Bft) S 185 0 min 0,0 UV-I 0 W/m -5,0 C -7,2 C 17,7 km/h (3 Bft)
16.01.2021 19:02 -3,6 C -3,9 C 90 % 1021,7 hPa 0,0 l/m 9,4 km/h (2 Bft) S 184 0 min 0,0 UV-I 0 W/m -5,0 C -6,9 C 14,5 km/h (3 Bft)
16.01.2021 19:04 -3,6 C -3,9 C 90 % 1021,7 hPa 0,0 l/m 11,2 km/h (2 Bft) S 190 0 min 0,0 UV-I 0 W/m -5,0 C -8,5 C 17,7 km/h (3 Bft)
16.01.2021 19:06 -3,6 C -3,9 C 90 % 1021,7 hPa 0,0 l/m 12,3 km/h (3 Bft) S 178 0 min 0,0 UV-I 0 W/m -5,0 C -9,4 C 19,3 km/h (3 Bft)
16.01.2021 19:08 -3,6 C -3,9 C 90 % 1021,7 hPa 0,0 l/m 8,4 km/h (2 Bft) S 175 0 min 0,0 UV-I 0 W/m -5,0 C -5,9 C 14,5 km/h (3 Bft)
16.01.2021 19:10 -3,6 C -3,9 C 90 % 1021,7 hPa 0,0 l/m 9,8 km/h (2 Bft) S 176 0 min 0,0 UV-I 0 W/m -5,0 C -7,2 C 19,3 km/h (3 Bft)
16.01.2021 19:12 -3,6 C -3,9 C 90 % 1021,6 hPa 0,0 l/m 12,8 km/h (3 Bft) S-SW 196 0 min 0,0 UV-I 0 W/m -5,0 C -9,8 C 19,3 km/h (3 Bft)
16.01.2021 19:14 -3,6 C -3,9 C 90 % 1021,5 hPa 0,0 l/m 12,0 km/h (2 Bft) S 184 0 min 0,0 UV-I 0 W/m -5,0 C -9,1 C 17,7 km/h (3 Bft)
16.01.2021 19:16 -3,7 C -3,9 C 90 % 1021,6 hPa 0,0 l/m 14,1 km/h (3 Bft) S 178 0 min 0,0 UV-I 0 W/m -5,1 C -10,8 C 22,5 km/h (4 Bft)
16.01.2021 19:18 -3,7 C -3,9 C 90 % 1021,6 hPa 0,0 l/m 13,4 km/h (3 Bft) S 190 0 min 0,0 UV-I 0 W/m -5,1 C -10,3 C 25,7 km/h (4 Bft)
16.01.2021 19:20 -3,7 C -3,9 C 90 % 1021,6 hPa 0,0 l/m 9,6 km/h (2 Bft) S 186 0 min 0,0 UV-I 0 W/m -5,1 C -7,2 C 17,7 km/h (3 Bft)
16.01.2021 19:22 -3,7 C -3,9 C 90 % 1021,5 hPa 0,0 l/m 12,1 km/h (2 Bft) S-SO 147 0 min 0,0 UV-I 0 W/m -5,1 C -9,3 C 17,7 km/h (3 Bft)
16.01.2021 19:24 -3,7 C -3,9 C 90 % 1021,6 hPa 0,0 l/m 11,2 km/h (2 Bft) S 175 0 min 0,0 UV-I 0 W/m -5,1 C -8,6 C 17,7 km/h (3 Bft)
16.01.2021 19:26 -3,7 C -3,9 C 90 % 1021,5 hPa 0,0 l/m 14,4 km/h (3 Bft) S-SW 202 0 min 0,0 UV-I 0 W/m -5,1 C -11,1 C 20,9 km/h (4 Bft)
16.01.2021 19:28 -3,7 C -3,9 C 90 % 1021,4 hPa 0,0 l/m 9,3 km/h (2 Bft) S 170 0 min 0,0 UV-I 0 W/m -5,1 C -6,9 C 14,5 km/h (3 Bft)
16.01.2021 19:30 -3,7 C -3,9 C 90 % 1021,5 hPa 0,0 l/m 9,9 km/h (2 Bft) S-SO 155 0 min 0,0 UV-I 0 W/m -5,1 C -7,4 C 14,5 km/h (3 Bft)
16.01.2021 19:32 -3,7 C -3,9 C 90 % 1021,4 hPa 0,0 l/m 11,1 km/h (2 Bft) S 190 0 min 0,0 UV-I 0 W/m -5,1 C -8,5 C 24,1 km/h (4 Bft)
16.01.2021 19:34 -3,7 C -3,9 C 90 % 1021,5 hPa 0,0 l/m 10,3 km/h (2 Bft) S 176 0 min 0,0 UV-I 0 W/m -5,1 C -7,8 C 17,7 km/h (3 Bft)
16.01.2021 19:36 -3,7 C -3,9 C 90 % 1021,5 hPa 0,0 l/m 9,2 km/h (2 Bft) S 177 0 min 0,0 UV-I 0 W/m -5,1 C -6,8 C 19,3 km/h (3 Bft)
16.01.2021 19:38 -3,7 C -3,9 C 90 % 1021,4 hPa 0,0 l/m 9,5 km/h (2 Bft) S-SW 200 0 min 0,0 UV-I 0 W/m -5,1 C -7,1 C 14,5 km/h (3 Bft)
16.01.2021 19:40 -3,8 C -3,9 C 90 % 1021,4 hPa 0,0 l/m 7,9 km/h (2 Bft) S-SO 152 0 min 0,0 UV-I 0 W/m -5,2 C -5,5 C 12,9 km/h (3 Bft)
16.01.2021 19:42 -3,8 C -3,9 C 91 % 1021,4 hPa 0,0 l/m 9,5 km/h (2 Bft) S 187 0 min 0,0 UV-I 0 W/m -5,0 C -7,2 C 14,5 km/h (3 Bft)
16.01.2021 19:44 -3,8 C -3,9 C 91 % 1021,5 hPa 0,0 l/m 11,0 km/h (2 Bft) S-SO 168 0 min 0,0 UV-I 0 W/m -5,0 C -8,5 C 17,7 km/h (3 Bft)
16.01.2021 19:46 -3,8 C -3,9 C 90 % 1021,4 hPa 0,0 l/m 10,2 km/h (2 Bft) S 189 0 min 0,0 UV-I 0 W/m -5,2 C -7,8 C 16,1 km/h (3 Bft)
16.01.2021 19:48 -3,8 C -3,9 C 90 % 1021,5 hPa 0,0 l/m 12,0 km/h (2 Bft) S 188 0 min 0,0 UV-I 0 W/m -5,2 C -9,4 C 17,7 km/h (3 Bft)
16.01.2021 19:50 -3,8 C -3,9 C 90 % 1021,4 hPa 0,0 l/m 11,4 km/h (2 Bft) S-SW 203 0 min 0,0 UV-I 0 W/m -5,2 C -8,9 C 19,3 km/h (3 Bft)
16.01.2021 19:52 -3,8 C -3,9 C 90 % 1021,4 hPa 0,0 l/m 9,6 km/h (2 Bft) S-SO 161 0 min 0,0 UV-I 0 W/m -5,2 C -7,3 C 16,1 km/h (3 Bft)
16.01.2021 19:54 -3,8 C -3,9 C 90 % 1021,4 hPa 0,0 l/m 10,1 km/h (2 Bft) S 186 0 min 0,0 UV-I 0 W/m -5,2 C -7,7 C 16,1 km/h (3 Bft)
16.01.2021 19:56 -3,8 C -3,9 C 90 % 1021,3 hPa 0,0 l/m 12,6 km/h (3 Bft) S-SW 213 0 min 0,0 UV-I 0 W/m -5,2 C -9,9 C 22,5 km/h (4 Bft)
16.01.2021 19:58 -3,8 C -3,9 C 90 % 1021,3 hPa 0,2 l/m 13,0 km/h (3 Bft) S 169 0 min 0,0 UV-I 0 W/m -5,2 C -10,2 C 20,9 km/h (4 Bft)
16.01.2021 20:00 -3,9 C -3,9 C 90 % 1021,4 hPa 0,0 l/m 10,8 km/h (2 Bft) SW 215 0 min 0,0 UV-I 0 W/m -5,3 C -8,5 C 16,1 km/h (3 Bft)
16.01.2021 20:02 -3,9 C -3,9 C 91 % 1021,4 hPa 0,0 l/m 9,2 km/h (2 Bft) S-SW 202 0 min 0,0 UV-I 0 W/m -5,1 C -7,0 C 17,7 km/h (3 Bft)
16.01.2021 20:04 -3,9 C -3,9 C 91 % 1021,3 hPa 0,0 l/m 8,9 km/h (2 Bft) S-SO 150 0 min 0,0 UV-I 0 W/m -5,1 C -6,7 C 11,3 km/h (2 Bft)
16.01.2021 20:06 -3,9 C -3,9 C 91 % 1021,3 hPa 0,0 l/m 10,0 km/h (2 Bft) S 177 0 min 0,0 UV-I 0 W/m -5,1 C -7,8 C 16,1 km/h (3 Bft)
16.01.2021 20:08 -3,9 C -3,9 C 91 % 1021,3 hPa 0,0 l/m 10,7 km/h (2 Bft) SW 219 0 min 0,0 UV-I 0 W/m -5,1 C -8,4 C 14,5 km/h (3 Bft)
16.01.2021 20:10 -3,9 C -3,9 C 91 % 1021,2 hPa 0,0 l/m 12,0 km/h (2 Bft) S-SO 153 0 min 0,0 UV-I 0 W/m -5,1 C -9,5 C 19,3 km/h (3 Bft)
16.01.2021 20:12 -3,9 C -3,9 C 91 % 1021,3 hPa 0,0 l/m 11,2 km/h (2 Bft) S-SO 153 0 min 0,0 UV-I 0 W/m -5,1 C -8,8 C 17,7 km/h (3 Bft)
16.01.2021 20:14 -3,9 C -3,9 C 91 % 1021,3 hPa 0,0 l/m 10,4 km/h (2 Bft) S-SW 208 0 min 0,0 UV-I 0 W/m -5,1 C -8,1 C 16,1 km/h (3 Bft)
16.01.2021 20:16 -3,9 C -3,9 C 91 % 1021,3 hPa 0,0 l/m 11,7 km/h (2 Bft) S 187 0 min 0,0 UV-I 0 W/m -5,1 C -9,2 C 17,7 km/h (3 Bft)
16.01.2021 20:18 -3,9 C -3,9 C 91 % 1021,2 hPa 0,0 l/m 8,2 km/h (2 Bft) S-SW 209 0 min 0,0 UV-I 0 W/m -5,1 C -6,0 C 14,5 km/h (3 Bft)
16.01.2021 20:20 -3,9 C -3,9 C 91 % 1021,3 hPa 0,0 l/m 10,8 km/h (2 Bft) SW 214 0 min 0,0 UV-I 0 W/m -5,1 C -8,5 C 17,7 km/h (3 Bft)
16.01.2021 20:22 -3,9 C -3,9 C 91 % 1021,3 hPa 0,0 l/m 8,9 km/h (2 Bft) S 184 0 min 0,0 UV-I 0 W/m -5,1 C -6,7 C 14,5 km/h (3 Bft)
16.01.2021 20:24 -4,0 C -3,9 C 91 % 1021,3 hPa 0,0 l/m 9,1 km/h (2 Bft) S 175 0 min 0,0 UV-I 0 W/m -5,2 C -7,0 C 14,5 km/h (3 Bft)
16.01.2021 20:26 -3,9 C -3,9 C 91 % 1021,3 hPa 0,0 l/m 9,9 km/h (2 Bft) S-SW 200 0 min 0,0 UV-I 0 W/m -5,1 C -7,7 C 16,1 km/h (3 Bft)
16.01.2021 20:28 -3,9 C -3,9 C 91 % 1021,3 hPa 0,0 l/m 9,8 km/h (2 Bft) S-SW 209 0 min 0,0 UV-I 0 W/m -5,1 C -7,6 C 14,5 km/h (3 Bft)
16.01.2021 20:30 -3,9 C -3,9 C 90 % 1021,3 hPa 0,0 l/m 10,7 km/h (2 Bft) S 174 0 min 0,0 UV-I 0 W/m -5,3 C -8,4 C 14,5 km/h (3 Bft)
16.01.2021 20:32 -3,9 C -3,9 C 90 % 1021,2 hPa 0,0 l/m 14,1 km/h (3 Bft) S 175 0 min 0,0 UV-I 0 W/m -5,3 C -11,1 C 24,1 km/h (4 Bft)
16.01.2021 20:34 -3,9 C -3,9 C 90 % 1021,2 hPa 0,0 l/m 9,7 km/h (2 Bft) S 172 0 min 0,0 UV-I 0 W/m -5,3 C -7,5 C 16,1 km/h (3 Bft)
16.01.2021 20:36 -4,0 C -3,9 C 90 % 1021,1 hPa 0,0 l/m 15,2 km/h (3 Bft) S 170 0 min 0,0 UV-I 0 W/m -5,4 C -12,0 C 24,1 km/h (4 Bft)
16.01.2021 20:38 -4,0 C -3,9 C 90 % 1021,1 hPa 0,0 l/m 10,9 km/h (2 Bft) S 183 0 min 0,0 UV-I 0 W/m -5,4 C -8,7 C 17,7 km/h (3 Bft)
16.01.2021 20:40 -4,0 C -3,9 C 90 % 1021,1 hPa 0,0 l/m 9,4 km/h (2 Bft) S 186 0 min 0,0 UV-I 0 W/m -5,4 C -7,3 C 16,1 km/h (3 Bft)
16.01.2021 20:42 -4,0 C -3,9 C 90 % 1021,0 hPa 0,0 l/m 10,5 km/h (2 Bft) S 181 0 min 0,0 UV-I 0 W/m -5,4 C -8,3 C 16,1 km/h (3 Bft)
16.01.2021 20:44 -4,1 C -3,9 C 90 % 1021,0 hPa 0,0 l/m 12,5 km/h (3 Bft) S 183 0 min 0,0 UV-I 0 W/m -5,5 C -10,1 C 19,3 km/h (3 Bft)
16.01.2021 20:46 -4,0 C -3,9 C 90 % 1020,9 hPa 0,0 l/m 10,0 km/h (2 Bft) SW 222 0 min 0,0 UV-I 0 W/m -5,4 C -7,9 C 14,5 km/h (3 Bft)
16.01.2021 20:48 -4,1 C -3,9 C 90 % 1021,0 hPa 0,0 l/m 12,8 km/h (3 Bft) S-SO 167 0 min 0,0 UV-I 0 W/m -5,5 C -10,4 C 17,7 km/h (3 Bft)
16.01.2021 20:50 -4,1 C -3,9 C 90 % 1020,9 hPa 0,0 l/m 11,5 km/h (2 Bft) S 190 0 min 0,0 UV-I 0 W/m -5,5 C -9,3 C 17,7 km/h (3 Bft)
16.01.2021 20:52 -4,1 C -3,9 C 90 % 1020,9 hPa 0,0 l/m 13,2 km/h (3 Bft) S-SW 198 0 min 0,0 UV-I 0 W/m -5,5 C -10,7 C 19,3 km/h (3 Bft)
16.01.2021 20:54 -4,1 C -3,9 C 90 % 1020,9 hPa 0,0 l/m 12,0 km/h (2 Bft) S-SW 203 0 min 0,0 UV-I 0 W/m -5,5 C -9,7 C 17,7 km/h (3 Bft)
16.01.2021 20:56 -4,1 C -3,9 C 91 % 1020,8 hPa 0,0 l/m 11,8 km/h (2 Bft) S 181 0 min 0,0 UV-I 0 W/m -5,3 C -9,6 C 16,1 km/h (3 Bft)
16.01.2021 20:58 -4,1 C -3,9 C 90 % 1020,8 hPa 0,0 l/m 12,1 km/h (2 Bft) S 189 0 min 0,0 UV-I 0 W/m -5,5 C -9,8 C 24,1 km/h (4 Bft)
16.01.2021 21:00 -4,1 C -3,9 C 91 % 1020,8 hPa 0,0 l/m 14,2 km/h (3 Bft) S 187 0 min 0,0 UV-I 0 W/m -5,3 C -11,4 C 27,4 km/h (4 Bft)
16.01.2021 21:02 -4,1 C -3,9 C 91 % 1020,6 hPa 0,0 l/m 12,0 km/h (2 Bft) S 181 0 min 0,0 UV-I 0 W/m -5,3 C -9,7 C 17,7 km/h (3 Bft)
16.01.2021 21:04 -4,1 C -3,9 C 90 % 1020,6 hPa 0,0 l/m 10,4 km/h (2 Bft) S-SW 207 0 min 0,0 UV-I 0 W/m -5,5 C -8,3 C 20,9 km/h (4 Bft)
16.01.2021 21:06 -4,1 C -3,9 C 90 % 1020,6 hPa 0,0 l/m 10,6 km/h (2 Bft) S 186 0 min 0,0 UV-I 0 W/m -5,5 C -8,5 C 19,3 km/h (3 Bft)
16.01.2021 21:08 -4,1 C -3,9 C 90 % 1020,7 hPa 0,0 l/m 17,0 km/h (3 Bft) S 178 0 min 0,0 UV-I 0 W/m -5,5 C -13,2 C 32,2 km/h (5 Bft)
16.01.2021 21:10 -4,1 C -4,4 C 90 % 1020,6 hPa 0,0 l/m 15,2 km/h (3 Bft) S 186 0 min 0,0 UV-I 0 W/m -5,5 C -12,1 C 25,7 km/h (4 Bft)
16.01.2021 21:12 -4,1 C -4,4 C 90 % 1020,6 hPa 0,0 l/m 12,4 km/h (3 Bft) S-SW 194 0 min 0,0 UV-I 0 W/m -5,5 C -10,0 C 20,9 km/h (4 Bft)
16.01.2021 21:14 -4,1 C -3,9 C 90 % 1020,5 hPa 0,0 l/m 11,7 km/h (2 Bft) S-SO 163 0 min 0,0 UV-I 0 W/m -5,5 C -9,5 C 20,9 km/h (4 Bft)
16.01.2021 21:16 -4,1 C -3,9 C 90 % 1020,5 hPa 0,0 l/m 9,3 km/h (2 Bft) S-SO 150 0 min 0,0 UV-I 0 W/m -5,5 C -7,3 C 14,5 km/h (3 Bft)
16.01.2021 21:18 -4,1 C -3,9 C 90 % 1020,5 hPa 0,0 l/m 13,6 km/h (3 Bft) S-SW 192 0 min 0,0 UV-I 0 W/m -5,5 C -11,0 C 19,3 km/h (3 Bft)
16.01.2021 21:20 -4,1 C -3,9 C 90 % 1020,5 hPa 0,0 l/m 11,5 km/h (2 Bft) S 188 0 min 0,0 UV-I 0 W/m -5,5 C -9,3 C 16,1 km/h (3 Bft)
16.01.2021 21:22 -4,1 C -3,9 C 90 % 1020,5 hPa 0,0 l/m 13,3 km/h (3 Bft) S-SW 213 0 min 0,0 UV-I 0 W/m -5,5 C -10,7 C 20,9 km/h (4 Bft)
16.01.2021 21:24 -4,1 C -3,9 C 90 % 1020,5 hPa 0,0 l/m 8,9 km/h (2 Bft) S 182 0 min 0,0 UV-I 0 W/m -5,5 C -6,9 C 16,1 km/h (3 Bft)
16.01.2021 21:26 -4,1 C -3,9 C 90 % 1020,4 hPa 0,0 l/m 9,1 km/h (2 Bft) S-SW 196 0 min 0,0 UV-I 0 W/m -5,5 C -7,1 C 12,9 km/h (3 Bft)
16.01.2021 21:28 -4,1 C -3,9 C 90 % 1020,5 hPa 0,0 l/m 8,9 km/h (2 Bft) S-SW 196 0 min 0,0 UV-I 0 W/m -5,5 C -6,9 C 16,1 km/h (3 Bft)
16.01.2021 21:30 -4,1 C -3,9 C 90 % 1020,4 hPa 0,0 l/m 11,2 km/h (2 Bft) S-SO 168 0 min 0,0 UV-I 0 W/m -5,5 C -9,1 C 17,7 km/h (3 Bft)
16.01.2021 21:32 -4,1 C -3,9 C 90 % 1020,4 hPa 0,0 l/m 12,3 km/h (3 Bft) S 191 0 min 0,0 UV-I 0 W/m -5,5 C -10,0 C 17,7 km/h (3 Bft)
16.01.2021 21:34 -4,1 C -3,9 C 90 % 1020,3 hPa 0,0 l/m 10,3 km/h (2 Bft) S-SO 161 0 min 0,0 UV-I 0 W/m -5,5 C -8,3 C 17,7 km/h (3 Bft)
16.01.2021 21:36 -4,1 C -3,9 C 90 % 1020,4 hPa 0,0 l/m 9,8 km/h (2 Bft) S 182 0 min 0,0 UV-I 0 W/m -5,5 C -7,8 C 17,7 km/h (3 Bft)
16.01.2021 21:38 -4,1 C -3,9 C 90 % 1020,4 hPa 0,0 l/m 10,5 km/h (2 Bft) S-SW 194 0 min 0,0 UV-I 0 W/m -5,5 C -8,4 C 17,7 km/h (3 Bft)
16.01.2021 21:40 -4,1 C -3,9 C 91 % 1020,3 hPa 0,0 l/m 11,9 km/h (2 Bft) S 184 0 min 0,0 UV-I 0 W/m -5,3 C -9,6 C 16,1 km/h (3 Bft)
16.01.2021 21:42 -4,1 C -3,9 C 91 % 1020,4 hPa 0,0 l/m 7,9 km/h (2 Bft) S-SW 198 0 min 0,0 UV-I 0 W/m -5,3 C -5,8 C 11,3 km/h (2 Bft)
16.01.2021 21:44 -4,1 C -3,9 C 91 % 1020,3 hPa 0,0 l/m 8,9 km/h (2 Bft) S 185 0 min 0,0 UV-I 0 W/m -5,3 C -6,9 C 14,5 km/h (3 Bft)
16.01.2021 21:46 -4,1 C -3,9 C 91 % 1020,3 hPa 0,0 l/m 11,9 km/h (2 Bft) S 175 0 min 0,0 UV-I 0 W/m -5,3 C -9,6 C 19,3 km/h (3 Bft)
16.01.2021 21:48 -4,1 C -3,9 C 91 % 1020,3 hPa 0,0 l/m 13,1 km/h (3 Bft) S-SW 192 0 min 0,0 UV-I 0 W/m -5,3 C -10,6 C 20,9 km/h (4 Bft)
16.01.2021 21:50 -4,1 C -3,9 C 91 % 1020,2 hPa 0,0 l/m 11,9 km/h (2 Bft) S 175 0 min 0,0 UV-I 0 W/m -5,3 C -9,6 C 17,7 km/h (3 Bft)
16.01.2021 21:52 -4,1 C -3,9 C 91 % 1020,1 hPa 0,0 l/m 13,8 km/h (3 Bft) S-SO 165 0 min 0,0 UV-I 0 W/m -5,3 C -11,1 C 20,9 km/h (4 Bft)
16.01.2021 21:54 -4,1 C -3,9 C 91 % 1020,1 hPa 0,0 l/m 12,6 km/h (3 Bft) S 178 0 min 0,0 UV-I 0 W/m -5,3 C -10,2 C 20,9 km/h (4 Bft)
16.01.2021 21:56 -4,1 C -3,9 C 91 % 1020,1 hPa 0,0 l/m 13,5 km/h (3 Bft) S-SW 208 0 min 0,0 UV-I 0 W/m -5,3 C -10,9 C 19,3 km/h (3 Bft)
16.01.2021 21:58 -4,1 C -3,9 C 91 % 1020,2 hPa 0,0 l/m 12,2 km/h (2 Bft) S-SW 202 0 min 0,0 UV-I 0 W/m -5,3 C -9,9 C 17,7 km/h (3 Bft)
16.01.2021 22:00 -4,1 C -3,9 C 91 % 1020,1 hPa 0,0 l/m 13,4 km/h (3 Bft) S-SW 202 0 min 0,0 UV-I 0 W/m -5,3 C -10,8 C 19,3 km/h (3 Bft)
16.01.2021 22:02 -4,2 C -3,9 C 90 % 1020,1 hPa 0,0 l/m 14,3 km/h (3 Bft) S 180 0 min 0,0 UV-I 0 W/m -5,6 C -11,6 C 22,5 km/h (4 Bft)
16.01.2021 22:04 -4,2 C -3,9 C 90 % 1020,1 hPa 0,0 l/m 12,6 km/h (3 Bft) S-SW 213 0 min 0,0 UV-I 0 W/m -5,6 C -10,3 C 22,5 km/h (4 Bft)
16.01.2021 22:06 -4,2 C -3,9 C 90 % 1020,1 hPa 0,0 l/m 11,7 km/h (2 Bft) SW 223 0 min 0,0 UV-I 0 W/m -5,6 C -9,6 C 20,9 km/h (4 Bft)
16.01.2021 22:08 -4,2 C -3,9 C 90 % 1020,1 hPa 0,0 l/m 12,4 km/h (3 Bft) S-SO 165 0 min 0,0 UV-I 0 W/m -5,6 C -10,2 C 19,3 km/h (3 Bft)
16.01.2021 22:10 -4,2 C -3,9 C 90 % 1020,0 hPa 0,0 l/m 10,7 km/h (2 Bft) S 180 0 min 0,0 UV-I 0 W/m -5,6 C -8,7 C 16,1 km/h (3 Bft)
16.01.2021 22:12 -4,2 C -3,9 C 90 % 1019,9 hPa 0,0 l/m 11,8 km/h (2 Bft) S-SO 161 0 min 0,0 UV-I 0 W/m -5,6 C -9,7 C 17,7 km/h (3 Bft)
16.01.2021 22:14 -4,2 C -3,9 C 90 % 1019,9 hPa 0,0 l/m 13,1 km/h (3 Bft) S 180 0 min 0,0 UV-I 0 W/m -5,6 C -10,7 C 19,3 km/h (3 Bft)
16.01.2021 22:16 -4,2 C -3,9 C 90 % 1019,9 hPa 0,0 l/m 12,2 km/h (2 Bft) S-SW 200 0 min 0,0 UV-I 0 W/m -5,6 C -10,0 C 19,3 km/h (3 Bft)
16.01.2021 22:18 -4,2 C -3,9 C 90 % 1019,8 hPa 0,0 l/m 11,8 km/h (2 Bft) SO 144 0 min 0,0 UV-I 0 W/m -5,6 C -9,7 C 16,1 km/h (3 Bft)
16.01.2021 22:20 -4,2 C -3,9 C 90 % 1019,8 hPa 0,0 l/m 10,9 km/h (2 Bft) S 182 0 min 0,0 UV-I 0 W/m -5,6 C -8,9 C 19,3 km/h (3 Bft)
16.01.2021 22:22 -4,2 C -3,9 C 90 % 1019,9 hPa 0,0 l/m 11,5 km/h (2 Bft) S-SW 193 0 min 0,0 UV-I 0 W/m -5,6 C -9,4 C 17,7 km/h (3 Bft)
16.01.2021 22:24 -4,2 C -3,9 C 90 % 1019,9 hPa 0,0 l/m 13,7 km/h (3 Bft) S 184 0 min 0,0 UV-I 0 W/m -5,6 C -11,2 C 20,9 km/h (4 Bft)
16.01.2021 22:26 -4,2 C -3,9 C 90 % 1019,8 hPa 0,0 l/m 13,3 km/h (3 Bft) S-SO 162 0 min 0,0 UV-I 0 W/m -5,6 C -10,9 C 27,4 km/h (4 Bft)
16.01.2021 22:28 -4,2 C -3,9 C 90 % 1019,8 hPa 0,0 l/m 15,2 km/h (3 Bft) O-SO 122 0 min 0,0 UV-I 0 W/m -5,6 C -12,2 C 22,5 km/h (4 Bft)
16.01.2021 22:30 -4,2 C -3,9 C 90 % 1019,8 hPa 0,0 l/m 11,2 km/h (2 Bft) S-SW 209 0 min 0,0 UV-I 0 W/m -5,6 C -9,2 C 19,3 km/h (3 Bft)
16.01.2021 22:32 -4,1 C -3,9 C 90 % 1019,8 hPa 0,0 l/m 16,5 km/h (3 Bft) SW 222 0 min 0,0 UV-I 0 W/m -5,5 C -12,9 C 22,5 km/h (4 Bft)
16.01.2021 22:34 -4,1 C -3,9 C 90 % 1019,8 hPa 0,0 l/m 11,6 km/h (2 Bft) S-SW 211 0 min 0,0 UV-I 0 W/m -5,5 C -9,4 C 17,7 km/h (3 Bft)
16.01.2021 22:36 -4,2 C -3,9 C 90 % 1019,7 hPa 0,0 l/m 12,5 km/h (3 Bft) S 171 0 min 0,0 UV-I 0 W/m -5,6 C -10,2 C 16,1 km/h (3 Bft)
16.01.2021 22:38 -4,1 C -3,9 C 90 % 1019,7 hPa 0,0 l/m 10,9 km/h (2 Bft) S-SW 196 0 min 0,0 UV-I 0 W/m -5,5 C -8,8 C 14,5 km/h (3 Bft)
16.01.2021 22:40 -4,1 C -3,9 C 90 % 1019,7 hPa 0,0 l/m 14,0 km/h (3 Bft) S-SW 207 0 min 0,0 UV-I 0 W/m -5,5 C -11,3 C 20,9 km/h (4 Bft)
16.01.2021 22:42 -4,1 C -3,9 C 90 % 1019,6 hPa 0,0 l/m 12,0 km/h (2 Bft) S 191 0 min 0,0 UV-I 0 W/m -5,5 C -9,7 C 17,7 km/h (3 Bft)
16.01.2021 22:44 -4,1 C -3,9 C 90 % 1019,4 hPa 0,0 l/m 14,5 km/h (3 Bft) S-SW 206 0 min 0,0 UV-I 0 W/m -5,5 C -11,6 C 20,9 km/h (4 Bft)
16.01.2021 22:46 -4,1 C -3,9 C 90 % 1019,6 hPa 0,0 l/m 10,0 km/h (2 Bft) S-SW 209 0 min 0,0 UV-I 0 W/m -5,5 C -8,0 C 14,5 km/h (3 Bft)
16.01.2021 22:48 -4,1 C -3,9 C 90 % 1019,6 hPa 0,0 l/m 10,0 km/h (2 Bft) S-SW 201 0 min 0,0 UV-I 0 W/m -5,5 C -8,0 C 14,5 km/h (3 Bft)
16.01.2021 22:50 -4,1 C -3,9 C 90 % 1019,6 hPa 0,0 l/m 10,2 km/h (2 Bft) S-SW 207 0 min 0,0 UV-I 0 W/m -5,5 C -8,2 C 16,1 km/h (3 Bft)
16.01.2021 22:52 -4,1 C -3,9 C 91 % 1019,7 hPa 0,0 l/m 10,2 km/h (2 Bft) SW 219 0 min 0,0 UV-I 0 W/m -5,3 C -8,2 C 14,5 km/h (3 Bft)
16.01.2021 22:54 -4,1 C -3,9 C 91 % 1019,7 hPa 0,0 l/m 14,7 km/h (3 Bft) S-SW 211 0 min 0,0 UV-I 0 W/m -5,3 C -11,7 C 24,1 km/h (4 Bft)
16.01.2021 22:56 -4,1 C -3,9 C 91 % 1019,6 hPa 0,0 l/m 14,8 km/h (3 Bft) S 188 0 min 0,0 UV-I 0 W/m -5,3 C -11,8 C 20,9 km/h (4 Bft)
16.01.2021 22:58 -4,1 C -3,9 C 91 % 1019,6 hPa 0,0 l/m 11,3 km/h (2 Bft) S-SW 206 0 min 0,0 UV-I 0 W/m -5,3 C -9,1 C 17,7 km/h (3 Bft)
16.01.2021 23:00 -4,1 C -3,9 C 91 % 1019,6 hPa 0,0 l/m 10,7 km/h (2 Bft) SW 232 0 min 0,0 UV-I 0 W/m -5,3 C -8,6 C 14,5 km/h (3 Bft)
16.01.2021 23:02 -4,1 C -3,9 C 91 % 1019,5 hPa 0,0 l/m 11,2 km/h (2 Bft) S-SW 202 0 min 0,0 UV-I 0 W/m -5,3 C -9,1 C 14,5 km/h (3 Bft)
16.01.2021 23:04 -4,1 C -3,9 C 91 % 1019,6 hPa 0,0 l/m 10,9 km/h (2 Bft) S-SW 196 0 min 0,0 UV-I 0 W/m -5,3 C -8,8 C 14,5 km/h (3 Bft)
16.01.2021 23:06 -4,1 C -3,9 C 91 % 1019,5 hPa 0,0 l/m 10,9 km/h (2 Bft) S 184 0 min 0,0 UV-I 0 W/m -5,3 C -8,8 C 16,1 km/h (3 Bft)
16.01.2021 23:08 -4,1 C -3,9 C 91 % 1019,6 hPa 0,0 l/m 11,4 km/h (2 Bft) S-SW 210 0 min 0,0 UV-I 0 W/m -5,3 C -9,2 C 14,5 km/h (3 Bft)
16.01.2021 23:10 -4,1 C -3,9 C 91 % 1019,5 hPa 0,0 l/m 10,2 km/h (2 Bft) S 189 0 min 0,0 UV-I 0 W/m -5,3 C -8,2 C 14,5 km/h (3 Bft)
16.01.2021 23:12 -4,1 C -3,9 C 91 % 1019,6 hPa 0,0 l/m 10,0 km/h (2 Bft) SW 218 0 min 0,0 UV-I 0 W/m -5,3 C -8,0 C 16,1 km/h (3 Bft)
16.01.2021 23:14 -4,1 C -3,9 C 91 % 1019,6 hPa 0,0 l/m 10,6 km/h (2 Bft) S-SW 196 0 min 0,0 UV-I 0 W/m -5,3 C -8,5 C 16,1 km/h (3 Bft)
16.01.2021 23:16 -4,1 C -3,9 C 91 % 1019,6 hPa 0,0 l/m 10,3 km/h (2 Bft) S-SW 206 0 min 0,0 UV-I 0 W/m -5,3 C -8,3 C 16,1 km/h (3 Bft)
16.01.2021 23:18 -4,1 C -3,9 C 91 % 1019,5 hPa 0,0 l/m 12,4 km/h (3 Bft) S-SW 202 0 min 0,0 UV-I 0 W/m -5,3 C -10,0 C 16,1 km/h (3 Bft)
16.01.2021 23:20 -4,1 C -3,9 C 91 % 1019,6 hPa 0,0 l/m 11,1 km/h (2 Bft) S-SW 203 0 min 0,0 UV-I 0 W/m -5,3 C -9,0 C 16,1 km/h (3 Bft)
16.01.2021 23:22 -4,1 C -3,9 C 91 % 1019,6 hPa 0,0 l/m 9,9 km/h (2 Bft) S-SW 195 0 min 0,0 UV-I 0 W/m -5,3 C -7,9 C 14,5 km/h (3 Bft)
16.01.2021 23:24 -4,0 C -3,9 C 91 % 1019,6 hPa 0,0 l/m 9,5 km/h (2 Bft) S-SW 203 0 min 0,0 UV-I 0 W/m -5,2 C -7,4 C 12,9 km/h (3 Bft)
16.01.2021 23:26 -4,1 C -3,9 C 91 % 1019,6 hPa 0,0 l/m 6,9 km/h (2 Bft) SW 214 0 min 0,0 UV-I 0 W/m -5,3 C -4,7 C 11,3 km/h (2 Bft)
16.01.2021 23:28 -4,1 C -3,9 C 91 % 1019,4 hPa 0,0 l/m 10,4 km/h (2 Bft) SW 216 0 min 0,0 UV-I 0 W/m -5,3 C -8,3 C 19,3 km/h (3 Bft)
16.01.2021 23:30 -4,1 C -3,9 C 91 % 1019,4 hPa 0,0 l/m 13,1 km/h (3 Bft) S 188 0 min 0,0 UV-I 0 W/m -5,3 C -10,6 C 17,7 km/h (3 Bft)
16.01.2021 23:32 -4,0 C -3,9 C 91 % 1019,5 hPa 0,0 l/m 11,2 km/h (2 Bft) S-SW 206 0 min 0,0 UV-I 0 W/m -5,2 C -8,9 C 14,5 km/h (3 Bft)
16.01.2021 23:33 -4,0 C -3,9 C 91 % 1019,5 hPa 0,0 l/m 9,7 km/h (2 Bft) S-SW 202 0 min 0,0 UV-I 0 W/m -5,2 C -7,6 C 12,9 km/h (3 Bft)
16.01.2021 23:34 -4,1 C -3,9 C 91 % 1019,4 hPa 0,0 l/m 6,4 km/h (2 Bft) S 180 0 min 0,0 UV-I 0 W/m -5,3 C -4,0 C 9,7 km/h (2 Bft)
16.01.2021 23:36 -4,0 C -3,9 C 91 % 1019,6 hPa 0,0 l/m 6,9 km/h (2 Bft) S-SW 200 0 min 0,0 UV-I 0 W/m -5,2 C -4,6 C 8,0 km/h (2 Bft)
16.01.2021 23:38 -4,1 C -3,9 C 91 % 1019,6 hPa 0,0 l/m 8,9 km/h (2 Bft) W-SW 238 0 min 0,0 UV-I 0 W/m -5,3 C -6,9 C 12,9 km/h (3 Bft)
16.01.2021 23:40 -4,1 C -3,3 C 91 % 1019,5 hPa 0,0 l/m 9,1 km/h (2 Bft) S-SW 210 0 min 0,0 UV-I 0 W/m -5,3 C -7,1 C 16,1 km/h (3 Bft)
16.01.2021 23:42 -4,1 C -3,9 C 91 % 1019,4 hPa 0,0 l/m 9,4 km/h (2 Bft) SW 221 0 min 0,0 UV-I 0 W/m -5,3 C -7,4 C 12,9 km/h (3 Bft)
16.01.2021 23:44 -4,1 C -3,9 C 91 % 1019,4 hPa 0,0 l/m 10,3 km/h (2 Bft) S-SW 212 0 min 0,0 UV-I 0 W/m -5,3 C -8,3 C 16,1 km/h (3 Bft)
16.01.2021 23:46 -4,1 C -3,3 C 91 % 1019,4 hPa 0,0 l/m 7,8 km/h (2 Bft) S-SW 206 0 min 0,0 UV-I 0 W/m -5,3 C -5,7 C 11,3 km/h (2 Bft)
16.01.2021 23:48 -4,1 C -3,9 C 91 % 1019,4 hPa 0,0 l/m 9,9 km/h (2 Bft) SW 223 0 min 0,0 UV-I 0 W/m -5,3 C -7,9 C 12,9 km/h (3 Bft)
16.01.2021 23:50 -4,1 C -3,9 C 91 % 1019,3 hPa 0,0 l/m 8,7 km/h (2 Bft) S-SW 194 0 min 0,0 UV-I 0 W/m -5,3 C -6,7 C 11,3 km/h (2 Bft)
16.01.2021 23:52 -4,1 C -3,3 C 91 % 1019,3 hPa 0,0 l/m 5,9 km/h (2 Bft) SW 218 0 min 0,0 UV-I 0 W/m -5,3 C -4,1 C 8,0 km/h (2 Bft)
16.01.2021 23:54 -4,1 C -3,3 C 91 % 1019,3 hPa 0,0 l/m 6,7 km/h (2 Bft) S-SW 211 0 min 0,0 UV-I 0 W/m -5,3 C -4,4 C 9,7 km/h (2 Bft)
16.01.2021 23:56 -4,1 C -3,3 C 91 % 1019,2 hPa 0,0 l/m 7,4 km/h (2 Bft) S-SW 202 0 min 0,0 UV-I 0 W/m -5,3 C -5,3 C 11,3 km/h (2 Bft)
16.01.2021 23:58 -4,1 C -3,3 C 91 % 1019,4 hPa 0,0 l/m 7,3 km/h (2 Bft) S-SW 211 0 min 0,0 UV-I 0 W/m -5,3 C -5,2 C 11,3 km/h (2 Bft)
16.01.2021 23:59 -4,1 C -3,3 C 91 % 1019,3 hPa 0,0 l/m 8,0 km/h (2 Bft) S-SW 202 0 min 0,0 UV-I 0 W/m -5,3 C -6,0 C 9,7 km/h (2 Bft)
_ Min-Zeit 21:24 21:10 13:52 23:56 - 00:00 - - - - - 15:56 21:08 00:08
Minimum _ -4,2 C -4,4 C 82 % 1019,2 hPa - 0,0 km/h (0 Bft) - - - - - -5,7 C -13,2 C 0,0 km/h (0 Bft)
_ Max-Zeit 12:00 10:38 08:28 00:04 19:58 21:08 - - 00:00 12:06 12:50 10:26 12:16 21:08
Maximum _ -2,5 C -1,7 C 93 % 1032,2 hPa 0,2 l/m 17,0 km/h
S (3 Bft)
- - 0 min 0,8 UV-I 153 W/m -4,2 C -2,5 C 32,2 km/h
S-SO (5 Bft)
Durchschnitt _ -3,5 C -3,4 C 89 % 1026,7 hPa #0,2 l/m 5,9 km/h (2 Bft) N-NW - #0 min. 0,6 UV-I 85 W/m -5,1 C -5,4 C 9,5 km/h (2 Bft)